<?xml version="1.0" encoding="UTF-8" standalone="no" ?>
<gpx xmlns="http://www.topografix.com/GPX/1/1" xmlns:xsi="http://www.w3.org/2001/XMLSchema-instance" xsi:schemaLocation="http://www.topografix.com/GPX/1/1 http://www.topografix.com/GPX/1/1/gpx.xsd" version="1.1" creator="VisuGPX - https://www.visugpx.com">
  <metadata>
    <name>83-libre-Taradeau</name>
    <desc><![CDATA[83-libre-Taradeau : les Arcs
2021-04-05]]></desc>
  </metadata>
  <trk>
    <name><![CDATA[2021-04-05-01-taradeau]]></name>
    <trkseg>
      <trkpt lat="43.45337" lon="6.4343">
        <ele>167</ele>
        <time>2021-04-05T06:51:24Z</time>
      </trkpt>
      <trkpt lat="43.45336" lon="6.4343">
        <ele>167</ele>
        <time>2021-04-05T06:51:25Z</time>
      </trkpt>
      <trkpt lat="43.45331" lon="6.4343">
        <ele>167.2</ele>
        <time>2021-04-05T06:51:32Z</time>
      </trkpt>
      <trkpt lat="43.45327" lon="6.43429">
        <ele>167.3</ele>
        <time>2021-04-05T06:51:38Z</time>
      </trkpt>
      <trkpt lat="43.45324" lon="6.43435">
        <ele>167.8</ele>
        <time>2021-04-05T06:51:47Z</time>
      </trkpt>
      <trkpt lat="43.45322" lon="6.43442">
        <ele>168.1</ele>
        <time>2021-04-05T06:51:52Z</time>
      </trkpt>
      <trkpt lat="43.45321" lon="6.43449">
        <ele>168.4</ele>
        <time>2021-04-05T06:51:59Z</time>
      </trkpt>
      <trkpt lat="43.45323" lon="6.43455">
        <ele>168.8</ele>
        <time>2021-04-05T06:52:20Z</time>
      </trkpt>
      <trkpt lat="43.45324" lon="6.43461">
        <ele>168.9</ele>
        <time>2021-04-05T06:52:33Z</time>
      </trkpt>
      <trkpt lat="43.45325" lon="6.43467">
        <ele>169.5</ele>
        <time>2021-04-05T06:53:00Z</time>
      </trkpt>
      <trkpt lat="43.45327" lon="6.43474">
        <ele>169.6</ele>
        <time>2021-04-05T06:53:07Z</time>
      </trkpt>
      <trkpt lat="43.45328" lon="6.4348">
        <ele>170</ele>
        <time>2021-04-05T06:53:12Z</time>
      </trkpt>
      <trkpt lat="43.45329" lon="6.43487">
        <ele>170.5</ele>
        <time>2021-04-05T06:53:17Z</time>
      </trkpt>
      <trkpt lat="43.4533" lon="6.43495">
        <ele>171</ele>
        <time>2021-04-05T06:53:22Z</time>
      </trkpt>
      <trkpt lat="43.4533" lon="6.43502">
        <ele>171.3</ele>
        <time>2021-04-05T06:53:27Z</time>
      </trkpt>
      <trkpt lat="43.45332" lon="6.43509">
        <ele>171.6</ele>
        <time>2021-04-05T06:53:31Z</time>
      </trkpt>
      <trkpt lat="43.45333" lon="6.43516">
        <ele>172.2</ele>
        <time>2021-04-05T06:53:37Z</time>
      </trkpt>
      <trkpt lat="43.45333" lon="6.43524">
        <ele>172.6</ele>
        <time>2021-04-05T06:53:42Z</time>
      </trkpt>
      <trkpt lat="43.45334" lon="6.4353">
        <ele>172.9</ele>
        <time>2021-04-05T06:53:46Z</time>
      </trkpt>
      <trkpt lat="43.45335" lon="6.43536">
        <ele>173.1</ele>
        <time>2021-04-05T06:53:51Z</time>
      </trkpt>
      <trkpt lat="43.45336" lon="6.43542">
        <ele>173.3</ele>
        <time>2021-04-05T06:53:56Z</time>
      </trkpt>
      <trkpt lat="43.45336" lon="6.43549">
        <ele>173.5</ele>
        <time>2021-04-05T06:54:00Z</time>
      </trkpt>
      <trkpt lat="43.45336" lon="6.43556">
        <ele>173.6</ele>
        <time>2021-04-05T06:54:05Z</time>
      </trkpt>
      <trkpt lat="43.45336" lon="6.43562">
        <ele>173.5</ele>
        <time>2021-04-05T06:54:09Z</time>
      </trkpt>
      <trkpt lat="43.45334" lon="6.43569">
        <ele>173.5</ele>
        <time>2021-04-05T06:54:14Z</time>
      </trkpt>
      <trkpt lat="43.45333" lon="6.43575">
        <ele>173.2</ele>
        <time>2021-04-05T06:54:19Z</time>
      </trkpt>
      <trkpt lat="43.45332" lon="6.43582">
        <ele>172.9</ele>
        <time>2021-04-05T06:54:23Z</time>
      </trkpt>
      <trkpt lat="43.45332" lon="6.43589">
        <ele>172.7</ele>
        <time>2021-04-05T06:54:28Z</time>
      </trkpt>
      <trkpt lat="43.45333" lon="6.43595">
        <ele>172.5</ele>
        <time>2021-04-05T06:54:33Z</time>
      </trkpt>
      <trkpt lat="43.45331" lon="6.43601">
        <ele>172.3</ele>
        <time>2021-04-05T06:54:37Z</time>
      </trkpt>
      <trkpt lat="43.4533" lon="6.43609">
        <ele>172</ele>
        <time>2021-04-05T06:54:42Z</time>
      </trkpt>
      <trkpt lat="43.4533" lon="6.43615">
        <ele>171.7</ele>
        <time>2021-04-05T06:54:46Z</time>
      </trkpt>
      <trkpt lat="43.45331" lon="6.43622">
        <ele>171.5</ele>
        <time>2021-04-05T06:54:50Z</time>
      </trkpt>
      <trkpt lat="43.45328" lon="6.43628">
        <ele>171.2</ele>
        <time>2021-04-05T06:54:55Z</time>
      </trkpt>
      <trkpt lat="43.45326" lon="6.43633">
        <ele>170.9</ele>
        <time>2021-04-05T06:54:59Z</time>
      </trkpt>
      <trkpt lat="43.45325" lon="6.43639">
        <ele>170.7</ele>
        <time>2021-04-05T06:55:03Z</time>
      </trkpt>
      <trkpt lat="43.45323" lon="6.43645">
        <ele>170.6</ele>
        <time>2021-04-05T06:55:08Z</time>
      </trkpt>
      <trkpt lat="43.45322" lon="6.43652">
        <ele>170.2</ele>
        <time>2021-04-05T06:55:13Z</time>
      </trkpt>
      <trkpt lat="43.4532" lon="6.43659">
        <ele>169.9</ele>
        <time>2021-04-05T06:55:17Z</time>
      </trkpt>
      <trkpt lat="43.4532" lon="6.43666">
        <ele>169.6</ele>
        <time>2021-04-05T06:55:21Z</time>
      </trkpt>
      <trkpt lat="43.45319" lon="6.43673">
        <ele>169.3</ele>
        <time>2021-04-05T06:55:26Z</time>
      </trkpt>
      <trkpt lat="43.45317" lon="6.43679">
        <ele>169</ele>
        <time>2021-04-05T06:55:30Z</time>
      </trkpt>
      <trkpt lat="43.45315" lon="6.43686">
        <ele>168.6</ele>
        <time>2021-04-05T06:55:35Z</time>
      </trkpt>
      <trkpt lat="43.45314" lon="6.43695">
        <ele>168.2</ele>
        <time>2021-04-05T06:55:39Z</time>
      </trkpt>
      <trkpt lat="43.45314" lon="6.43702">
        <ele>167.8</ele>
        <time>2021-04-05T06:55:44Z</time>
      </trkpt>
      <trkpt lat="43.45314" lon="6.43711">
        <ele>167.4</ele>
        <time>2021-04-05T06:55:48Z</time>
      </trkpt>
      <trkpt lat="43.45315" lon="6.43717">
        <ele>167.1</ele>
        <time>2021-04-05T06:55:52Z</time>
      </trkpt>
      <trkpt lat="43.45314" lon="6.43725">
        <ele>166.7</ele>
        <time>2021-04-05T06:55:56Z</time>
      </trkpt>
      <trkpt lat="43.45314" lon="6.43732">
        <ele>166.1</ele>
        <time>2021-04-05T06:56:01Z</time>
      </trkpt>
      <trkpt lat="43.45313" lon="6.43739">
        <ele>165.7</ele>
        <time>2021-04-05T06:56:05Z</time>
      </trkpt>
      <trkpt lat="43.45313" lon="6.43747">
        <ele>165.3</ele>
        <time>2021-04-05T06:56:10Z</time>
      </trkpt>
      <trkpt lat="43.45312" lon="6.43754">
        <ele>164.7</ele>
        <time>2021-04-05T06:56:15Z</time>
      </trkpt>
      <trkpt lat="43.45311" lon="6.43761">
        <ele>164.3</ele>
        <time>2021-04-05T06:56:20Z</time>
      </trkpt>
      <trkpt lat="43.45309" lon="6.43767">
        <ele>164</ele>
        <time>2021-04-05T06:56:25Z</time>
      </trkpt>
      <trkpt lat="43.45308" lon="6.43774">
        <ele>163.7</ele>
        <time>2021-04-05T06:56:30Z</time>
      </trkpt>
      <trkpt lat="43.45307" lon="6.4378">
        <ele>163.6</ele>
        <time>2021-04-05T06:56:34Z</time>
      </trkpt>
      <trkpt lat="43.45307" lon="6.43788">
        <ele>163.4</ele>
        <time>2021-04-05T06:56:39Z</time>
      </trkpt>
      <trkpt lat="43.45307" lon="6.43795">
        <ele>163.3</ele>
        <time>2021-04-05T06:56:43Z</time>
      </trkpt>
      <trkpt lat="43.45307" lon="6.43802">
        <ele>163.3</ele>
        <time>2021-04-05T06:56:48Z</time>
      </trkpt>
      <trkpt lat="43.45308" lon="6.43809">
        <ele>163.4</ele>
        <time>2021-04-05T06:56:52Z</time>
      </trkpt>
      <trkpt lat="43.45309" lon="6.43815">
        <ele>163.6</ele>
        <time>2021-04-05T06:56:56Z</time>
      </trkpt>
      <trkpt lat="43.4531" lon="6.43822">
        <ele>163.9</ele>
        <time>2021-04-05T06:57:00Z</time>
      </trkpt>
      <trkpt lat="43.45311" lon="6.43828">
        <ele>164.2</ele>
        <time>2021-04-05T06:57:04Z</time>
      </trkpt>
      <trkpt lat="43.45312" lon="6.43835">
        <ele>164.4</ele>
        <time>2021-04-05T06:57:08Z</time>
      </trkpt>
      <trkpt lat="43.45313" lon="6.43842">
        <ele>164.6</ele>
        <time>2021-04-05T06:57:13Z</time>
      </trkpt>
      <trkpt lat="43.45315" lon="6.4385">
        <ele>164.9</ele>
        <time>2021-04-05T06:57:18Z</time>
      </trkpt>
      <trkpt lat="43.45316" lon="6.43856">
        <ele>165.5</ele>
        <time>2021-04-05T06:57:23Z</time>
      </trkpt>
      <trkpt lat="43.45317" lon="6.43862">
        <ele>165.9</ele>
        <time>2021-04-05T06:57:28Z</time>
      </trkpt>
      <trkpt lat="43.4532" lon="6.4387">
        <ele>166.2</ele>
        <time>2021-04-05T06:57:33Z</time>
      </trkpt>
      <trkpt lat="43.45322" lon="6.43875">
        <ele>166.5</ele>
        <time>2021-04-05T06:57:36Z</time>
      </trkpt>
      <trkpt lat="43.45325" lon="6.43881">
        <ele>166.9</ele>
        <time>2021-04-05T06:57:40Z</time>
      </trkpt>
      <trkpt lat="43.45328" lon="6.43888">
        <ele>167.3</ele>
        <time>2021-04-05T06:57:45Z</time>
      </trkpt>
      <trkpt lat="43.45331" lon="6.43894">
        <ele>167.5</ele>
        <time>2021-04-05T06:57:49Z</time>
      </trkpt>
      <trkpt lat="43.45333" lon="6.439">
        <ele>167.7</ele>
        <time>2021-04-05T06:57:53Z</time>
      </trkpt>
      <trkpt lat="43.45335" lon="6.43906">
        <ele>168.2</ele>
        <time>2021-04-05T06:57:58Z</time>
      </trkpt>
      <trkpt lat="43.45338" lon="6.43911">
        <ele>168.6</ele>
        <time>2021-04-05T06:58:02Z</time>
      </trkpt>
      <trkpt lat="43.45341" lon="6.43917">
        <ele>168.9</ele>
        <time>2021-04-05T06:58:06Z</time>
      </trkpt>
      <trkpt lat="43.45344" lon="6.43922">
        <ele>169.2</ele>
        <time>2021-04-05T06:58:10Z</time>
      </trkpt>
      <trkpt lat="43.45346" lon="6.43929">
        <ele>169.4</ele>
        <time>2021-04-05T06:58:14Z</time>
      </trkpt>
      <trkpt lat="43.45348" lon="6.43934">
        <ele>169.8</ele>
        <time>2021-04-05T06:58:18Z</time>
      </trkpt>
      <trkpt lat="43.45352" lon="6.43939">
        <ele>170.2</ele>
        <time>2021-04-05T06:58:23Z</time>
      </trkpt>
      <trkpt lat="43.45353" lon="6.43946">
        <ele>170.6</ele>
        <time>2021-04-05T06:58:28Z</time>
      </trkpt>
      <trkpt lat="43.45356" lon="6.43952">
        <ele>171.1</ele>
        <time>2021-04-05T06:58:34Z</time>
      </trkpt>
      <trkpt lat="43.4536" lon="6.43956">
        <ele>171.6</ele>
        <time>2021-04-05T06:58:40Z</time>
      </trkpt>
      <trkpt lat="43.45364" lon="6.43962">
        <ele>172.1</ele>
        <time>2021-04-05T06:58:45Z</time>
      </trkpt>
      <trkpt lat="43.45367" lon="6.43965">
        <ele>172.4</ele>
        <time>2021-04-05T06:58:48Z</time>
      </trkpt>
      <trkpt lat="43.45371" lon="6.4397">
        <ele>172.9</ele>
        <time>2021-04-05T06:58:52Z</time>
      </trkpt>
      <trkpt lat="43.45373" lon="6.43976">
        <ele>173.3</ele>
        <time>2021-04-05T06:58:55Z</time>
      </trkpt>
      <trkpt lat="43.45377" lon="6.43981">
        <ele>173.6</ele>
        <time>2021-04-05T06:58:59Z</time>
      </trkpt>
      <trkpt lat="43.4538" lon="6.43986">
        <ele>174</ele>
        <time>2021-04-05T06:59:04Z</time>
      </trkpt>
      <trkpt lat="43.45383" lon="6.43992">
        <ele>174.2</ele>
        <time>2021-04-05T06:59:08Z</time>
      </trkpt>
      <trkpt lat="43.45388" lon="6.43998">
        <ele>174.5</ele>
        <time>2021-04-05T06:59:13Z</time>
      </trkpt>
      <trkpt lat="43.4539" lon="6.44003">
        <ele>174.6</ele>
        <time>2021-04-05T06:59:19Z</time>
      </trkpt>
      <trkpt lat="43.45391" lon="6.44009">
        <ele>174.7</ele>
        <time>2021-04-05T06:59:23Z</time>
      </trkpt>
      <trkpt lat="43.45394" lon="6.44015">
        <ele>174.8</ele>
        <time>2021-04-05T06:59:28Z</time>
      </trkpt>
      <trkpt lat="43.45394" lon="6.44022">
        <ele>174.9</ele>
        <time>2021-04-05T06:59:33Z</time>
      </trkpt>
      <trkpt lat="43.45394" lon="6.44029">
        <ele>175</ele>
        <time>2021-04-05T06:59:37Z</time>
      </trkpt>
      <trkpt lat="43.45396" lon="6.44035">
        <ele>175</ele>
        <time>2021-04-05T06:59:41Z</time>
      </trkpt>
      <trkpt lat="43.45398" lon="6.4404">
        <ele>175</ele>
        <time>2021-04-05T06:59:44Z</time>
      </trkpt>
      <trkpt lat="43.45402" lon="6.44047">
        <ele>175</ele>
        <time>2021-04-05T06:59:47Z</time>
      </trkpt>
      <trkpt lat="43.45405" lon="6.44052">
        <ele>175</ele>
        <time>2021-04-05T06:59:51Z</time>
      </trkpt>
      <trkpt lat="43.45408" lon="6.44058">
        <ele>175.1</ele>
        <time>2021-04-05T06:59:56Z</time>
      </trkpt>
      <trkpt lat="43.45413" lon="6.44061">
        <ele>175.2</ele>
        <time>2021-04-05T07:00:00Z</time>
      </trkpt>
      <trkpt lat="43.45417" lon="6.44066">
        <ele>175.5</ele>
        <time>2021-04-05T07:00:04Z</time>
      </trkpt>
      <trkpt lat="43.45421" lon="6.4407">
        <ele>175.8</ele>
        <time>2021-04-05T07:00:08Z</time>
      </trkpt>
      <trkpt lat="43.45425" lon="6.44073">
        <ele>176</ele>
        <time>2021-04-05T07:00:11Z</time>
      </trkpt>
      <trkpt lat="43.4543" lon="6.44076">
        <ele>176.2</ele>
        <time>2021-04-05T07:00:15Z</time>
      </trkpt>
      <trkpt lat="43.45435" lon="6.44078">
        <ele>176.6</ele>
        <time>2021-04-05T07:00:19Z</time>
      </trkpt>
      <trkpt lat="43.45441" lon="6.4408">
        <ele>177</ele>
        <time>2021-04-05T07:00:23Z</time>
      </trkpt>
      <trkpt lat="43.45444" lon="6.44084">
        <ele>177.2</ele>
        <time>2021-04-05T07:00:26Z</time>
      </trkpt>
      <trkpt lat="43.45449" lon="6.44086">
        <ele>177.8</ele>
        <time>2021-04-05T07:00:33Z</time>
      </trkpt>
      <trkpt lat="43.45452" lon="6.44081">
        <ele>178.3</ele>
        <time>2021-04-05T07:00:40Z</time>
      </trkpt>
      <trkpt lat="43.45457" lon="6.44082">
        <ele>178.6</ele>
        <time>2021-04-05T07:00:47Z</time>
      </trkpt>
      <trkpt lat="43.45462" lon="6.44084">
        <ele>179</ele>
        <time>2021-04-05T07:00:52Z</time>
      </trkpt>
      <trkpt lat="43.45466" lon="6.44086">
        <ele>179.3</ele>
        <time>2021-04-05T07:00:57Z</time>
      </trkpt>
      <trkpt lat="43.45471" lon="6.44087">
        <ele>179.5</ele>
        <time>2021-04-05T07:01:02Z</time>
      </trkpt>
      <trkpt lat="43.45476" lon="6.44088">
        <ele>179.6</ele>
        <time>2021-04-05T07:01:07Z</time>
      </trkpt>
      <trkpt lat="43.4548" lon="6.44087">
        <ele>179.7</ele>
        <time>2021-04-05T07:01:19Z</time>
      </trkpt>
      <trkpt lat="43.45485" lon="6.4409">
        <ele>179.7</ele>
        <time>2021-04-05T07:01:24Z</time>
      </trkpt>
      <trkpt lat="43.45489" lon="6.44093">
        <ele>179.7</ele>
        <time>2021-04-05T07:01:29Z</time>
      </trkpt>
      <trkpt lat="43.45495" lon="6.44094">
        <ele>179.7</ele>
        <time>2021-04-05T07:01:34Z</time>
      </trkpt>
      <trkpt lat="43.455" lon="6.44095">
        <ele>179.9</ele>
        <time>2021-04-05T07:01:39Z</time>
      </trkpt>
      <trkpt lat="43.45505" lon="6.44097">
        <ele>179.9</ele>
        <time>2021-04-05T07:01:44Z</time>
      </trkpt>
      <trkpt lat="43.4551" lon="6.44098">
        <ele>179.8</ele>
        <time>2021-04-05T07:01:48Z</time>
      </trkpt>
      <trkpt lat="43.45514" lon="6.44101">
        <ele>179.6</ele>
        <time>2021-04-05T07:01:53Z</time>
      </trkpt>
      <trkpt lat="43.45518" lon="6.44104">
        <ele>179.4</ele>
        <time>2021-04-05T07:01:57Z</time>
      </trkpt>
      <trkpt lat="43.45523" lon="6.44105">
        <ele>179.2</ele>
        <time>2021-04-05T07:02:01Z</time>
      </trkpt>
      <trkpt lat="43.45527" lon="6.44108">
        <ele>178.7</ele>
        <time>2021-04-05T07:02:06Z</time>
      </trkpt>
      <trkpt lat="43.45533" lon="6.44109">
        <ele>178.4</ele>
        <time>2021-04-05T07:02:10Z</time>
      </trkpt>
      <trkpt lat="43.45538" lon="6.4411">
        <ele>177.8</ele>
        <time>2021-04-05T07:02:15Z</time>
      </trkpt>
      <trkpt lat="43.45543" lon="6.44111">
        <ele>177.4</ele>
        <time>2021-04-05T07:02:18Z</time>
      </trkpt>
      <trkpt lat="43.45547" lon="6.44112">
        <ele>176.7</ele>
        <time>2021-04-05T07:02:23Z</time>
      </trkpt>
      <trkpt lat="43.45552" lon="6.44113">
        <ele>176.2</ele>
        <time>2021-04-05T07:02:27Z</time>
      </trkpt>
      <trkpt lat="43.45557" lon="6.44114">
        <ele>175.4</ele>
        <time>2021-04-05T07:02:32Z</time>
      </trkpt>
      <trkpt lat="43.45562" lon="6.44115">
        <ele>174.8</ele>
        <time>2021-04-05T07:02:36Z</time>
      </trkpt>
      <trkpt lat="43.45567" lon="6.44115">
        <ele>174.2</ele>
        <time>2021-04-05T07:02:40Z</time>
      </trkpt>
      <trkpt lat="43.45571" lon="6.44115">
        <ele>173.4</ele>
        <time>2021-04-05T07:02:44Z</time>
      </trkpt>
      <trkpt lat="43.45576" lon="6.44116">
        <ele>172.8</ele>
        <time>2021-04-05T07:02:48Z</time>
      </trkpt>
      <trkpt lat="43.45581" lon="6.44117">
        <ele>172</ele>
        <time>2021-04-05T07:02:53Z</time>
      </trkpt>
      <trkpt lat="43.45586" lon="6.44118">
        <ele>171.5</ele>
        <time>2021-04-05T07:02:57Z</time>
      </trkpt>
      <trkpt lat="43.45591" lon="6.44119">
        <ele>170.9</ele>
        <time>2021-04-05T07:03:02Z</time>
      </trkpt>
      <trkpt lat="43.45596" lon="6.4412">
        <ele>170.4</ele>
        <time>2021-04-05T07:03:06Z</time>
      </trkpt>
      <trkpt lat="43.45601" lon="6.4412">
        <ele>169.8</ele>
        <time>2021-04-05T07:03:11Z</time>
      </trkpt>
      <trkpt lat="43.45606" lon="6.44121">
        <ele>169.1</ele>
        <time>2021-04-05T07:03:16Z</time>
      </trkpt>
      <trkpt lat="43.45611" lon="6.44123">
        <ele>168.1</ele>
        <time>2021-04-05T07:03:22Z</time>
      </trkpt>
      <trkpt lat="43.45616" lon="6.44124">
        <ele>167.4</ele>
        <time>2021-04-05T07:03:26Z</time>
      </trkpt>
      <trkpt lat="43.45621" lon="6.44124">
        <ele>166.5</ele>
        <time>2021-04-05T07:03:31Z</time>
      </trkpt>
      <trkpt lat="43.45626" lon="6.44123">
        <ele>165.9</ele>
        <time>2021-04-05T07:03:35Z</time>
      </trkpt>
      <trkpt lat="43.4563" lon="6.4412">
        <ele>165.4</ele>
        <time>2021-04-05T07:03:38Z</time>
      </trkpt>
      <trkpt lat="43.45635" lon="6.44116">
        <ele>164.8</ele>
        <time>2021-04-05T07:03:42Z</time>
      </trkpt>
      <trkpt lat="43.4564" lon="6.44114">
        <ele>164.1</ele>
        <time>2021-04-05T07:03:46Z</time>
      </trkpt>
      <trkpt lat="43.45645" lon="6.44113">
        <ele>163.3</ele>
        <time>2021-04-05T07:03:52Z</time>
      </trkpt>
      <trkpt lat="43.45649" lon="6.44112">
        <ele>162.9</ele>
        <time>2021-04-05T07:03:57Z</time>
      </trkpt>
      <trkpt lat="43.45654" lon="6.4411">
        <ele>162.6</ele>
        <time>2021-04-05T07:04:01Z</time>
      </trkpt>
      <trkpt lat="43.45659" lon="6.44109">
        <ele>162.3</ele>
        <time>2021-04-05T07:04:05Z</time>
      </trkpt>
      <trkpt lat="43.45664" lon="6.4411">
        <ele>162.1</ele>
        <time>2021-04-05T07:04:10Z</time>
      </trkpt>
      <trkpt lat="43.45668" lon="6.44113">
        <ele>161.5</ele>
        <time>2021-04-05T07:04:15Z</time>
      </trkpt>
      <trkpt lat="43.45673" lon="6.44116">
        <ele>161.2</ele>
        <time>2021-04-05T07:04:20Z</time>
      </trkpt>
      <trkpt lat="43.45676" lon="6.44121">
        <ele>161.1</ele>
        <time>2021-04-05T07:04:24Z</time>
      </trkpt>
      <trkpt lat="43.4568" lon="6.44126">
        <ele>160.9</ele>
        <time>2021-04-05T07:04:29Z</time>
      </trkpt>
      <trkpt lat="43.45684" lon="6.44131">
        <ele>160.7</ele>
        <time>2021-04-05T07:04:34Z</time>
      </trkpt>
      <trkpt lat="43.45686" lon="6.44137">
        <ele>160.3</ele>
        <time>2021-04-05T07:04:39Z</time>
      </trkpt>
      <trkpt lat="43.45689" lon="6.44142">
        <ele>160.1</ele>
        <time>2021-04-05T07:04:43Z</time>
      </trkpt>
      <trkpt lat="43.45693" lon="6.44147">
        <ele>159.9</ele>
        <time>2021-04-05T07:04:46Z</time>
      </trkpt>
      <trkpt lat="43.45695" lon="6.44154">
        <ele>159.5</ele>
        <time>2021-04-05T07:04:52Z</time>
      </trkpt>
      <trkpt lat="43.45699" lon="6.4416">
        <ele>159.3</ele>
        <time>2021-04-05T07:04:56Z</time>
      </trkpt>
      <trkpt lat="43.45703" lon="6.44164">
        <ele>159</ele>
        <time>2021-04-05T07:05:01Z</time>
      </trkpt>
      <trkpt lat="43.45705" lon="6.4417">
        <ele>158.9</ele>
        <time>2021-04-05T07:05:05Z</time>
      </trkpt>
      <trkpt lat="43.45709" lon="6.44175">
        <ele>158.8</ele>
        <time>2021-04-05T07:05:09Z</time>
      </trkpt>
      <trkpt lat="43.45712" lon="6.4418">
        <ele>158.7</ele>
        <time>2021-04-05T07:05:13Z</time>
      </trkpt>
      <trkpt lat="43.45716" lon="6.44185">
        <ele>158.6</ele>
        <time>2021-04-05T07:05:18Z</time>
      </trkpt>
      <trkpt lat="43.4572" lon="6.4419">
        <ele>158.5</ele>
        <time>2021-04-05T07:05:21Z</time>
      </trkpt>
      <trkpt lat="43.45723" lon="6.44196">
        <ele>158.4</ele>
        <time>2021-04-05T07:05:25Z</time>
      </trkpt>
      <trkpt lat="43.45725" lon="6.44201">
        <ele>158.3</ele>
        <time>2021-04-05T07:05:29Z</time>
      </trkpt>
      <trkpt lat="43.45729" lon="6.44205">
        <ele>158.3</ele>
        <time>2021-04-05T07:05:33Z</time>
      </trkpt>
      <trkpt lat="43.45733" lon="6.4421">
        <ele>158.1</ele>
        <time>2021-04-05T07:05:37Z</time>
      </trkpt>
      <trkpt lat="43.45738" lon="6.44213">
        <ele>157.7</ele>
        <time>2021-04-05T07:05:41Z</time>
      </trkpt>
      <trkpt lat="43.45743" lon="6.44215">
        <ele>157.5</ele>
        <time>2021-04-05T07:05:45Z</time>
      </trkpt>
      <trkpt lat="43.45748" lon="6.44217">
        <ele>157.2</ele>
        <time>2021-04-05T07:05:50Z</time>
      </trkpt>
      <trkpt lat="43.45752" lon="6.44218">
        <ele>157</ele>
        <time>2021-04-05T07:05:55Z</time>
      </trkpt>
      <trkpt lat="43.45758" lon="6.44219">
        <ele>156.9</ele>
        <time>2021-04-05T07:06:00Z</time>
      </trkpt>
      <trkpt lat="43.45763" lon="6.44222">
        <ele>156.5</ele>
        <time>2021-04-05T07:06:06Z</time>
      </trkpt>
      <trkpt lat="43.45768" lon="6.44224">
        <ele>156.1</ele>
        <time>2021-04-05T07:06:11Z</time>
      </trkpt>
      <trkpt lat="43.45773" lon="6.44226">
        <ele>155.7</ele>
        <time>2021-04-05T07:06:15Z</time>
      </trkpt>
      <trkpt lat="43.45778" lon="6.44229">
        <ele>155.4</ele>
        <time>2021-04-05T07:06:20Z</time>
      </trkpt>
      <trkpt lat="43.45782" lon="6.44232">
        <ele>154.7</ele>
        <time>2021-04-05T07:06:27Z</time>
      </trkpt>
      <trkpt lat="43.45787" lon="6.44234">
        <ele>154.3</ele>
        <time>2021-04-05T07:06:32Z</time>
      </trkpt>
      <trkpt lat="43.45792" lon="6.44236">
        <ele>153.4</ele>
        <time>2021-04-05T07:06:38Z</time>
      </trkpt>
      <trkpt lat="43.45797" lon="6.44239">
        <ele>153.1</ele>
        <time>2021-04-05T07:06:42Z</time>
      </trkpt>
      <trkpt lat="43.45802" lon="6.44241">
        <ele>152.3</ele>
        <time>2021-04-05T07:06:49Z</time>
      </trkpt>
      <trkpt lat="43.45807" lon="6.44241">
        <ele>151.9</ele>
        <time>2021-04-05T07:06:54Z</time>
      </trkpt>
      <trkpt lat="43.45812" lon="6.44241">
        <ele>151.6</ele>
        <time>2021-04-05T07:06:58Z</time>
      </trkpt>
      <trkpt lat="43.45818" lon="6.44242">
        <ele>151.4</ele>
        <time>2021-04-05T07:07:03Z</time>
      </trkpt>
      <trkpt lat="43.45823" lon="6.44243">
        <ele>151.1</ele>
        <time>2021-04-05T07:07:08Z</time>
      </trkpt>
      <trkpt lat="43.45828" lon="6.44247">
        <ele>151</ele>
        <time>2021-04-05T07:07:12Z</time>
      </trkpt>
      <trkpt lat="43.45832" lon="6.44251">
        <ele>150.9</ele>
        <time>2021-04-05T07:07:18Z</time>
      </trkpt>
      <trkpt lat="43.45832" lon="6.44258">
        <ele>150.8</ele>
        <time>2021-04-05T07:07:27Z</time>
      </trkpt>
      <trkpt lat="43.45829" lon="6.44263">
        <ele>150.9</ele>
        <time>2021-04-05T07:07:33Z</time>
      </trkpt>
      <trkpt lat="43.45826" lon="6.44268">
        <ele>150.9</ele>
        <time>2021-04-05T07:07:38Z</time>
      </trkpt>
      <trkpt lat="43.45824" lon="6.44275">
        <ele>150.8</ele>
        <time>2021-04-05T07:07:44Z</time>
      </trkpt>
      <trkpt lat="43.45821" lon="6.4428">
        <ele>150.8</ele>
        <time>2021-04-05T07:07:48Z</time>
      </trkpt>
      <trkpt lat="43.45819" lon="6.44286">
        <ele>150.8</ele>
        <time>2021-04-05T07:07:52Z</time>
      </trkpt>
      <trkpt lat="43.45817" lon="6.44291">
        <ele>150.9</ele>
        <time>2021-04-05T07:07:56Z</time>
      </trkpt>
      <trkpt lat="43.45814" lon="6.44296">
        <ele>150.8</ele>
        <time>2021-04-05T07:08:01Z</time>
      </trkpt>
      <trkpt lat="43.45812" lon="6.44302">
        <ele>150.7</ele>
        <time>2021-04-05T07:08:06Z</time>
      </trkpt>
      <trkpt lat="43.4581" lon="6.44309">
        <ele>150.6</ele>
        <time>2021-04-05T07:08:10Z</time>
      </trkpt>
      <trkpt lat="43.45808" lon="6.44314">
        <ele>150.6</ele>
        <time>2021-04-05T07:08:15Z</time>
      </trkpt>
      <trkpt lat="43.45805" lon="6.4432">
        <ele>150.5</ele>
        <time>2021-04-05T07:08:19Z</time>
      </trkpt>
      <trkpt lat="43.45804" lon="6.44326">
        <ele>150.5</ele>
        <time>2021-04-05T07:08:23Z</time>
      </trkpt>
      <trkpt lat="43.45803" lon="6.44333">
        <ele>150.5</ele>
        <time>2021-04-05T07:08:27Z</time>
      </trkpt>
      <trkpt lat="43.45801" lon="6.44339">
        <ele>150.5</ele>
        <time>2021-04-05T07:08:31Z</time>
      </trkpt>
      <trkpt lat="43.45798" lon="6.44345">
        <ele>150.4</ele>
        <time>2021-04-05T07:08:35Z</time>
      </trkpt>
      <trkpt lat="43.45794" lon="6.44351">
        <ele>150.3</ele>
        <time>2021-04-05T07:08:39Z</time>
      </trkpt>
      <trkpt lat="43.45793" lon="6.44358">
        <ele>150.2</ele>
        <time>2021-04-05T07:08:43Z</time>
      </trkpt>
      <trkpt lat="43.4579" lon="6.44364">
        <ele>150.1</ele>
        <time>2021-04-05T07:08:48Z</time>
      </trkpt>
      <trkpt lat="43.45789" lon="6.44371">
        <ele>150.1</ele>
        <time>2021-04-05T07:08:52Z</time>
      </trkpt>
      <trkpt lat="43.45785" lon="6.44375">
        <ele>150.2</ele>
        <time>2021-04-05T07:08:56Z</time>
      </trkpt>
      <trkpt lat="43.45785" lon="6.44381">
        <ele>150.2</ele>
        <time>2021-04-05T07:09:00Z</time>
      </trkpt>
      <trkpt lat="43.45784" lon="6.44389">
        <ele>150.3</ele>
        <time>2021-04-05T07:09:04Z</time>
      </trkpt>
      <trkpt lat="43.45782" lon="6.44397">
        <ele>150.3</ele>
        <time>2021-04-05T07:09:08Z</time>
      </trkpt>
      <trkpt lat="43.45781" lon="6.44403">
        <ele>150.4</ele>
        <time>2021-04-05T07:09:13Z</time>
      </trkpt>
      <trkpt lat="43.45778" lon="6.44409">
        <ele>150.5</ele>
        <time>2021-04-05T07:09:16Z</time>
      </trkpt>
      <trkpt lat="43.45777" lon="6.44416">
        <ele>150.6</ele>
        <time>2021-04-05T07:09:21Z</time>
      </trkpt>
      <trkpt lat="43.45774" lon="6.44423">
        <ele>150.7</ele>
        <time>2021-04-05T07:09:25Z</time>
      </trkpt>
      <trkpt lat="43.45775" lon="6.4443">
        <ele>150.6</ele>
        <time>2021-04-05T07:09:29Z</time>
      </trkpt>
      <trkpt lat="43.45775" lon="6.44438">
        <ele>150.6</ele>
        <time>2021-04-05T07:09:33Z</time>
      </trkpt>
      <trkpt lat="43.45774" lon="6.44446">
        <ele>150.6</ele>
        <time>2021-04-05T07:09:38Z</time>
      </trkpt>
      <trkpt lat="43.45774" lon="6.44454">
        <ele>150.5</ele>
        <time>2021-04-05T07:09:42Z</time>
      </trkpt>
      <trkpt lat="43.45773" lon="6.4446">
        <ele>150.2</ele>
        <time>2021-04-05T07:09:46Z</time>
      </trkpt>
      <trkpt lat="43.45772" lon="6.44466">
        <ele>150</ele>
        <time>2021-04-05T07:09:50Z</time>
      </trkpt>
      <trkpt lat="43.4577" lon="6.44472">
        <ele>149.8</ele>
        <time>2021-04-05T07:09:54Z</time>
      </trkpt>
      <trkpt lat="43.45769" lon="6.4448">
        <ele>149.6</ele>
        <time>2021-04-05T07:09:58Z</time>
      </trkpt>
      <trkpt lat="43.45768" lon="6.44486">
        <ele>149.4</ele>
        <time>2021-04-05T07:10:02Z</time>
      </trkpt>
      <trkpt lat="43.45767" lon="6.44493">
        <ele>149.3</ele>
        <time>2021-04-05T07:10:06Z</time>
      </trkpt>
      <trkpt lat="43.45767" lon="6.44501">
        <ele>149.1</ele>
        <time>2021-04-05T07:10:11Z</time>
      </trkpt>
      <trkpt lat="43.45768" lon="6.44507">
        <ele>149.1</ele>
        <time>2021-04-05T07:10:14Z</time>
      </trkpt>
      <trkpt lat="43.45769" lon="6.44515">
        <ele>148.9</ele>
        <time>2021-04-05T07:10:19Z</time>
      </trkpt>
      <trkpt lat="43.45768" lon="6.44523">
        <ele>148.7</ele>
        <time>2021-04-05T07:10:23Z</time>
      </trkpt>
      <trkpt lat="43.45769" lon="6.4453">
        <ele>148.4</ele>
        <time>2021-04-05T07:10:26Z</time>
      </trkpt>
      <trkpt lat="43.45768" lon="6.44537">
        <ele>147.9</ele>
        <time>2021-04-05T07:10:30Z</time>
      </trkpt>
      <trkpt lat="43.45766" lon="6.44543">
        <ele>147.5</ele>
        <time>2021-04-05T07:10:34Z</time>
      </trkpt>
      <trkpt lat="43.45765" lon="6.44549">
        <ele>147.2</ele>
        <time>2021-04-05T07:10:38Z</time>
      </trkpt>
      <trkpt lat="43.45764" lon="6.44557">
        <ele>146.7</ele>
        <time>2021-04-05T07:10:43Z</time>
      </trkpt>
      <trkpt lat="43.45764" lon="6.44563">
        <ele>146.3</ele>
        <time>2021-04-05T07:10:47Z</time>
      </trkpt>
      <trkpt lat="43.45763" lon="6.44571">
        <ele>145.9</ele>
        <time>2021-04-05T07:10:52Z</time>
      </trkpt>
      <trkpt lat="43.45762" lon="6.44578">
        <ele>145.5</ele>
        <time>2021-04-05T07:10:56Z</time>
      </trkpt>
      <trkpt lat="43.45762" lon="6.44585">
        <ele>145.1</ele>
        <time>2021-04-05T07:11:00Z</time>
      </trkpt>
      <trkpt lat="43.45763" lon="6.44591">
        <ele>144.8</ele>
        <time>2021-04-05T07:11:04Z</time>
      </trkpt>
      <trkpt lat="43.45764" lon="6.44599">
        <ele>144.5</ele>
        <time>2021-04-05T07:11:08Z</time>
      </trkpt>
      <trkpt lat="43.45763" lon="6.44606">
        <ele>144.2</ele>
        <time>2021-04-05T07:11:13Z</time>
      </trkpt>
      <trkpt lat="43.45762" lon="6.44612">
        <ele>143.8</ele>
        <time>2021-04-05T07:11:17Z</time>
      </trkpt>
      <trkpt lat="43.45762" lon="6.44619">
        <ele>143.4</ele>
        <time>2021-04-05T07:11:21Z</time>
      </trkpt>
      <trkpt lat="43.45762" lon="6.44626">
        <ele>142.9</ele>
        <time>2021-04-05T07:11:26Z</time>
      </trkpt>
      <trkpt lat="43.45761" lon="6.44633">
        <ele>142.4</ele>
        <time>2021-04-05T07:11:31Z</time>
      </trkpt>
      <trkpt lat="43.45761" lon="6.4464">
        <ele>141.8</ele>
        <time>2021-04-05T07:11:35Z</time>
      </trkpt>
      <trkpt lat="43.45762" lon="6.44647">
        <ele>141.3</ele>
        <time>2021-04-05T07:11:39Z</time>
      </trkpt>
      <trkpt lat="43.45764" lon="6.44653">
        <ele>140.9</ele>
        <time>2021-04-05T07:11:42Z</time>
      </trkpt>
      <trkpt lat="43.45765" lon="6.4466">
        <ele>140.4</ele>
        <time>2021-04-05T07:11:46Z</time>
      </trkpt>
      <trkpt lat="43.45764" lon="6.44666">
        <ele>139.8</ele>
        <time>2021-04-05T07:11:50Z</time>
      </trkpt>
      <trkpt lat="43.45764" lon="6.44673">
        <ele>139.3</ele>
        <time>2021-04-05T07:11:54Z</time>
      </trkpt>
      <trkpt lat="43.45765" lon="6.4468">
        <ele>138.9</ele>
        <time>2021-04-05T07:11:58Z</time>
      </trkpt>
      <trkpt lat="43.45764" lon="6.44686">
        <ele>138.3</ele>
        <time>2021-04-05T07:12:03Z</time>
      </trkpt>
      <trkpt lat="43.45764" lon="6.44693">
        <ele>137.5</ele>
        <time>2021-04-05T07:12:09Z</time>
      </trkpt>
      <trkpt lat="43.45763" lon="6.447">
        <ele>136.8</ele>
        <time>2021-04-05T07:12:14Z</time>
      </trkpt>
      <trkpt lat="43.45762" lon="6.44707">
        <ele>136</ele>
        <time>2021-04-05T07:12:20Z</time>
      </trkpt>
      <trkpt lat="43.4576" lon="6.44713">
        <ele>135.3</ele>
        <time>2021-04-05T07:12:25Z</time>
      </trkpt>
      <trkpt lat="43.45759" lon="6.4472">
        <ele>134.6</ele>
        <time>2021-04-05T07:12:29Z</time>
      </trkpt>
      <trkpt lat="43.45758" lon="6.44726">
        <ele>133.9</ele>
        <time>2021-04-05T07:12:34Z</time>
      </trkpt>
      <trkpt lat="43.45756" lon="6.44733">
        <ele>133.4</ele>
        <time>2021-04-05T07:12:38Z</time>
      </trkpt>
      <trkpt lat="43.45755" lon="6.4474">
        <ele>132.7</ele>
        <time>2021-04-05T07:12:43Z</time>
      </trkpt>
      <trkpt lat="43.45753" lon="6.44746">
        <ele>131.9</ele>
        <time>2021-04-05T07:12:49Z</time>
      </trkpt>
      <trkpt lat="43.45755" lon="6.44751">
        <ele>130.6</ele>
        <time>2021-04-05T07:13:01Z</time>
      </trkpt>
      <trkpt lat="43.45755" lon="6.44758">
        <ele>129.6</ele>
        <time>2021-04-05T07:13:47Z</time>
      </trkpt>
      <trkpt lat="43.45751" lon="6.44763">
        <ele>129.6</ele>
        <time>2021-04-05T07:13:54Z</time>
      </trkpt>
      <trkpt lat="43.45749" lon="6.44769">
        <ele>129.6</ele>
        <time>2021-04-05T07:14:05Z</time>
      </trkpt>
      <trkpt lat="43.45747" lon="6.44775">
        <ele>129.5</ele>
        <time>2021-04-05T07:14:11Z</time>
      </trkpt>
      <trkpt lat="43.45746" lon="6.44782">
        <ele>129.5</ele>
        <time>2021-04-05T07:14:16Z</time>
      </trkpt>
      <trkpt lat="43.45747" lon="6.44788">
        <ele>129.3</ele>
        <time>2021-04-05T07:14:21Z</time>
      </trkpt>
      <trkpt lat="43.45747" lon="6.44795">
        <ele>129.1</ele>
        <time>2021-04-05T07:14:26Z</time>
      </trkpt>
      <trkpt lat="43.45745" lon="6.44801">
        <ele>128.9</ele>
        <time>2021-04-05T07:14:31Z</time>
      </trkpt>
      <trkpt lat="43.45744" lon="6.44808">
        <ele>128.8</ele>
        <time>2021-04-05T07:14:36Z</time>
      </trkpt>
      <trkpt lat="43.45744" lon="6.44814">
        <ele>128.6</ele>
        <time>2021-04-05T07:14:40Z</time>
      </trkpt>
      <trkpt lat="43.45747" lon="6.44818">
        <ele>128.2</ele>
        <time>2021-04-05T07:15:15Z</time>
      </trkpt>
      <trkpt lat="43.45748" lon="6.44825">
        <ele>127.9</ele>
        <time>2021-04-05T07:15:43Z</time>
      </trkpt>
      <trkpt lat="43.45747" lon="6.44833">
        <ele>127.9</ele>
        <time>2021-04-05T07:15:48Z</time>
      </trkpt>
      <trkpt lat="43.45746" lon="6.44839">
        <ele>127.9</ele>
        <time>2021-04-05T07:15:52Z</time>
      </trkpt>
      <trkpt lat="43.45746" lon="6.44846">
        <ele>127.8</ele>
        <time>2021-04-05T07:15:57Z</time>
      </trkpt>
      <trkpt lat="43.45746" lon="6.44853">
        <ele>127.8</ele>
        <time>2021-04-05T07:16:01Z</time>
      </trkpt>
      <trkpt lat="43.45747" lon="6.44861">
        <ele>127.8</ele>
        <time>2021-04-05T07:16:05Z</time>
      </trkpt>
      <trkpt lat="43.45749" lon="6.44867">
        <ele>127.8</ele>
        <time>2021-04-05T07:16:09Z</time>
      </trkpt>
      <trkpt lat="43.45753" lon="6.44871">
        <ele>127.8</ele>
        <time>2021-04-05T07:16:13Z</time>
      </trkpt>
      <trkpt lat="43.45758" lon="6.44872">
        <ele>127.9</ele>
        <time>2021-04-05T07:16:28Z</time>
      </trkpt>
      <trkpt lat="43.45763" lon="6.44876">
        <ele>128</ele>
        <time>2021-04-05T07:16:33Z</time>
      </trkpt>
      <trkpt lat="43.45767" lon="6.44879">
        <ele>128</ele>
        <time>2021-04-05T07:16:37Z</time>
      </trkpt>
      <trkpt lat="43.45773" lon="6.44881">
        <ele>128.2</ele>
        <time>2021-04-05T07:16:42Z</time>
      </trkpt>
      <trkpt lat="43.45777" lon="6.44885">
        <ele>128.5</ele>
        <time>2021-04-05T07:16:46Z</time>
      </trkpt>
      <trkpt lat="43.45781" lon="6.44889">
        <ele>128.9</ele>
        <time>2021-04-05T07:16:51Z</time>
      </trkpt>
      <trkpt lat="43.45785" lon="6.44894">
        <ele>129.2</ele>
        <time>2021-04-05T07:16:56Z</time>
      </trkpt>
      <trkpt lat="43.45788" lon="6.449">
        <ele>129.5</ele>
        <time>2021-04-05T07:17:01Z</time>
      </trkpt>
      <trkpt lat="43.4579" lon="6.44906">
        <ele>130</ele>
        <time>2021-04-05T07:17:05Z</time>
      </trkpt>
      <trkpt lat="43.45793" lon="6.44912">
        <ele>130.4</ele>
        <time>2021-04-05T07:17:10Z</time>
      </trkpt>
      <trkpt lat="43.45796" lon="6.44918">
        <ele>130.7</ele>
        <time>2021-04-05T07:17:15Z</time>
      </trkpt>
      <trkpt lat="43.45798" lon="6.44926">
        <ele>130.8</ele>
        <time>2021-04-05T07:17:19Z</time>
      </trkpt>
      <trkpt lat="43.458" lon="6.44933">
        <ele>131</ele>
        <time>2021-04-05T07:17:25Z</time>
      </trkpt>
      <trkpt lat="43.45802" lon="6.4494">
        <ele>131.1</ele>
        <time>2021-04-05T07:17:29Z</time>
      </trkpt>
      <trkpt lat="43.45802" lon="6.44946">
        <ele>131.2</ele>
        <time>2021-04-05T07:17:32Z</time>
      </trkpt>
      <trkpt lat="43.45803" lon="6.44953">
        <ele>131.3</ele>
        <time>2021-04-05T07:17:38Z</time>
      </trkpt>
      <trkpt lat="43.45802" lon="6.44961">
        <ele>131.4</ele>
        <time>2021-04-05T07:17:42Z</time>
      </trkpt>
      <trkpt lat="43.45801" lon="6.44968">
        <ele>131.4</ele>
        <time>2021-04-05T07:17:45Z</time>
      </trkpt>
      <trkpt lat="43.45802" lon="6.44975">
        <ele>131.4</ele>
        <time>2021-04-05T07:17:48Z</time>
      </trkpt>
      <trkpt lat="43.45803" lon="6.44983">
        <ele>131.5</ele>
        <time>2021-04-05T07:17:53Z</time>
      </trkpt>
      <trkpt lat="43.45802" lon="6.4499">
        <ele>131.5</ele>
        <time>2021-04-05T07:17:57Z</time>
      </trkpt>
      <trkpt lat="43.45802" lon="6.44997">
        <ele>131.5</ele>
        <time>2021-04-05T07:18:01Z</time>
      </trkpt>
      <trkpt lat="43.45801" lon="6.45004">
        <ele>131.5</ele>
        <time>2021-04-05T07:18:05Z</time>
      </trkpt>
      <trkpt lat="43.45801" lon="6.45012">
        <ele>131.5</ele>
        <time>2021-04-05T07:18:09Z</time>
      </trkpt>
      <trkpt lat="43.45801" lon="6.4502">
        <ele>131.4</ele>
        <time>2021-04-05T07:18:13Z</time>
      </trkpt>
      <trkpt lat="43.45802" lon="6.45027">
        <ele>131.2</ele>
        <time>2021-04-05T07:18:17Z</time>
      </trkpt>
      <trkpt lat="43.45802" lon="6.45035">
        <ele>131</ele>
        <time>2021-04-05T07:18:21Z</time>
      </trkpt>
      <trkpt lat="43.45802" lon="6.45042">
        <ele>130.8</ele>
        <time>2021-04-05T07:18:25Z</time>
      </trkpt>
      <trkpt lat="43.45803" lon="6.45049">
        <ele>130.6</ele>
        <time>2021-04-05T07:18:29Z</time>
      </trkpt>
      <trkpt lat="43.45801" lon="6.45055">
        <ele>130.3</ele>
        <time>2021-04-05T07:18:33Z</time>
      </trkpt>
      <trkpt lat="43.45803" lon="6.45062">
        <ele>129.6</ele>
        <time>2021-04-05T07:18:41Z</time>
      </trkpt>
      <trkpt lat="43.45804" lon="6.45069">
        <ele>129.4</ele>
        <time>2021-04-05T07:18:45Z</time>
      </trkpt>
      <trkpt lat="43.45805" lon="6.45075">
        <ele>129.1</ele>
        <time>2021-04-05T07:18:48Z</time>
      </trkpt>
      <trkpt lat="43.45805" lon="6.45083">
        <ele>128.6</ele>
        <time>2021-04-05T07:18:52Z</time>
      </trkpt>
      <trkpt lat="43.45806" lon="6.45089">
        <ele>128.1</ele>
        <time>2021-04-05T07:18:57Z</time>
      </trkpt>
      <trkpt lat="43.45806" lon="6.45097">
        <ele>127.9</ele>
        <time>2021-04-05T07:19:01Z</time>
      </trkpt>
      <trkpt lat="43.45805" lon="6.45104">
        <ele>127.8</ele>
        <time>2021-04-05T07:19:05Z</time>
      </trkpt>
      <trkpt lat="43.45804" lon="6.45111">
        <ele>127.9</ele>
        <time>2021-04-05T07:19:10Z</time>
      </trkpt>
      <trkpt lat="43.45804" lon="6.45118">
        <ele>128.1</ele>
        <time>2021-04-05T07:19:14Z</time>
      </trkpt>
      <trkpt lat="43.45801" lon="6.45123">
        <ele>128.2</ele>
        <time>2021-04-05T07:19:18Z</time>
      </trkpt>
      <trkpt lat="43.45801" lon="6.45131">
        <ele>128.5</ele>
        <time>2021-04-05T07:19:24Z</time>
      </trkpt>
      <trkpt lat="43.45801" lon="6.45138">
        <ele>128.7</ele>
        <time>2021-04-05T07:19:27Z</time>
      </trkpt>
      <trkpt lat="43.458" lon="6.45145">
        <ele>128.8</ele>
        <time>2021-04-05T07:19:30Z</time>
      </trkpt>
      <trkpt lat="43.45799" lon="6.45151">
        <ele>128.9</ele>
        <time>2021-04-05T07:19:33Z</time>
      </trkpt>
      <trkpt lat="43.458" lon="6.45157">
        <ele>129</ele>
        <time>2021-04-05T07:19:39Z</time>
      </trkpt>
      <trkpt lat="43.45801" lon="6.45166">
        <ele>129.1</ele>
        <time>2021-04-05T07:19:43Z</time>
      </trkpt>
      <trkpt lat="43.45803" lon="6.45172">
        <ele>129.2</ele>
        <time>2021-04-05T07:19:45Z</time>
      </trkpt>
      <trkpt lat="43.45804" lon="6.45179">
        <ele>129.3</ele>
        <time>2021-04-05T07:19:49Z</time>
      </trkpt>
      <trkpt lat="43.45802" lon="6.45185">
        <ele>129.3</ele>
        <time>2021-04-05T07:19:53Z</time>
      </trkpt>
      <trkpt lat="43.458" lon="6.45192">
        <ele>129.6</ele>
        <time>2021-04-05T07:19:58Z</time>
      </trkpt>
      <trkpt lat="43.45799" lon="6.45199">
        <ele>129.9</ele>
        <time>2021-04-05T07:20:03Z</time>
      </trkpt>
      <trkpt lat="43.45799" lon="6.45206">
        <ele>130.2</ele>
        <time>2021-04-05T07:20:08Z</time>
      </trkpt>
      <trkpt lat="43.45798" lon="6.45213">
        <ele>130.6</ele>
        <time>2021-04-05T07:20:13Z</time>
      </trkpt>
      <trkpt lat="43.45797" lon="6.45219">
        <ele>131</ele>
        <time>2021-04-05T07:20:18Z</time>
      </trkpt>
      <trkpt lat="43.45796" lon="6.45226">
        <ele>131.5</ele>
        <time>2021-04-05T07:20:23Z</time>
      </trkpt>
      <trkpt lat="43.45795" lon="6.45233">
        <ele>132</ele>
        <time>2021-04-05T07:20:29Z</time>
      </trkpt>
      <trkpt lat="43.45797" lon="6.45239">
        <ele>132.6</ele>
        <time>2021-04-05T07:20:39Z</time>
      </trkpt>
      <trkpt lat="43.45796" lon="6.45245">
        <ele>133</ele>
        <time>2021-04-05T07:20:43Z</time>
      </trkpt>
      <trkpt lat="43.45795" lon="6.45252">
        <ele>133.5</ele>
        <time>2021-04-05T07:20:48Z</time>
      </trkpt>
      <trkpt lat="43.45794" lon="6.45259">
        <ele>133.8</ele>
        <time>2021-04-05T07:20:52Z</time>
      </trkpt>
      <trkpt lat="43.45793" lon="6.45266">
        <ele>134</ele>
        <time>2021-04-05T07:20:57Z</time>
      </trkpt>
      <trkpt lat="43.45791" lon="6.45271">
        <ele>134.5</ele>
        <time>2021-04-05T07:21:15Z</time>
      </trkpt>
      <trkpt lat="43.45791" lon="6.45278">
        <ele>134.6</ele>
        <time>2021-04-05T07:21:24Z</time>
      </trkpt>
      <trkpt lat="43.4579" lon="6.45285">
        <ele>134.7</ele>
        <time>2021-04-05T07:21:29Z</time>
      </trkpt>
      <trkpt lat="43.45792" lon="6.45291">
        <ele>134.7</ele>
        <time>2021-04-05T07:21:42Z</time>
      </trkpt>
      <trkpt lat="43.45791" lon="6.45298">
        <ele>134.7</ele>
        <time>2021-04-05T07:21:47Z</time>
      </trkpt>
      <trkpt lat="43.4579" lon="6.45305">
        <ele>134.6</ele>
        <time>2021-04-05T07:21:51Z</time>
      </trkpt>
      <trkpt lat="43.45788" lon="6.45311">
        <ele>134.6</ele>
        <time>2021-04-05T07:21:55Z</time>
      </trkpt>
      <trkpt lat="43.45787" lon="6.45318">
        <ele>134.5</ele>
        <time>2021-04-05T07:22:00Z</time>
      </trkpt>
      <trkpt lat="43.45785" lon="6.45325">
        <ele>134.5</ele>
        <time>2021-04-05T07:22:04Z</time>
      </trkpt>
      <trkpt lat="43.45785" lon="6.45332">
        <ele>134.5</ele>
        <time>2021-04-05T07:22:10Z</time>
      </trkpt>
      <trkpt lat="43.45785" lon="6.45338">
        <ele>134.5</ele>
        <time>2021-04-05T07:22:15Z</time>
      </trkpt>
      <trkpt lat="43.45785" lon="6.45345">
        <ele>134.5</ele>
        <time>2021-04-05T07:22:20Z</time>
      </trkpt>
      <trkpt lat="43.45785" lon="6.45352">
        <ele>134.6</ele>
        <time>2021-04-05T07:22:25Z</time>
      </trkpt>
      <trkpt lat="43.45785" lon="6.45358">
        <ele>134.6</ele>
        <time>2021-04-05T07:22:29Z</time>
      </trkpt>
      <trkpt lat="43.45785" lon="6.45365">
        <ele>134.8</ele>
        <time>2021-04-05T07:22:33Z</time>
      </trkpt>
      <trkpt lat="43.45784" lon="6.45372">
        <ele>135</ele>
        <time>2021-04-05T07:22:38Z</time>
      </trkpt>
      <trkpt lat="43.45785" lon="6.45379">
        <ele>135.1</ele>
        <time>2021-04-05T07:22:43Z</time>
      </trkpt>
      <trkpt lat="43.45786" lon="6.45386">
        <ele>135.2</ele>
        <time>2021-04-05T07:22:48Z</time>
      </trkpt>
      <trkpt lat="43.45786" lon="6.45393">
        <ele>135.2</ele>
        <time>2021-04-05T07:22:53Z</time>
      </trkpt>
      <trkpt lat="43.45784" lon="6.45399">
        <ele>135.3</ele>
        <time>2021-04-05T07:23:05Z</time>
      </trkpt>
      <trkpt lat="43.45782" lon="6.45405">
        <ele>135.4</ele>
        <time>2021-04-05T07:23:12Z</time>
      </trkpt>
      <trkpt lat="43.45781" lon="6.45412">
        <ele>135.4</ele>
        <time>2021-04-05T07:23:20Z</time>
      </trkpt>
      <trkpt lat="43.45779" lon="6.45419">
        <ele>135.6</ele>
        <time>2021-04-05T07:23:28Z</time>
      </trkpt>
      <trkpt lat="43.45779" lon="6.45426">
        <ele>135.7</ele>
        <time>2021-04-05T07:23:34Z</time>
      </trkpt>
      <trkpt lat="43.4578" lon="6.45433">
        <ele>135.8</ele>
        <time>2021-04-05T07:23:39Z</time>
      </trkpt>
      <trkpt lat="43.4578" lon="6.45441">
        <ele>135.9</ele>
        <time>2021-04-05T07:23:44Z</time>
      </trkpt>
      <trkpt lat="43.45782" lon="6.45448">
        <ele>135.9</ele>
        <time>2021-04-05T07:23:49Z</time>
      </trkpt>
      <trkpt lat="43.45781" lon="6.45455">
        <ele>136</ele>
        <time>2021-04-05T07:23:55Z</time>
      </trkpt>
      <trkpt lat="43.45783" lon="6.45462">
        <ele>136.1</ele>
        <time>2021-04-05T07:24:00Z</time>
      </trkpt>
      <trkpt lat="43.45784" lon="6.45469">
        <ele>136.2</ele>
        <time>2021-04-05T07:24:05Z</time>
      </trkpt>
      <trkpt lat="43.45784" lon="6.45475">
        <ele>136.3</ele>
        <time>2021-04-05T07:24:10Z</time>
      </trkpt>
      <trkpt lat="43.45784" lon="6.45482">
        <ele>136.4</ele>
        <time>2021-04-05T07:24:15Z</time>
      </trkpt>
      <trkpt lat="43.45786" lon="6.45489">
        <ele>136.5</ele>
        <time>2021-04-05T07:24:20Z</time>
      </trkpt>
      <trkpt lat="43.45785" lon="6.45496">
        <ele>136.5</ele>
        <time>2021-04-05T07:24:26Z</time>
      </trkpt>
      <trkpt lat="43.45784" lon="6.45504">
        <ele>136.6</ele>
        <time>2021-04-05T07:24:32Z</time>
      </trkpt>
      <trkpt lat="43.45782" lon="6.45511">
        <ele>136.6</ele>
        <time>2021-04-05T07:24:38Z</time>
      </trkpt>
      <trkpt lat="43.45781" lon="6.45517">
        <ele>136.7</ele>
        <time>2021-04-05T07:24:43Z</time>
      </trkpt>
      <trkpt lat="43.45779" lon="6.45523">
        <ele>136.7</ele>
        <time>2021-04-05T07:24:48Z</time>
      </trkpt>
      <trkpt lat="43.45777" lon="6.45529">
        <ele>136.8</ele>
        <time>2021-04-05T07:24:52Z</time>
      </trkpt>
      <trkpt lat="43.45774" lon="6.45535">
        <ele>136.8</ele>
        <time>2021-04-05T07:24:56Z</time>
      </trkpt>
      <trkpt lat="43.45773" lon="6.45541">
        <ele>136.9</ele>
        <time>2021-04-05T07:25:01Z</time>
      </trkpt>
      <trkpt lat="43.45772" lon="6.45548">
        <ele>136.9</ele>
        <time>2021-04-05T07:25:05Z</time>
      </trkpt>
      <trkpt lat="43.4577" lon="6.45554">
        <ele>136.9</ele>
        <time>2021-04-05T07:25:10Z</time>
      </trkpt>
      <trkpt lat="43.4577" lon="6.45561">
        <ele>137</ele>
        <time>2021-04-05T07:25:14Z</time>
      </trkpt>
      <trkpt lat="43.45771" lon="6.45567">
        <ele>137</ele>
        <time>2021-04-05T07:25:18Z</time>
      </trkpt>
      <trkpt lat="43.45771" lon="6.45575">
        <ele>137</ele>
        <time>2021-04-05T07:25:23Z</time>
      </trkpt>
      <trkpt lat="43.45772" lon="6.45581">
        <ele>137</ele>
        <time>2021-04-05T07:25:28Z</time>
      </trkpt>
      <trkpt lat="43.45774" lon="6.45587">
        <ele>137</ele>
        <time>2021-04-05T07:25:32Z</time>
      </trkpt>
      <trkpt lat="43.45773" lon="6.45594">
        <ele>137</ele>
        <time>2021-04-05T07:25:37Z</time>
      </trkpt>
      <trkpt lat="43.4577" lon="6.45602">
        <ele>137</ele>
        <time>2021-04-05T07:25:42Z</time>
      </trkpt>
      <trkpt lat="43.45767" lon="6.45607">
        <ele>137</ele>
        <time>2021-04-05T07:25:46Z</time>
      </trkpt>
      <trkpt lat="43.45764" lon="6.45612">
        <ele>137.2</ele>
        <time>2021-04-05T07:25:52Z</time>
      </trkpt>
      <trkpt lat="43.45762" lon="6.45618">
        <ele>137.2</ele>
        <time>2021-04-05T07:25:56Z</time>
      </trkpt>
      <trkpt lat="43.45761" lon="6.45624">
        <ele>137.2</ele>
        <time>2021-04-05T07:26:00Z</time>
      </trkpt>
      <trkpt lat="43.45761" lon="6.45632">
        <ele>137.3</ele>
        <time>2021-04-05T07:26:04Z</time>
      </trkpt>
      <trkpt lat="43.45761" lon="6.45638">
        <ele>137.3</ele>
        <time>2021-04-05T07:26:09Z</time>
      </trkpt>
      <trkpt lat="43.45758" lon="6.45644">
        <ele>137.4</ele>
        <time>2021-04-05T07:26:14Z</time>
      </trkpt>
      <trkpt lat="43.45759" lon="6.45652">
        <ele>137.4</ele>
        <time>2021-04-05T07:26:19Z</time>
      </trkpt>
      <trkpt lat="43.45761" lon="6.45659">
        <ele>137.6</ele>
        <time>2021-04-05T07:26:23Z</time>
      </trkpt>
      <trkpt lat="43.45763" lon="6.45665">
        <ele>137.9</ele>
        <time>2021-04-05T07:26:30Z</time>
      </trkpt>
      <trkpt lat="43.45764" lon="6.45672">
        <ele>138.1</ele>
        <time>2021-04-05T07:26:36Z</time>
      </trkpt>
      <trkpt lat="43.45765" lon="6.45679">
        <ele>138.3</ele>
        <time>2021-04-05T07:26:41Z</time>
      </trkpt>
      <trkpt lat="43.45766" lon="6.45685">
        <ele>138.4</ele>
        <time>2021-04-05T07:26:45Z</time>
      </trkpt>
      <trkpt lat="43.45767" lon="6.45691">
        <ele>138.4</ele>
        <time>2021-04-05T07:26:49Z</time>
      </trkpt>
      <trkpt lat="43.45767" lon="6.45698">
        <ele>138.5</ele>
        <time>2021-04-05T07:26:54Z</time>
      </trkpt>
      <trkpt lat="43.45768" lon="6.45705">
        <ele>138.5</ele>
        <time>2021-04-05T07:26:59Z</time>
      </trkpt>
      <trkpt lat="43.45769" lon="6.45712">
        <ele>138.5</ele>
        <time>2021-04-05T07:27:04Z</time>
      </trkpt>
      <trkpt lat="43.4577" lon="6.45719">
        <ele>138.6</ele>
        <time>2021-04-05T07:27:09Z</time>
      </trkpt>
      <trkpt lat="43.4577" lon="6.45727">
        <ele>138.6</ele>
        <time>2021-04-05T07:27:14Z</time>
      </trkpt>
      <trkpt lat="43.45769" lon="6.45734">
        <ele>138.6</ele>
        <time>2021-04-05T07:27:19Z</time>
      </trkpt>
      <trkpt lat="43.45767" lon="6.45741">
        <ele>138.6</ele>
        <time>2021-04-05T07:27:24Z</time>
      </trkpt>
      <trkpt lat="43.45768" lon="6.45747">
        <ele>138.6</ele>
        <time>2021-04-05T07:27:28Z</time>
      </trkpt>
      <trkpt lat="43.45768" lon="6.45753">
        <ele>138.5</ele>
        <time>2021-04-05T07:27:33Z</time>
      </trkpt>
      <trkpt lat="43.45769" lon="6.4576">
        <ele>138.4</ele>
        <time>2021-04-05T07:27:38Z</time>
      </trkpt>
      <trkpt lat="43.4577" lon="6.45766">
        <ele>138.3</ele>
        <time>2021-04-05T07:27:42Z</time>
      </trkpt>
      <trkpt lat="43.45769" lon="6.45773">
        <ele>138.3</ele>
        <time>2021-04-05T07:27:46Z</time>
      </trkpt>
      <trkpt lat="43.45768" lon="6.45779">
        <ele>138.3</ele>
        <time>2021-04-05T07:27:51Z</time>
      </trkpt>
      <trkpt lat="43.4577" lon="6.45786">
        <ele>138.3</ele>
        <time>2021-04-05T07:27:56Z</time>
      </trkpt>
      <trkpt lat="43.45769" lon="6.45793">
        <ele>138.3</ele>
        <time>2021-04-05T07:28:01Z</time>
      </trkpt>
      <trkpt lat="43.4577" lon="6.45799">
        <ele>138.3</ele>
        <time>2021-04-05T07:28:05Z</time>
      </trkpt>
      <trkpt lat="43.45772" lon="6.45805">
        <ele>138.3</ele>
        <time>2021-04-05T07:28:09Z</time>
      </trkpt>
      <trkpt lat="43.45771" lon="6.45813">
        <ele>138.2</ele>
        <time>2021-04-05T07:28:14Z</time>
      </trkpt>
      <trkpt lat="43.45768" lon="6.45819">
        <ele>138.2</ele>
        <time>2021-04-05T07:28:19Z</time>
      </trkpt>
      <trkpt lat="43.45765" lon="6.45825">
        <ele>138.1</ele>
        <time>2021-04-05T07:28:24Z</time>
      </trkpt>
      <trkpt lat="43.45766" lon="6.45832">
        <ele>138</ele>
        <time>2021-04-05T07:28:28Z</time>
      </trkpt>
      <trkpt lat="43.45767" lon="6.45839">
        <ele>137.9</ele>
        <time>2021-04-05T07:28:32Z</time>
      </trkpt>
      <trkpt lat="43.45769" lon="6.45847">
        <ele>137.9</ele>
        <time>2021-04-05T07:28:36Z</time>
      </trkpt>
      <trkpt lat="43.45772" lon="6.45854">
        <ele>137.8</ele>
        <time>2021-04-05T07:28:40Z</time>
      </trkpt>
      <trkpt lat="43.45775" lon="6.4586">
        <ele>137.8</ele>
        <time>2021-04-05T07:28:44Z</time>
      </trkpt>
      <trkpt lat="43.45777" lon="6.45867">
        <ele>137.8</ele>
        <time>2021-04-05T07:28:48Z</time>
      </trkpt>
      <trkpt lat="43.45776" lon="6.45873">
        <ele>138.1</ele>
        <time>2021-04-05T07:28:54Z</time>
      </trkpt>
      <trkpt lat="43.45778" lon="6.45879">
        <ele>138.2</ele>
        <time>2021-04-05T07:28:58Z</time>
      </trkpt>
      <trkpt lat="43.45778" lon="6.45886">
        <ele>138.3</ele>
        <time>2021-04-05T07:29:02Z</time>
      </trkpt>
      <trkpt lat="43.45776" lon="6.45892">
        <ele>138.5</ele>
        <time>2021-04-05T07:29:07Z</time>
      </trkpt>
      <trkpt lat="43.45774" lon="6.45898">
        <ele>138.7</ele>
        <time>2021-04-05T07:29:12Z</time>
      </trkpt>
      <trkpt lat="43.45773" lon="6.45904">
        <ele>138.9</ele>
        <time>2021-04-05T07:29:17Z</time>
      </trkpt>
      <trkpt lat="43.45772" lon="6.45911">
        <ele>139.1</ele>
        <time>2021-04-05T07:29:21Z</time>
      </trkpt>
      <trkpt lat="43.4577" lon="6.45918">
        <ele>139.4</ele>
        <time>2021-04-05T07:29:26Z</time>
      </trkpt>
      <trkpt lat="43.45769" lon="6.45924">
        <ele>139.7</ele>
        <time>2021-04-05T07:29:31Z</time>
      </trkpt>
      <trkpt lat="43.4577" lon="6.45932">
        <ele>139.8</ele>
        <time>2021-04-05T07:29:36Z</time>
      </trkpt>
      <trkpt lat="43.45771" lon="6.45938">
        <ele>139.9</ele>
        <time>2021-04-05T07:29:39Z</time>
      </trkpt>
      <trkpt lat="43.45772" lon="6.45945">
        <ele>140</ele>
        <time>2021-04-05T07:29:43Z</time>
      </trkpt>
      <trkpt lat="43.45773" lon="6.45952">
        <ele>140</ele>
        <time>2021-04-05T07:29:48Z</time>
      </trkpt>
      <trkpt lat="43.45774" lon="6.45959">
        <ele>140</ele>
        <time>2021-04-05T07:29:52Z</time>
      </trkpt>
      <trkpt lat="43.45775" lon="6.45967">
        <ele>140</ele>
        <time>2021-04-05T07:29:57Z</time>
      </trkpt>
      <trkpt lat="43.45779" lon="6.45973">
        <ele>140</ele>
        <time>2021-04-05T07:30:01Z</time>
      </trkpt>
      <trkpt lat="43.45781" lon="6.45979">
        <ele>140</ele>
        <time>2021-04-05T07:30:05Z</time>
      </trkpt>
      <trkpt lat="43.45783" lon="6.45986">
        <ele>139.9</ele>
        <time>2021-04-05T07:30:10Z</time>
      </trkpt>
      <trkpt lat="43.45785" lon="6.45992">
        <ele>139.9</ele>
        <time>2021-04-05T07:30:14Z</time>
      </trkpt>
      <trkpt lat="43.45789" lon="6.45997">
        <ele>139.9</ele>
        <time>2021-04-05T07:30:19Z</time>
      </trkpt>
      <trkpt lat="43.45793" lon="6.46002">
        <ele>139.9</ele>
        <time>2021-04-05T07:30:24Z</time>
      </trkpt>
      <trkpt lat="43.45795" lon="6.46008">
        <ele>139.8</ele>
        <time>2021-04-05T07:30:29Z</time>
      </trkpt>
      <trkpt lat="43.45797" lon="6.46015">
        <ele>139.7</ele>
        <time>2021-04-05T07:30:33Z</time>
      </trkpt>
      <trkpt lat="43.45795" lon="6.46022">
        <ele>139.6</ele>
        <time>2021-04-05T07:30:38Z</time>
      </trkpt>
      <trkpt lat="43.45796" lon="6.46029">
        <ele>139.6</ele>
        <time>2021-04-05T07:30:43Z</time>
      </trkpt>
      <trkpt lat="43.45797" lon="6.46036">
        <ele>139.6</ele>
        <time>2021-04-05T07:30:48Z</time>
      </trkpt>
      <trkpt lat="43.45798" lon="6.46043">
        <ele>139.5</ele>
        <time>2021-04-05T07:30:52Z</time>
      </trkpt>
      <trkpt lat="43.45802" lon="6.46046">
        <ele>139.5</ele>
        <time>2021-04-05T07:30:57Z</time>
      </trkpt>
      <trkpt lat="43.45806" lon="6.46051">
        <ele>139.6</ele>
        <time>2021-04-05T07:31:09Z</time>
      </trkpt>
      <trkpt lat="43.45807" lon="6.46058">
        <ele>139.7</ele>
        <time>2021-04-05T07:31:14Z</time>
      </trkpt>
      <trkpt lat="43.45808" lon="6.46064">
        <ele>139.8</ele>
        <time>2021-04-05T07:31:18Z</time>
      </trkpt>
      <trkpt lat="43.45809" lon="6.4607">
        <ele>139.9</ele>
        <time>2021-04-05T07:31:22Z</time>
      </trkpt>
      <trkpt lat="43.45808" lon="6.46077">
        <ele>139.9</ele>
        <time>2021-04-05T07:31:27Z</time>
      </trkpt>
      <trkpt lat="43.45808" lon="6.46085">
        <ele>139.9</ele>
        <time>2021-04-05T07:31:31Z</time>
      </trkpt>
      <trkpt lat="43.45808" lon="6.46092">
        <ele>140</ele>
        <time>2021-04-05T07:31:35Z</time>
      </trkpt>
      <trkpt lat="43.45809" lon="6.461">
        <ele>140.2</ele>
        <time>2021-04-05T07:31:40Z</time>
      </trkpt>
      <trkpt lat="43.45809" lon="6.46106">
        <ele>140.4</ele>
        <time>2021-04-05T07:31:44Z</time>
      </trkpt>
      <trkpt lat="43.4581" lon="6.46114">
        <ele>140.5</ele>
        <time>2021-04-05T07:31:49Z</time>
      </trkpt>
      <trkpt lat="43.45812" lon="6.46122">
        <ele>140.6</ele>
        <time>2021-04-05T07:31:53Z</time>
      </trkpt>
      <trkpt lat="43.45814" lon="6.46129">
        <ele>140.7</ele>
        <time>2021-04-05T07:31:57Z</time>
      </trkpt>
      <trkpt lat="43.45815" lon="6.46136">
        <ele>140.7</ele>
        <time>2021-04-05T07:32:01Z</time>
      </trkpt>
      <trkpt lat="43.45816" lon="6.46142">
        <ele>140.8</ele>
        <time>2021-04-05T07:32:04Z</time>
      </trkpt>
      <trkpt lat="43.45817" lon="6.4615">
        <ele>140.7</ele>
        <time>2021-04-05T07:32:08Z</time>
      </trkpt>
      <trkpt lat="43.45818" lon="6.46158">
        <ele>140.6</ele>
        <time>2021-04-05T07:32:15Z</time>
      </trkpt>
      <trkpt lat="43.4582" lon="6.46164">
        <ele>140.5</ele>
        <time>2021-04-05T07:32:18Z</time>
      </trkpt>
      <trkpt lat="43.45821" lon="6.46172">
        <ele>140.4</ele>
        <time>2021-04-05T07:32:23Z</time>
      </trkpt>
      <trkpt lat="43.45823" lon="6.46178">
        <ele>140.4</ele>
        <time>2021-04-05T07:32:27Z</time>
      </trkpt>
      <trkpt lat="43.45824" lon="6.46185">
        <ele>140.3</ele>
        <time>2021-04-05T07:32:30Z</time>
      </trkpt>
      <trkpt lat="43.45825" lon="6.46192">
        <ele>140.2</ele>
        <time>2021-04-05T07:32:34Z</time>
      </trkpt>
      <trkpt lat="43.45825" lon="6.46198">
        <ele>140.1</ele>
        <time>2021-04-05T07:32:37Z</time>
      </trkpt>
      <trkpt lat="43.45827" lon="6.46205">
        <ele>139.7</ele>
        <time>2021-04-05T07:32:42Z</time>
      </trkpt>
      <trkpt lat="43.45829" lon="6.46212">
        <ele>139.5</ele>
        <time>2021-04-05T07:32:46Z</time>
      </trkpt>
      <trkpt lat="43.45829" lon="6.46219">
        <ele>139.1</ele>
        <time>2021-04-05T07:32:52Z</time>
      </trkpt>
      <trkpt lat="43.45831" lon="6.46226">
        <ele>138.7</ele>
        <time>2021-04-05T07:32:57Z</time>
      </trkpt>
      <trkpt lat="43.45832" lon="6.46232">
        <ele>138.3</ele>
        <time>2021-04-05T07:33:02Z</time>
      </trkpt>
      <trkpt lat="43.45833" lon="6.46239">
        <ele>138</ele>
        <time>2021-04-05T07:33:06Z</time>
      </trkpt>
      <trkpt lat="43.45833" lon="6.46246">
        <ele>137.6</ele>
        <time>2021-04-05T07:33:11Z</time>
      </trkpt>
      <trkpt lat="43.45832" lon="6.46253">
        <ele>137</ele>
        <time>2021-04-05T07:33:16Z</time>
      </trkpt>
      <trkpt lat="43.4583" lon="6.46259">
        <ele>136.5</ele>
        <time>2021-04-05T07:33:21Z</time>
      </trkpt>
      <trkpt lat="43.45831" lon="6.46266">
        <ele>136.1</ele>
        <time>2021-04-05T07:33:26Z</time>
      </trkpt>
      <trkpt lat="43.45831" lon="6.46273">
        <ele>135.7</ele>
        <time>2021-04-05T07:33:31Z</time>
      </trkpt>
      <trkpt lat="43.45831" lon="6.4628">
        <ele>135.3</ele>
        <time>2021-04-05T07:33:36Z</time>
      </trkpt>
      <trkpt lat="43.45832" lon="6.46287">
        <ele>135</ele>
        <time>2021-04-05T07:33:40Z</time>
      </trkpt>
      <trkpt lat="43.45833" lon="6.46293">
        <ele>134.7</ele>
        <time>2021-04-05T07:33:44Z</time>
      </trkpt>
      <trkpt lat="43.45834" lon="6.463">
        <ele>134.5</ele>
        <time>2021-04-05T07:33:48Z</time>
      </trkpt>
      <trkpt lat="43.45834" lon="6.46307">
        <ele>134.2</ele>
        <time>2021-04-05T07:33:53Z</time>
      </trkpt>
      <trkpt lat="43.45834" lon="6.46314">
        <ele>134.1</ele>
        <time>2021-04-05T07:33:57Z</time>
      </trkpt>
      <trkpt lat="43.45833" lon="6.46321">
        <ele>133.9</ele>
        <time>2021-04-05T07:34:02Z</time>
      </trkpt>
      <trkpt lat="43.45831" lon="6.46327">
        <ele>133.7</ele>
        <time>2021-04-05T07:34:07Z</time>
      </trkpt>
      <trkpt lat="43.45829" lon="6.46333">
        <ele>133.6</ele>
        <time>2021-04-05T07:34:12Z</time>
      </trkpt>
      <trkpt lat="43.45828" lon="6.4634">
        <ele>133.5</ele>
        <time>2021-04-05T07:34:17Z</time>
      </trkpt>
      <trkpt lat="43.45826" lon="6.46346">
        <ele>133.7</ele>
        <time>2021-04-05T07:34:22Z</time>
      </trkpt>
      <trkpt lat="43.45825" lon="6.46353">
        <ele>133.9</ele>
        <time>2021-04-05T07:34:27Z</time>
      </trkpt>
      <trkpt lat="43.45822" lon="6.46359">
        <ele>134.3</ele>
        <time>2021-04-05T07:34:32Z</time>
      </trkpt>
      <trkpt lat="43.4582" lon="6.46365">
        <ele>134.7</ele>
        <time>2021-04-05T07:34:37Z</time>
      </trkpt>
      <trkpt lat="43.45821" lon="6.46372">
        <ele>134.9</ele>
        <time>2021-04-05T07:34:42Z</time>
      </trkpt>
      <trkpt lat="43.45821" lon="6.46379">
        <ele>135.3</ele>
        <time>2021-04-05T07:34:56Z</time>
      </trkpt>
      <trkpt lat="43.45821" lon="6.46385">
        <ele>135.3</ele>
        <time>2021-04-05T07:35:00Z</time>
      </trkpt>
      <trkpt lat="43.45821" lon="6.46392">
        <ele>135.3</ele>
        <time>2021-04-05T07:35:04Z</time>
      </trkpt>
      <trkpt lat="43.45822" lon="6.46398">
        <ele>135.4</ele>
        <time>2021-04-05T07:35:08Z</time>
      </trkpt>
      <trkpt lat="43.45821" lon="6.46405">
        <ele>135.4</ele>
        <time>2021-04-05T07:35:13Z</time>
      </trkpt>
      <trkpt lat="43.4582" lon="6.46412">
        <ele>135.2</ele>
        <time>2021-04-05T07:35:17Z</time>
      </trkpt>
      <trkpt lat="43.4582" lon="6.46419">
        <ele>135</ele>
        <time>2021-04-05T07:35:22Z</time>
      </trkpt>
      <trkpt lat="43.45821" lon="6.46426">
        <ele>134.9</ele>
        <time>2021-04-05T07:35:26Z</time>
      </trkpt>
      <trkpt lat="43.45817" lon="6.46433">
        <ele>134.7</ele>
        <time>2021-04-05T07:35:30Z</time>
      </trkpt>
      <trkpt lat="43.45816" lon="6.46439">
        <ele>134.6</ele>
        <time>2021-04-05T07:35:34Z</time>
      </trkpt>
      <trkpt lat="43.45819" lon="6.46446">
        <ele>134.5</ele>
        <time>2021-04-05T07:35:38Z</time>
      </trkpt>
      <trkpt lat="43.4582" lon="6.46453">
        <ele>134.3</ele>
        <time>2021-04-05T07:35:42Z</time>
      </trkpt>
      <trkpt lat="43.45824" lon="6.46458">
        <ele>134.2</ele>
        <time>2021-04-05T07:35:46Z</time>
      </trkpt>
      <trkpt lat="43.45827" lon="6.46463">
        <ele>134.1</ele>
        <time>2021-04-05T07:35:49Z</time>
      </trkpt>
      <trkpt lat="43.45829" lon="6.4647">
        <ele>134</ele>
        <time>2021-04-05T07:35:52Z</time>
      </trkpt>
      <trkpt lat="43.45832" lon="6.46475">
        <ele>133.9</ele>
        <time>2021-04-05T07:35:55Z</time>
      </trkpt>
      <trkpt lat="43.45836" lon="6.46482">
        <ele>133.8</ele>
        <time>2021-04-05T07:35:58Z</time>
      </trkpt>
      <trkpt lat="43.45839" lon="6.46487">
        <ele>133.6</ele>
        <time>2021-04-05T07:36:03Z</time>
      </trkpt>
      <trkpt lat="43.45841" lon="6.46493">
        <ele>133.5</ele>
        <time>2021-04-05T07:36:07Z</time>
      </trkpt>
      <trkpt lat="43.45844" lon="6.46499">
        <ele>133.4</ele>
        <time>2021-04-05T07:36:10Z</time>
      </trkpt>
      <trkpt lat="43.45847" lon="6.46504">
        <ele>133.2</ele>
        <time>2021-04-05T07:36:15Z</time>
      </trkpt>
      <trkpt lat="43.45848" lon="6.46511">
        <ele>133</ele>
        <time>2021-04-05T07:36:20Z</time>
      </trkpt>
      <trkpt lat="43.4585" lon="6.46516">
        <ele>132.9</ele>
        <time>2021-04-05T07:36:25Z</time>
      </trkpt>
      <trkpt lat="43.45851" lon="6.46522">
        <ele>132.9</ele>
        <time>2021-04-05T07:36:29Z</time>
      </trkpt>
      <trkpt lat="43.45854" lon="6.46529">
        <ele>132.8</ele>
        <time>2021-04-05T07:36:34Z</time>
      </trkpt>
      <trkpt lat="43.45856" lon="6.46535">
        <ele>132.7</ele>
        <time>2021-04-05T07:36:38Z</time>
      </trkpt>
      <trkpt lat="43.45859" lon="6.4654">
        <ele>132.7</ele>
        <time>2021-04-05T07:36:41Z</time>
      </trkpt>
      <trkpt lat="43.45862" lon="6.46546">
        <ele>132.7</ele>
        <time>2021-04-05T07:36:45Z</time>
      </trkpt>
      <trkpt lat="43.45864" lon="6.46553">
        <ele>132.7</ele>
        <time>2021-04-05T07:36:50Z</time>
      </trkpt>
      <trkpt lat="43.45866" lon="6.4656">
        <ele>132.7</ele>
        <time>2021-04-05T07:36:54Z</time>
      </trkpt>
      <trkpt lat="43.45869" lon="6.46564">
        <ele>132.8</ele>
        <time>2021-04-05T07:36:58Z</time>
      </trkpt>
      <trkpt lat="43.45871" lon="6.46571">
        <ele>132.8</ele>
        <time>2021-04-05T07:37:02Z</time>
      </trkpt>
      <trkpt lat="43.45875" lon="6.46576">
        <ele>132.9</ele>
        <time>2021-04-05T07:37:06Z</time>
      </trkpt>
      <trkpt lat="43.45877" lon="6.46582">
        <ele>132.9</ele>
        <time>2021-04-05T07:37:12Z</time>
      </trkpt>
      <trkpt lat="43.45878" lon="6.46588">
        <ele>132.9</ele>
        <time>2021-04-05T07:37:16Z</time>
      </trkpt>
      <trkpt lat="43.45881" lon="6.46594">
        <ele>133</ele>
        <time>2021-04-05T07:37:21Z</time>
      </trkpt>
      <trkpt lat="43.45883" lon="6.466">
        <ele>133</ele>
        <time>2021-04-05T07:37:26Z</time>
      </trkpt>
      <trkpt lat="43.45884" lon="6.46607">
        <ele>133</ele>
        <time>2021-04-05T07:37:31Z</time>
      </trkpt>
      <trkpt lat="43.45883" lon="6.46614">
        <ele>133.1</ele>
        <time>2021-04-05T07:37:36Z</time>
      </trkpt>
      <trkpt lat="43.45883" lon="6.46622">
        <ele>133.2</ele>
        <time>2021-04-05T07:37:41Z</time>
      </trkpt>
      <trkpt lat="43.45884" lon="6.46628">
        <ele>133.2</ele>
        <time>2021-04-05T07:37:45Z</time>
      </trkpt>
      <trkpt lat="43.45885" lon="6.46634">
        <ele>133.3</ele>
        <time>2021-04-05T07:37:49Z</time>
      </trkpt>
      <trkpt lat="43.45885" lon="6.4664">
        <ele>133.3</ele>
        <time>2021-04-05T07:37:53Z</time>
      </trkpt>
      <trkpt lat="43.45886" lon="6.46647">
        <ele>133.4</ele>
        <time>2021-04-05T07:37:57Z</time>
      </trkpt>
      <trkpt lat="43.4589" lon="6.46652">
        <ele>133.4</ele>
        <time>2021-04-05T07:38:01Z</time>
      </trkpt>
      <trkpt lat="43.45893" lon="6.46658">
        <ele>133.5</ele>
        <time>2021-04-05T07:38:05Z</time>
      </trkpt>
      <trkpt lat="43.45896" lon="6.46663">
        <ele>133.6</ele>
        <time>2021-04-05T07:38:09Z</time>
      </trkpt>
      <trkpt lat="43.45898" lon="6.46669">
        <ele>133.8</ele>
        <time>2021-04-05T07:38:13Z</time>
      </trkpt>
      <trkpt lat="43.45902" lon="6.46673">
        <ele>133.9</ele>
        <time>2021-04-05T07:38:17Z</time>
      </trkpt>
      <trkpt lat="43.45906" lon="6.46678">
        <ele>134</ele>
        <time>2021-04-05T07:38:22Z</time>
      </trkpt>
      <trkpt lat="43.45908" lon="6.46684">
        <ele>134.4</ele>
        <time>2021-04-05T07:38:27Z</time>
      </trkpt>
      <trkpt lat="43.4591" lon="6.46689">
        <ele>134.7</ele>
        <time>2021-04-05T07:38:32Z</time>
      </trkpt>
      <trkpt lat="43.45915" lon="6.46693">
        <ele>135</ele>
        <time>2021-04-05T07:38:36Z</time>
      </trkpt>
      <trkpt lat="43.45919" lon="6.46697">
        <ele>135.3</ele>
        <time>2021-04-05T07:38:41Z</time>
      </trkpt>
      <trkpt lat="43.45923" lon="6.46702">
        <ele>135.7</ele>
        <time>2021-04-05T07:38:47Z</time>
      </trkpt>
      <trkpt lat="43.45927" lon="6.46706">
        <ele>136.1</ele>
        <time>2021-04-05T07:38:53Z</time>
      </trkpt>
      <trkpt lat="43.45931" lon="6.4671">
        <ele>136.3</ele>
        <time>2021-04-05T07:38:57Z</time>
      </trkpt>
      <trkpt lat="43.45935" lon="6.46714">
        <ele>136.7</ele>
        <time>2021-04-05T07:39:02Z</time>
      </trkpt>
      <trkpt lat="43.45939" lon="6.46718">
        <ele>137</ele>
        <time>2021-04-05T07:39:07Z</time>
      </trkpt>
      <trkpt lat="43.45942" lon="6.46723">
        <ele>137.2</ele>
        <time>2021-04-05T07:39:11Z</time>
      </trkpt>
      <trkpt lat="43.45945" lon="6.46728">
        <ele>137.6</ele>
        <time>2021-04-05T07:39:15Z</time>
      </trkpt>
      <trkpt lat="43.45948" lon="6.46734">
        <ele>137.9</ele>
        <time>2021-04-05T07:39:19Z</time>
      </trkpt>
      <trkpt lat="43.45952" lon="6.46739">
        <ele>138.2</ele>
        <time>2021-04-05T07:39:23Z</time>
      </trkpt>
      <trkpt lat="43.45955" lon="6.46745">
        <ele>138.4</ele>
        <time>2021-04-05T07:39:28Z</time>
      </trkpt>
      <trkpt lat="43.45959" lon="6.46748">
        <ele>138.6</ele>
        <time>2021-04-05T07:39:32Z</time>
      </trkpt>
      <trkpt lat="43.45963" lon="6.46752">
        <ele>138.8</ele>
        <time>2021-04-05T07:39:37Z</time>
      </trkpt>
      <trkpt lat="43.45965" lon="6.46758">
        <ele>139</ele>
        <time>2021-04-05T07:39:42Z</time>
      </trkpt>
      <trkpt lat="43.45967" lon="6.46764">
        <ele>139.4</ele>
        <time>2021-04-05T07:39:49Z</time>
      </trkpt>
      <trkpt lat="43.4597" lon="6.46768">
        <ele>139.8</ele>
        <time>2021-04-05T07:39:54Z</time>
      </trkpt>
      <trkpt lat="43.45975" lon="6.46771">
        <ele>140</ele>
        <time>2021-04-05T07:39:58Z</time>
      </trkpt>
      <trkpt lat="43.4598" lon="6.46774">
        <ele>140.3</ele>
        <time>2021-04-05T07:40:03Z</time>
      </trkpt>
      <trkpt lat="43.45985" lon="6.46779">
        <ele>140.6</ele>
        <time>2021-04-05T07:40:09Z</time>
      </trkpt>
      <trkpt lat="43.45989" lon="6.46782">
        <ele>140.8</ele>
        <time>2021-04-05T07:40:15Z</time>
      </trkpt>
      <trkpt lat="43.45992" lon="6.46787">
        <ele>140.9</ele>
        <time>2021-04-05T07:40:19Z</time>
      </trkpt>
      <trkpt lat="43.45996" lon="6.46791">
        <ele>141</ele>
        <time>2021-04-05T07:40:23Z</time>
      </trkpt>
      <trkpt lat="43.45998" lon="6.46796">
        <ele>141.1</ele>
        <time>2021-04-05T07:40:26Z</time>
      </trkpt>
      <trkpt lat="43.46001" lon="6.46801">
        <ele>141.2</ele>
        <time>2021-04-05T07:40:29Z</time>
      </trkpt>
      <trkpt lat="43.46004" lon="6.46806">
        <ele>141.2</ele>
        <time>2021-04-05T07:40:32Z</time>
      </trkpt>
      <trkpt lat="43.46007" lon="6.46812">
        <ele>141.2</ele>
        <time>2021-04-05T07:40:36Z</time>
      </trkpt>
      <trkpt lat="43.46009" lon="6.46819">
        <ele>141.1</ele>
        <time>2021-04-05T07:40:40Z</time>
      </trkpt>
      <trkpt lat="43.46011" lon="6.46826">
        <ele>141</ele>
        <time>2021-04-05T07:40:44Z</time>
      </trkpt>
      <trkpt lat="43.46013" lon="6.46832">
        <ele>140.9</ele>
        <time>2021-04-05T07:40:48Z</time>
      </trkpt>
      <trkpt lat="43.46014" lon="6.46838">
        <ele>140.9</ele>
        <time>2021-04-05T07:40:52Z</time>
      </trkpt>
      <trkpt lat="43.46015" lon="6.46845">
        <ele>140.8</ele>
        <time>2021-04-05T07:40:56Z</time>
      </trkpt>
      <trkpt lat="43.46014" lon="6.46852">
        <ele>140.6</ele>
        <time>2021-04-05T07:41:02Z</time>
      </trkpt>
      <trkpt lat="43.46013" lon="6.46859">
        <ele>140.2</ele>
        <time>2021-04-05T07:41:07Z</time>
      </trkpt>
      <trkpt lat="43.46013" lon="6.46866">
        <ele>139.9</ele>
        <time>2021-04-05T07:41:11Z</time>
      </trkpt>
      <trkpt lat="43.46012" lon="6.46872">
        <ele>139.6</ele>
        <time>2021-04-05T07:41:16Z</time>
      </trkpt>
      <trkpt lat="43.46012" lon="6.46879">
        <ele>139.1</ele>
        <time>2021-04-05T07:41:20Z</time>
      </trkpt>
      <trkpt lat="43.46012" lon="6.46885">
        <ele>138.7</ele>
        <time>2021-04-05T07:41:24Z</time>
      </trkpt>
      <trkpt lat="43.46014" lon="6.46892">
        <ele>138.3</ele>
        <time>2021-04-05T07:41:29Z</time>
      </trkpt>
      <trkpt lat="43.46013" lon="6.46898">
        <ele>137.8</ele>
        <time>2021-04-05T07:41:35Z</time>
      </trkpt>
      <trkpt lat="43.46013" lon="6.46905">
        <ele>137.4</ele>
        <time>2021-04-05T07:41:40Z</time>
      </trkpt>
      <trkpt lat="43.46014" lon="6.46911">
        <ele>136.9</ele>
        <time>2021-04-05T07:41:46Z</time>
      </trkpt>
      <trkpt lat="43.46009" lon="6.46909">
        <ele>135.3</ele>
        <time>2021-04-05T07:42:37Z</time>
      </trkpt>
      <trkpt lat="43.4601" lon="6.46915">
        <ele>134.4</ele>
        <time>2021-04-05T07:43:15Z</time>
      </trkpt>
      <trkpt lat="43.46014" lon="6.4692">
        <ele>134.1</ele>
        <time>2021-04-05T07:43:27Z</time>
      </trkpt>
      <trkpt lat="43.46013" lon="6.46926">
        <ele>134.1</ele>
        <time>2021-04-05T07:43:36Z</time>
      </trkpt>
      <trkpt lat="43.4601" lon="6.46933">
        <ele>134.1</ele>
        <time>2021-04-05T07:43:43Z</time>
      </trkpt>
      <trkpt lat="43.4601" lon="6.4694">
        <ele>134.2</ele>
        <time>2021-04-05T07:43:48Z</time>
      </trkpt>
      <trkpt lat="43.46009" lon="6.46947">
        <ele>134.2</ele>
        <time>2021-04-05T07:43:53Z</time>
      </trkpt>
      <trkpt lat="43.46011" lon="6.46953">
        <ele>134.1</ele>
        <time>2021-04-05T07:43:57Z</time>
      </trkpt>
      <trkpt lat="43.46012" lon="6.4696">
        <ele>134</ele>
        <time>2021-04-05T07:44:01Z</time>
      </trkpt>
      <trkpt lat="43.46011" lon="6.46967">
        <ele>133.8</ele>
        <time>2021-04-05T07:44:06Z</time>
      </trkpt>
      <trkpt lat="43.4601" lon="6.46973">
        <ele>133.5</ele>
        <time>2021-04-05T07:44:11Z</time>
      </trkpt>
      <trkpt lat="43.46006" lon="6.46977">
        <ele>132.8</ele>
        <time>2021-04-05T07:44:23Z</time>
      </trkpt>
      <trkpt lat="43.46001" lon="6.46975">
        <ele>132.4</ele>
        <time>2021-04-05T07:44:29Z</time>
      </trkpt>
      <trkpt lat="43.45997" lon="6.46971">
        <ele>132</ele>
        <time>2021-04-05T07:44:35Z</time>
      </trkpt>
      <trkpt lat="43.45994" lon="6.46968">
        <ele>131.5</ele>
        <time>2021-04-05T07:44:40Z</time>
      </trkpt>
      <trkpt lat="43.4599" lon="6.46964">
        <ele>131.1</ele>
        <time>2021-04-05T07:44:45Z</time>
      </trkpt>
      <trkpt lat="43.45986" lon="6.4696">
        <ele>130.8</ele>
        <time>2021-04-05T07:44:50Z</time>
      </trkpt>
      <trkpt lat="43.45983" lon="6.46954">
        <ele>130.4</ele>
        <time>2021-04-05T07:44:56Z</time>
      </trkpt>
      <trkpt lat="43.4598" lon="6.46949">
        <ele>130</ele>
        <time>2021-04-05T07:45:01Z</time>
      </trkpt>
      <trkpt lat="43.45976" lon="6.46946">
        <ele>129.7</ele>
        <time>2021-04-05T07:45:05Z</time>
      </trkpt>
      <trkpt lat="43.45972" lon="6.46942">
        <ele>129.5</ele>
        <time>2021-04-05T07:45:09Z</time>
      </trkpt>
      <trkpt lat="43.45968" lon="6.46939">
        <ele>129.1</ele>
        <time>2021-04-05T07:45:14Z</time>
      </trkpt>
      <trkpt lat="43.45962" lon="6.46938">
        <ele>128.9</ele>
        <time>2021-04-05T07:45:19Z</time>
      </trkpt>
      <trkpt lat="43.45957" lon="6.46941">
        <ele>128.6</ele>
        <time>2021-04-05T07:45:23Z</time>
      </trkpt>
      <trkpt lat="43.45954" lon="6.46947">
        <ele>128.4</ele>
        <time>2021-04-05T07:45:28Z</time>
      </trkpt>
      <trkpt lat="43.45954" lon="6.46954">
        <ele>128.3</ele>
        <time>2021-04-05T07:45:33Z</time>
      </trkpt>
      <trkpt lat="43.45954" lon="6.46962">
        <ele>128.2</ele>
        <time>2021-04-05T07:45:38Z</time>
      </trkpt>
      <trkpt lat="43.45954" lon="6.46969">
        <ele>128.1</ele>
        <time>2021-04-05T07:45:43Z</time>
      </trkpt>
      <trkpt lat="43.45955" lon="6.46975">
        <ele>128.1</ele>
        <time>2021-04-05T07:45:47Z</time>
      </trkpt>
      <trkpt lat="43.45955" lon="6.46982">
        <ele>128.2</ele>
        <time>2021-04-05T07:45:52Z</time>
      </trkpt>
      <trkpt lat="43.45954" lon="6.46989">
        <ele>128.4</ele>
        <time>2021-04-05T07:45:57Z</time>
      </trkpt>
      <trkpt lat="43.45954" lon="6.46996">
        <ele>128.4</ele>
        <time>2021-04-05T07:46:02Z</time>
      </trkpt>
      <trkpt lat="43.45954" lon="6.47004">
        <ele>128.4</ele>
        <time>2021-04-05T07:46:07Z</time>
      </trkpt>
      <trkpt lat="43.45955" lon="6.4701">
        <ele>128.4</ele>
        <time>2021-04-05T07:46:11Z</time>
      </trkpt>
      <trkpt lat="43.45956" lon="6.47018">
        <ele>128.4</ele>
        <time>2021-04-05T07:46:16Z</time>
      </trkpt>
      <trkpt lat="43.45957" lon="6.47025">
        <ele>128.4</ele>
        <time>2021-04-05T07:46:21Z</time>
      </trkpt>
      <trkpt lat="43.45957" lon="6.47032">
        <ele>128.5</ele>
        <time>2021-04-05T07:46:26Z</time>
      </trkpt>
      <trkpt lat="43.45957" lon="6.47039">
        <ele>128.6</ele>
        <time>2021-04-05T07:46:30Z</time>
      </trkpt>
      <trkpt lat="43.45958" lon="6.47046">
        <ele>128.7</ele>
        <time>2021-04-05T07:46:35Z</time>
      </trkpt>
      <trkpt lat="43.4596" lon="6.47053">
        <ele>128.8</ele>
        <time>2021-04-05T07:46:40Z</time>
      </trkpt>
      <trkpt lat="43.45962" lon="6.4706">
        <ele>128.8</ele>
        <time>2021-04-05T07:46:44Z</time>
      </trkpt>
      <trkpt lat="43.45963" lon="6.47067">
        <ele>128.8</ele>
        <time>2021-04-05T07:46:49Z</time>
      </trkpt>
      <trkpt lat="43.45964" lon="6.47074">
        <ele>128.9</ele>
        <time>2021-04-05T07:46:54Z</time>
      </trkpt>
      <trkpt lat="43.45964" lon="6.47081">
        <ele>128.8</ele>
        <time>2021-04-05T07:46:59Z</time>
      </trkpt>
      <trkpt lat="43.45964" lon="6.47088">
        <ele>128.8</ele>
        <time>2021-04-05T07:47:03Z</time>
      </trkpt>
      <trkpt lat="43.45963" lon="6.47095">
        <ele>128.9</ele>
        <time>2021-04-05T07:47:08Z</time>
      </trkpt>
      <trkpt lat="43.45962" lon="6.47102">
        <ele>128.9</ele>
        <time>2021-04-05T07:47:13Z</time>
      </trkpt>
      <trkpt lat="43.45961" lon="6.47109">
        <ele>129</ele>
        <time>2021-04-05T07:47:18Z</time>
      </trkpt>
      <trkpt lat="43.4596" lon="6.47116">
        <ele>129.1</ele>
        <time>2021-04-05T07:47:23Z</time>
      </trkpt>
      <trkpt lat="43.45958" lon="6.47122">
        <ele>129.2</ele>
        <time>2021-04-05T07:47:28Z</time>
      </trkpt>
      <trkpt lat="43.45958" lon="6.4713">
        <ele>129</ele>
        <time>2021-04-05T07:47:33Z</time>
      </trkpt>
      <trkpt lat="43.45957" lon="6.47137">
        <ele>128.9</ele>
        <time>2021-04-05T07:47:38Z</time>
      </trkpt>
      <trkpt lat="43.45955" lon="6.47143">
        <ele>128.8</ele>
        <time>2021-04-05T07:47:43Z</time>
      </trkpt>
      <trkpt lat="43.45954" lon="6.47149">
        <ele>128.8</ele>
        <time>2021-04-05T07:47:47Z</time>
      </trkpt>
      <trkpt lat="43.45953" lon="6.47156">
        <ele>128.7</ele>
        <time>2021-04-05T07:47:52Z</time>
      </trkpt>
      <trkpt lat="43.45952" lon="6.47164">
        <ele>128.7</ele>
        <time>2021-04-05T07:47:57Z</time>
      </trkpt>
      <trkpt lat="43.45951" lon="6.4717">
        <ele>128.7</ele>
        <time>2021-04-05T07:48:01Z</time>
      </trkpt>
      <trkpt lat="43.45949" lon="6.47176">
        <ele>128.5</ele>
        <time>2021-04-05T07:48:08Z</time>
      </trkpt>
      <trkpt lat="43.45949" lon="6.47184">
        <ele>128.4</ele>
        <time>2021-04-05T07:48:13Z</time>
      </trkpt>
      <trkpt lat="43.45948" lon="6.4719">
        <ele>128.2</ele>
        <time>2021-04-05T07:48:18Z</time>
      </trkpt>
      <trkpt lat="43.45947" lon="6.47197">
        <ele>127.9</ele>
        <time>2021-04-05T07:48:23Z</time>
      </trkpt>
      <trkpt lat="43.45947" lon="6.47204">
        <ele>127.7</ele>
        <time>2021-04-05T07:48:28Z</time>
      </trkpt>
      <trkpt lat="43.45946" lon="6.4721">
        <ele>127.6</ele>
        <time>2021-04-05T07:48:33Z</time>
      </trkpt>
      <trkpt lat="43.45945" lon="6.47218">
        <ele>127.4</ele>
        <time>2021-04-05T07:48:38Z</time>
      </trkpt>
      <trkpt lat="43.45943" lon="6.47224">
        <ele>127.3</ele>
        <time>2021-04-05T07:48:42Z</time>
      </trkpt>
      <trkpt lat="43.45944" lon="6.47231">
        <ele>127.2</ele>
        <time>2021-04-05T07:48:46Z</time>
      </trkpt>
      <trkpt lat="43.45944" lon="6.47237">
        <ele>127</ele>
        <time>2021-04-05T07:48:50Z</time>
      </trkpt>
      <trkpt lat="43.45945" lon="6.47244">
        <ele>126.9</ele>
        <time>2021-04-05T07:48:54Z</time>
      </trkpt>
      <trkpt lat="43.45945" lon="6.4725">
        <ele>126.8</ele>
        <time>2021-04-05T07:48:58Z</time>
      </trkpt>
      <trkpt lat="43.45947" lon="6.47257">
        <ele>126.7</ele>
        <time>2021-04-05T07:49:02Z</time>
      </trkpt>
      <trkpt lat="43.45951" lon="6.47262">
        <ele>126.7</ele>
        <time>2021-04-05T07:49:06Z</time>
      </trkpt>
      <trkpt lat="43.45954" lon="6.47269">
        <ele>126.6</ele>
        <time>2021-04-05T07:49:10Z</time>
      </trkpt>
      <trkpt lat="43.45956" lon="6.47275">
        <ele>126.6</ele>
        <time>2021-04-05T07:49:15Z</time>
      </trkpt>
      <trkpt lat="43.45959" lon="6.47281">
        <ele>126.6</ele>
        <time>2021-04-05T07:49:23Z</time>
      </trkpt>
      <trkpt lat="43.45963" lon="6.47286">
        <ele>126.5</ele>
        <time>2021-04-05T07:49:27Z</time>
      </trkpt>
      <trkpt lat="43.45965" lon="6.47292">
        <ele>126.5</ele>
        <time>2021-04-05T07:49:32Z</time>
      </trkpt>
      <trkpt lat="43.45966" lon="6.47299">
        <ele>126.6</ele>
        <time>2021-04-05T07:49:36Z</time>
      </trkpt>
      <trkpt lat="43.45968" lon="6.47305">
        <ele>126.6</ele>
        <time>2021-04-05T07:49:40Z</time>
      </trkpt>
      <trkpt lat="43.4597" lon="6.47311">
        <ele>126.6</ele>
        <time>2021-04-05T07:49:44Z</time>
      </trkpt>
      <trkpt lat="43.45971" lon="6.47317">
        <ele>126.6</ele>
        <time>2021-04-05T07:49:49Z</time>
      </trkpt>
      <trkpt lat="43.45974" lon="6.47323">
        <ele>126.6</ele>
        <time>2021-04-05T07:49:53Z</time>
      </trkpt>
      <trkpt lat="43.45975" lon="6.47329">
        <ele>126.5</ele>
        <time>2021-04-05T07:49:57Z</time>
      </trkpt>
      <trkpt lat="43.45978" lon="6.47336">
        <ele>126.4</ele>
        <time>2021-04-05T07:50:02Z</time>
      </trkpt>
      <trkpt lat="43.45981" lon="6.4734">
        <ele>126.4</ele>
        <time>2021-04-05T07:50:06Z</time>
      </trkpt>
      <trkpt lat="43.45984" lon="6.47346">
        <ele>126.4</ele>
        <time>2021-04-05T07:50:10Z</time>
      </trkpt>
      <trkpt lat="43.45987" lon="6.47351">
        <ele>126.3</ele>
        <time>2021-04-05T07:50:14Z</time>
      </trkpt>
      <trkpt lat="43.45989" lon="6.47358">
        <ele>126.3</ele>
        <time>2021-04-05T07:50:18Z</time>
      </trkpt>
      <trkpt lat="43.45992" lon="6.47364">
        <ele>126.3</ele>
        <time>2021-04-05T07:50:22Z</time>
      </trkpt>
      <trkpt lat="43.45994" lon="6.4737">
        <ele>126.4</ele>
        <time>2021-04-05T07:50:26Z</time>
      </trkpt>
      <trkpt lat="43.45995" lon="6.47377">
        <ele>126.5</ele>
        <time>2021-04-05T07:50:31Z</time>
      </trkpt>
      <trkpt lat="43.45997" lon="6.47383">
        <ele>126.6</ele>
        <time>2021-04-05T07:50:35Z</time>
      </trkpt>
      <trkpt lat="43.45998" lon="6.47389">
        <ele>126.7</ele>
        <time>2021-04-05T07:50:41Z</time>
      </trkpt>
      <trkpt lat="43.46001" lon="6.47395">
        <ele>126.7</ele>
        <time>2021-04-05T07:50:46Z</time>
      </trkpt>
      <trkpt lat="43.46004" lon="6.474">
        <ele>126.8</ele>
        <time>2021-04-05T07:50:50Z</time>
      </trkpt>
      <trkpt lat="43.46007" lon="6.47405">
        <ele>126.9</ele>
        <time>2021-04-05T07:51:12Z</time>
      </trkpt>
      <trkpt lat="43.46011" lon="6.47403">
        <ele>126.9</ele>
        <time>2021-04-05T07:51:20Z</time>
      </trkpt>
      <trkpt lat="43.46016" lon="6.474">
        <ele>127</ele>
        <time>2021-04-05T07:51:39Z</time>
      </trkpt>
      <trkpt lat="43.46011" lon="6.47402">
        <ele>127.1</ele>
        <time>2021-04-05T07:53:18Z</time>
      </trkpt>
      <trkpt lat="43.46008" lon="6.47407">
        <ele>127.2</ele>
        <time>2021-04-05T07:53:37Z</time>
      </trkpt>
      <trkpt lat="43.4601" lon="6.47413">
        <ele>127.1</ele>
        <time>2021-04-05T07:53:41Z</time>
      </trkpt>
      <trkpt lat="43.46011" lon="6.47418">
        <ele>127.1</ele>
        <time>2021-04-05T07:53:45Z</time>
      </trkpt>
      <trkpt lat="43.46013" lon="6.47424">
        <ele>127.2</ele>
        <time>2021-04-05T07:53:49Z</time>
      </trkpt>
      <trkpt lat="43.46015" lon="6.47431">
        <ele>127.3</ele>
        <time>2021-04-05T07:53:53Z</time>
      </trkpt>
      <trkpt lat="43.46017" lon="6.47438">
        <ele>127.3</ele>
        <time>2021-04-05T07:53:57Z</time>
      </trkpt>
      <trkpt lat="43.4602" lon="6.47444">
        <ele>127.4</ele>
        <time>2021-04-05T07:54:01Z</time>
      </trkpt>
      <trkpt lat="43.46022" lon="6.4745">
        <ele>127.4</ele>
        <time>2021-04-05T07:54:05Z</time>
      </trkpt>
      <trkpt lat="43.46024" lon="6.47455">
        <ele>127.3</ele>
        <time>2021-04-05T07:54:11Z</time>
      </trkpt>
      <trkpt lat="43.46026" lon="6.47461">
        <ele>127.3</ele>
        <time>2021-04-05T07:54:15Z</time>
      </trkpt>
      <trkpt lat="43.46027" lon="6.47467">
        <ele>127.3</ele>
        <time>2021-04-05T07:54:20Z</time>
      </trkpt>
      <trkpt lat="43.46029" lon="6.47473">
        <ele>127.3</ele>
        <time>2021-04-05T07:54:25Z</time>
      </trkpt>
      <trkpt lat="43.46032" lon="6.47479">
        <ele>127.2</ele>
        <time>2021-04-05T07:54:30Z</time>
      </trkpt>
      <trkpt lat="43.46034" lon="6.47485">
        <ele>126.8</ele>
        <time>2021-04-05T07:54:36Z</time>
      </trkpt>
      <trkpt lat="43.46037" lon="6.47491">
        <ele>126.3</ele>
        <time>2021-04-05T07:54:42Z</time>
      </trkpt>
      <trkpt lat="43.4604" lon="6.47495">
        <ele>125.6</ele>
        <time>2021-04-05T07:54:52Z</time>
      </trkpt>
      <trkpt lat="43.46042" lon="6.47502">
        <ele>125.1</ele>
        <time>2021-04-05T07:54:58Z</time>
      </trkpt>
      <trkpt lat="43.46043" lon="6.47508">
        <ele>124.5</ele>
        <time>2021-04-05T07:55:05Z</time>
      </trkpt>
      <trkpt lat="43.46046" lon="6.47513">
        <ele>124</ele>
        <time>2021-04-05T07:55:11Z</time>
      </trkpt>
      <trkpt lat="43.46049" lon="6.47519">
        <ele>123.4</ele>
        <time>2021-04-05T07:55:16Z</time>
      </trkpt>
      <trkpt lat="43.46052" lon="6.47525">
        <ele>122.7</ele>
        <time>2021-04-05T07:55:21Z</time>
      </trkpt>
      <trkpt lat="43.46055" lon="6.4753">
        <ele>122.1</ele>
        <time>2021-04-05T07:55:26Z</time>
      </trkpt>
      <trkpt lat="43.46058" lon="6.47535">
        <ele>121.4</ele>
        <time>2021-04-05T07:55:32Z</time>
      </trkpt>
      <trkpt lat="43.46062" lon="6.4754">
        <ele>120.6</ele>
        <time>2021-04-05T07:55:39Z</time>
      </trkpt>
      <trkpt lat="43.46065" lon="6.47545">
        <ele>120.2</ele>
        <time>2021-04-05T07:55:43Z</time>
      </trkpt>
      <trkpt lat="43.46068" lon="6.4755">
        <ele>119.9</ele>
        <time>2021-04-05T07:55:47Z</time>
      </trkpt>
      <trkpt lat="43.46071" lon="6.47555">
        <ele>119.6</ele>
        <time>2021-04-05T07:55:51Z</time>
      </trkpt>
      <trkpt lat="43.46075" lon="6.47558">
        <ele>119.3</ele>
        <time>2021-04-05T07:55:55Z</time>
      </trkpt>
      <trkpt lat="43.46079" lon="6.47564">
        <ele>119.1</ele>
        <time>2021-04-05T07:55:59Z</time>
      </trkpt>
      <trkpt lat="43.46082" lon="6.47569">
        <ele>118.9</ele>
        <time>2021-04-05T07:56:04Z</time>
      </trkpt>
      <trkpt lat="43.46086" lon="6.47573">
        <ele>118.6</ele>
        <time>2021-04-05T07:56:09Z</time>
      </trkpt>
      <trkpt lat="43.46091" lon="6.47576">
        <ele>118.3</ele>
        <time>2021-04-05T07:56:13Z</time>
      </trkpt>
      <trkpt lat="43.46095" lon="6.47576">
        <ele>118.1</ele>
        <time>2021-04-05T07:56:18Z</time>
      </trkpt>
      <trkpt lat="43.46094" lon="6.4757">
        <ele>117.7</ele>
        <time>2021-04-05T07:56:45Z</time>
      </trkpt>
      <trkpt lat="43.46097" lon="6.47574">
        <ele>117.8</ele>
        <time>2021-04-05T07:57:02Z</time>
      </trkpt>
      <trkpt lat="43.46098" lon="6.47581">
        <ele>117.7</ele>
        <time>2021-04-05T07:57:15Z</time>
      </trkpt>
      <trkpt lat="43.46103" lon="6.47583">
        <ele>117.6</ele>
        <time>2021-04-05T07:57:21Z</time>
      </trkpt>
      <trkpt lat="43.46108" lon="6.47583">
        <ele>117.4</ele>
        <time>2021-04-05T07:57:27Z</time>
      </trkpt>
      <trkpt lat="43.46104" lon="6.47587">
        <ele>117.6</ele>
        <time>2021-04-05T07:58:08Z</time>
      </trkpt>
      <trkpt lat="43.46101" lon="6.47582">
        <ele>117.5</ele>
        <time>2021-04-05T07:58:37Z</time>
      </trkpt>
      <trkpt lat="43.46104" lon="6.47576">
        <ele>118.2</ele>
        <time>2021-04-05T07:59:33Z</time>
      </trkpt>
      <trkpt lat="43.46106" lon="6.47582">
        <ele>117.8</ele>
        <time>2021-04-05T07:59:52Z</time>
      </trkpt>
      <trkpt lat="43.46107" lon="6.47575">
        <ele>117.9</ele>
        <time>2021-04-05T08:00:04Z</time>
      </trkpt>
      <trkpt lat="43.46102" lon="6.47572">
        <ele>118</ele>
        <time>2021-04-05T08:00:08Z</time>
      </trkpt>
      <trkpt lat="43.46105" lon="6.47565">
        <ele>120</ele>
        <time>2021-04-05T08:00:50Z</time>
      </trkpt>
      <trkpt lat="43.46109" lon="6.47563">
        <ele>121.6</ele>
        <time>2021-04-05T08:01:00Z</time>
      </trkpt>
      <trkpt lat="43.46114" lon="6.47564">
        <ele>121.9</ele>
        <time>2021-04-05T08:01:05Z</time>
      </trkpt>
      <trkpt lat="43.46118" lon="6.47561">
        <ele>122.4</ele>
        <time>2021-04-05T08:01:12Z</time>
      </trkpt>
      <trkpt lat="43.46122" lon="6.47557">
        <ele>123.5</ele>
        <time>2021-04-05T08:01:22Z</time>
      </trkpt>
      <trkpt lat="43.46126" lon="6.47553">
        <ele>125.6</ele>
        <time>2021-04-05T08:01:38Z</time>
      </trkpt>
      <trkpt lat="43.4613" lon="6.4755">
        <ele>125.9</ele>
        <time>2021-04-05T08:01:43Z</time>
      </trkpt>
      <trkpt lat="43.46134" lon="6.47544">
        <ele>126</ele>
        <time>2021-04-05T08:01:49Z</time>
      </trkpt>
      <trkpt lat="43.46136" lon="6.47538">
        <ele>126.3</ele>
        <time>2021-04-05T08:01:54Z</time>
      </trkpt>
      <trkpt lat="43.46139" lon="6.47532">
        <ele>126.8</ele>
        <time>2021-04-05T08:02:01Z</time>
      </trkpt>
      <trkpt lat="43.46141" lon="6.47526">
        <ele>127.3</ele>
        <time>2021-04-05T08:02:11Z</time>
      </trkpt>
      <trkpt lat="43.46138" lon="6.47521">
        <ele>127.9</ele>
        <time>2021-04-05T08:02:27Z</time>
      </trkpt>
      <trkpt lat="43.46141" lon="6.47526">
        <ele>127.1</ele>
        <time>2021-04-05T08:03:05Z</time>
      </trkpt>
      <trkpt lat="43.46145" lon="6.47531">
        <ele>127.2</ele>
        <time>2021-04-05T08:03:09Z</time>
      </trkpt>
      <trkpt lat="43.46148" lon="6.47536">
        <ele>127</ele>
        <time>2021-04-05T08:03:16Z</time>
      </trkpt>
      <trkpt lat="43.46152" lon="6.47539">
        <ele>126.9</ele>
        <time>2021-04-05T08:03:21Z</time>
      </trkpt>
      <trkpt lat="43.46157" lon="6.47541">
        <ele>126.5</ele>
        <time>2021-04-05T08:03:26Z</time>
      </trkpt>
      <trkpt lat="43.4616" lon="6.47546">
        <ele>126.3</ele>
        <time>2021-04-05T08:03:30Z</time>
      </trkpt>
      <trkpt lat="43.46164" lon="6.47551">
        <ele>126</ele>
        <time>2021-04-05T08:03:35Z</time>
      </trkpt>
      <trkpt lat="43.46167" lon="6.47557">
        <ele>125.6</ele>
        <time>2021-04-05T08:03:40Z</time>
      </trkpt>
      <trkpt lat="43.4617" lon="6.47562">
        <ele>125.4</ele>
        <time>2021-04-05T08:03:50Z</time>
      </trkpt>
      <trkpt lat="43.46172" lon="6.47568">
        <ele>125.2</ele>
        <time>2021-04-05T08:04:03Z</time>
      </trkpt>
      <trkpt lat="43.46173" lon="6.47575">
        <ele>124.9</ele>
        <time>2021-04-05T08:04:09Z</time>
      </trkpt>
      <trkpt lat="43.46174" lon="6.47583">
        <ele>124.7</ele>
        <time>2021-04-05T08:04:13Z</time>
      </trkpt>
      <trkpt lat="43.46176" lon="6.47588">
        <ele>123.9</ele>
        <time>2021-04-05T08:04:18Z</time>
      </trkpt>
      <trkpt lat="43.46178" lon="6.47595">
        <ele>123.4</ele>
        <time>2021-04-05T08:04:22Z</time>
      </trkpt>
      <trkpt lat="43.46181" lon="6.476">
        <ele>123</ele>
        <time>2021-04-05T08:04:26Z</time>
      </trkpt>
      <trkpt lat="43.46182" lon="6.47606">
        <ele>121.8</ele>
        <time>2021-04-05T08:04:35Z</time>
      </trkpt>
      <trkpt lat="43.46181" lon="6.47612">
        <ele>121</ele>
        <time>2021-04-05T08:04:43Z</time>
      </trkpt>
      <trkpt lat="43.46182" lon="6.47619">
        <ele>120.3</ele>
        <time>2021-04-05T08:04:55Z</time>
      </trkpt>
      <trkpt lat="43.46185" lon="6.47624">
        <ele>120.2</ele>
        <time>2021-04-05T08:05:02Z</time>
      </trkpt>
      <trkpt lat="43.46187" lon="6.47629">
        <ele>120.2</ele>
        <time>2021-04-05T08:05:14Z</time>
      </trkpt>
      <trkpt lat="43.46187" lon="6.47636">
        <ele>120</ele>
        <time>2021-04-05T08:05:30Z</time>
      </trkpt>
      <trkpt lat="43.46182" lon="6.47634">
        <ele>118.4</ele>
        <time>2021-04-05T08:05:50Z</time>
      </trkpt>
      <trkpt lat="43.46182" lon="6.4764">
        <ele>117.6</ele>
        <time>2021-04-05T08:06:13Z</time>
      </trkpt>
      <trkpt lat="43.46181" lon="6.47646">
        <ele>117.2</ele>
        <time>2021-04-05T08:06:39Z</time>
      </trkpt>
      <trkpt lat="43.46178" lon="6.47652">
        <ele>116.8</ele>
        <time>2021-04-05T08:06:47Z</time>
      </trkpt>
      <trkpt lat="43.46183" lon="6.47651">
        <ele>115.8</ele>
        <time>2021-04-05T08:07:12Z</time>
      </trkpt>
      <trkpt lat="43.46181" lon="6.47658">
        <ele>114.9</ele>
        <time>2021-04-05T08:07:25Z</time>
      </trkpt>
      <trkpt lat="43.46181" lon="6.47664">
        <ele>113.8</ele>
        <time>2021-04-05T08:07:32Z</time>
      </trkpt>
      <trkpt lat="43.46183" lon="6.47671">
        <ele>113</ele>
        <time>2021-04-05T08:07:38Z</time>
      </trkpt>
      <trkpt lat="43.46184" lon="6.47677">
        <ele>112.1</ele>
        <time>2021-04-05T08:07:44Z</time>
      </trkpt>
      <trkpt lat="43.46185" lon="6.47683">
        <ele>111.7</ele>
        <time>2021-04-05T08:07:48Z</time>
      </trkpt>
      <trkpt lat="43.46187" lon="6.47689">
        <ele>110.2</ele>
        <time>2021-04-05T08:08:05Z</time>
      </trkpt>
      <trkpt lat="43.4619" lon="6.47694">
        <ele>109.8</ele>
        <time>2021-04-05T08:08:16Z</time>
      </trkpt>
      <trkpt lat="43.46193" lon="6.47698">
        <ele>109.7</ele>
        <time>2021-04-05T08:08:21Z</time>
      </trkpt>
      <trkpt lat="43.46199" lon="6.47701">
        <ele>109.4</ele>
        <time>2021-04-05T08:08:26Z</time>
      </trkpt>
      <trkpt lat="43.46203" lon="6.47703">
        <ele>109</ele>
        <time>2021-04-05T08:08:30Z</time>
      </trkpt>
      <trkpt lat="43.46208" lon="6.47707">
        <ele>108.6</ele>
        <time>2021-04-05T08:08:34Z</time>
      </trkpt>
      <trkpt lat="43.46211" lon="6.47711">
        <ele>108</ele>
        <time>2021-04-05T08:08:38Z</time>
      </trkpt>
      <trkpt lat="43.46214" lon="6.47716">
        <ele>107.6</ele>
        <time>2021-04-05T08:08:43Z</time>
      </trkpt>
      <trkpt lat="43.46218" lon="6.47719">
        <ele>106.9</ele>
        <time>2021-04-05T08:08:59Z</time>
      </trkpt>
      <trkpt lat="43.46223" lon="6.4772">
        <ele>107.1</ele>
        <time>2021-04-05T08:09:07Z</time>
      </trkpt>
      <trkpt lat="43.46227" lon="6.47723">
        <ele>106.9</ele>
        <time>2021-04-05T08:09:13Z</time>
      </trkpt>
      <trkpt lat="43.4623" lon="6.47727">
        <ele>106.7</ele>
        <time>2021-04-05T08:09:18Z</time>
      </trkpt>
      <trkpt lat="43.46228" lon="6.47722">
        <ele>106</ele>
        <time>2021-04-05T08:09:42Z</time>
      </trkpt>
      <trkpt lat="43.46225" lon="6.47717">
        <ele>105.8</ele>
        <time>2021-04-05T08:09:47Z</time>
      </trkpt>
      <trkpt lat="43.46221" lon="6.47713">
        <ele>105.9</ele>
        <time>2021-04-05T08:09:52Z</time>
      </trkpt>
      <trkpt lat="43.46216" lon="6.47715">
        <ele>106.2</ele>
        <time>2021-04-05T08:09:56Z</time>
      </trkpt>
      <trkpt lat="43.46212" lon="6.4772">
        <ele>106.4</ele>
        <time>2021-04-05T08:09:59Z</time>
      </trkpt>
      <trkpt lat="43.46209" lon="6.47725">
        <ele>106.6</ele>
        <time>2021-04-05T08:10:04Z</time>
      </trkpt>
      <trkpt lat="43.46205" lon="6.4773">
        <ele>106.4</ele>
        <time>2021-04-05T08:10:07Z</time>
      </trkpt>
      <trkpt lat="43.46204" lon="6.47736">
        <ele>106.2</ele>
        <time>2021-04-05T08:10:12Z</time>
      </trkpt>
      <trkpt lat="43.46201" lon="6.47741">
        <ele>106.5</ele>
        <time>2021-04-05T08:10:16Z</time>
      </trkpt>
      <trkpt lat="43.46196" lon="6.47744">
        <ele>106.9</ele>
        <time>2021-04-05T08:10:23Z</time>
      </trkpt>
      <trkpt lat="43.46192" lon="6.47745">
        <ele>106.9</ele>
        <time>2021-04-05T08:10:28Z</time>
      </trkpt>
      <trkpt lat="43.46187" lon="6.47749">
        <ele>106.4</ele>
        <time>2021-04-05T08:10:34Z</time>
      </trkpt>
      <trkpt lat="43.46187" lon="6.47755">
        <ele>106.2</ele>
        <time>2021-04-05T08:10:43Z</time>
      </trkpt>
      <trkpt lat="43.46188" lon="6.47761">
        <ele>105</ele>
        <time>2021-04-05T08:11:30Z</time>
      </trkpt>
      <trkpt lat="43.4619" lon="6.47767">
        <ele>104.3</ele>
        <time>2021-04-05T08:11:37Z</time>
      </trkpt>
      <trkpt lat="43.46195" lon="6.4777">
        <ele>103</ele>
        <time>2021-04-05T08:11:44Z</time>
      </trkpt>
      <trkpt lat="43.46198" lon="6.47775">
        <ele>100.3</ele>
        <time>2021-04-05T08:11:55Z</time>
      </trkpt>
      <trkpt lat="43.46199" lon="6.47781">
        <ele>98.9</ele>
        <time>2021-04-05T08:12:04Z</time>
      </trkpt>
      <trkpt lat="43.462" lon="6.47787">
        <ele>97.7</ele>
        <time>2021-04-05T08:12:57Z</time>
      </trkpt>
      <trkpt lat="43.46204" lon="6.47789">
        <ele>96.7</ele>
        <time>2021-04-05T08:13:43Z</time>
      </trkpt>
      <trkpt lat="43.46209" lon="6.47791">
        <ele>96.7</ele>
        <time>2021-04-05T08:13:48Z</time>
      </trkpt>
      <trkpt lat="43.46213" lon="6.47795">
        <ele>96.7</ele>
        <time>2021-04-05T08:13:53Z</time>
      </trkpt>
      <trkpt lat="43.46216" lon="6.478">
        <ele>96.6</ele>
        <time>2021-04-05T08:13:58Z</time>
      </trkpt>
      <trkpt lat="43.46219" lon="6.47805">
        <ele>96</ele>
        <time>2021-04-05T08:14:03Z</time>
      </trkpt>
      <trkpt lat="43.4622" lon="6.47813">
        <ele>95.6</ele>
        <time>2021-04-05T08:14:09Z</time>
      </trkpt>
      <trkpt lat="43.46224" lon="6.47817">
        <ele>95.2</ele>
        <time>2021-04-05T08:14:14Z</time>
      </trkpt>
      <trkpt lat="43.4623" lon="6.47818">
        <ele>94.9</ele>
        <time>2021-04-05T08:14:18Z</time>
      </trkpt>
      <trkpt lat="43.46234" lon="6.47822">
        <ele>94.5</ele>
        <time>2021-04-05T08:14:23Z</time>
      </trkpt>
      <trkpt lat="43.46238" lon="6.47826">
        <ele>94.3</ele>
        <time>2021-04-05T08:14:27Z</time>
      </trkpt>
      <trkpt lat="43.46241" lon="6.47831">
        <ele>94.3</ele>
        <time>2021-04-05T08:14:32Z</time>
      </trkpt>
      <trkpt lat="43.46246" lon="6.47836">
        <ele>94.3</ele>
        <time>2021-04-05T08:14:37Z</time>
      </trkpt>
      <trkpt lat="43.46249" lon="6.47841">
        <ele>94.4</ele>
        <time>2021-04-05T08:14:41Z</time>
      </trkpt>
      <trkpt lat="43.46251" lon="6.47847">
        <ele>94</ele>
        <time>2021-04-05T08:14:46Z</time>
      </trkpt>
      <trkpt lat="43.46253" lon="6.47853">
        <ele>93.6</ele>
        <time>2021-04-05T08:14:55Z</time>
      </trkpt>
      <trkpt lat="43.46257" lon="6.47857">
        <ele>93.7</ele>
        <time>2021-04-05T08:15:21Z</time>
      </trkpt>
      <trkpt lat="43.46262" lon="6.47854">
        <ele>93.6</ele>
        <time>2021-04-05T08:15:45Z</time>
      </trkpt>
      <trkpt lat="43.46265" lon="6.4785">
        <ele>93.9</ele>
        <time>2021-04-05T08:16:00Z</time>
      </trkpt>
      <trkpt lat="43.46269" lon="6.47853">
        <ele>93.7</ele>
        <time>2021-04-05T08:16:16Z</time>
      </trkpt>
      <trkpt lat="43.46271" lon="6.47847">
        <ele>93.9</ele>
        <time>2021-04-05T08:16:30Z</time>
      </trkpt>
      <trkpt lat="43.46276" lon="6.47846">
        <ele>93.8</ele>
        <time>2021-04-05T08:16:37Z</time>
      </trkpt>
      <trkpt lat="43.46281" lon="6.47846">
        <ele>93.4</ele>
        <time>2021-04-05T08:16:42Z</time>
      </trkpt>
      <trkpt lat="43.46285" lon="6.47845">
        <ele>93.6</ele>
        <time>2021-04-05T08:16:48Z</time>
      </trkpt>
      <trkpt lat="43.4629" lon="6.47845">
        <ele>93.9</ele>
        <time>2021-04-05T08:16:54Z</time>
      </trkpt>
      <trkpt lat="43.46295" lon="6.47844">
        <ele>93.8</ele>
        <time>2021-04-05T08:17:06Z</time>
      </trkpt>
      <trkpt lat="43.46297" lon="6.47838">
        <ele>94</ele>
        <time>2021-04-05T08:17:17Z</time>
      </trkpt>
      <trkpt lat="43.46293" lon="6.47834">
        <ele>94.2</ele>
        <time>2021-04-05T08:17:32Z</time>
      </trkpt>
      <trkpt lat="43.46295" lon="6.47828">
        <ele>94</ele>
        <time>2021-04-05T08:17:42Z</time>
      </trkpt>
      <trkpt lat="43.46293" lon="6.47822">
        <ele>94.1</ele>
        <time>2021-04-05T08:17:56Z</time>
      </trkpt>
      <trkpt lat="43.4629" lon="6.47818">
        <ele>94.3</ele>
        <time>2021-04-05T08:18:10Z</time>
      </trkpt>
      <trkpt lat="43.46292" lon="6.47811">
        <ele>94.4</ele>
        <time>2021-04-05T08:18:29Z</time>
      </trkpt>
      <trkpt lat="43.46295" lon="6.47807">
        <ele>94.3</ele>
        <time>2021-04-05T08:18:36Z</time>
      </trkpt>
      <trkpt lat="43.46298" lon="6.47802">
        <ele>94.1</ele>
        <time>2021-04-05T08:18:42Z</time>
      </trkpt>
      <trkpt lat="43.463" lon="6.47796">
        <ele>93.9</ele>
        <time>2021-04-05T08:18:47Z</time>
      </trkpt>
      <trkpt lat="43.46302" lon="6.4779">
        <ele>94</ele>
        <time>2021-04-05T08:18:54Z</time>
      </trkpt>
      <trkpt lat="43.46304" lon="6.47784">
        <ele>94.9</ele>
        <time>2021-04-05T08:19:01Z</time>
      </trkpt>
      <trkpt lat="43.46308" lon="6.47778">
        <ele>95</ele>
        <time>2021-04-05T08:19:06Z</time>
      </trkpt>
      <trkpt lat="43.46311" lon="6.47775">
        <ele>95.1</ele>
        <time>2021-04-05T08:19:12Z</time>
      </trkpt>
      <trkpt lat="43.46314" lon="6.47769">
        <ele>95</ele>
        <time>2021-04-05T08:19:18Z</time>
      </trkpt>
      <trkpt lat="43.46317" lon="6.47764">
        <ele>95</ele>
        <time>2021-04-05T08:19:24Z</time>
      </trkpt>
      <trkpt lat="43.46322" lon="6.4776">
        <ele>94.9</ele>
        <time>2021-04-05T08:19:29Z</time>
      </trkpt>
      <trkpt lat="43.46325" lon="6.47755">
        <ele>95.3</ele>
        <time>2021-04-05T08:19:36Z</time>
      </trkpt>
      <trkpt lat="43.4633" lon="6.47754">
        <ele>95.3</ele>
        <time>2021-04-05T08:19:43Z</time>
      </trkpt>
      <trkpt lat="43.46335" lon="6.47756">
        <ele>96</ele>
        <time>2021-04-05T08:20:01Z</time>
      </trkpt>
      <trkpt lat="43.46339" lon="6.4776">
        <ele>95.7</ele>
        <time>2021-04-05T08:20:06Z</time>
      </trkpt>
      <trkpt lat="43.46344" lon="6.47761">
        <ele>94.7</ele>
        <time>2021-04-05T08:20:36Z</time>
      </trkpt>
      <trkpt lat="43.46347" lon="6.47757">
        <ele>95</ele>
        <time>2021-04-05T08:21:00Z</time>
      </trkpt>
      <trkpt lat="43.46351" lon="6.47756">
        <ele>95.3</ele>
        <time>2021-04-05T08:22:54Z</time>
      </trkpt>
      <trkpt lat="43.46355" lon="6.47762">
        <ele>94.8</ele>
        <time>2021-04-05T08:23:25Z</time>
      </trkpt>
      <trkpt lat="43.46359" lon="6.47766">
        <ele>94.7</ele>
        <time>2021-04-05T08:23:29Z</time>
      </trkpt>
      <trkpt lat="43.46364" lon="6.47766">
        <ele>94.8</ele>
        <time>2021-04-05T08:23:43Z</time>
      </trkpt>
      <trkpt lat="43.46359" lon="6.4777">
        <ele>94.8</ele>
        <time>2021-04-05T08:23:53Z</time>
      </trkpt>
      <trkpt lat="43.46355" lon="6.47774">
        <ele>94.9</ele>
        <time>2021-04-05T08:23:59Z</time>
      </trkpt>
      <trkpt lat="43.46352" lon="6.47779">
        <ele>94.9</ele>
        <time>2021-04-05T08:24:04Z</time>
      </trkpt>
      <trkpt lat="43.4635" lon="6.47785">
        <ele>94.9</ele>
        <time>2021-04-05T08:24:09Z</time>
      </trkpt>
      <trkpt lat="43.46348" lon="6.47791">
        <ele>94.4</ele>
        <time>2021-04-05T08:24:23Z</time>
      </trkpt>
      <trkpt lat="43.46347" lon="6.47798">
        <ele>94.3</ele>
        <time>2021-04-05T08:24:28Z</time>
      </trkpt>
      <trkpt lat="43.46349" lon="6.47804">
        <ele>94.6</ele>
        <time>2021-04-05T08:24:36Z</time>
      </trkpt>
      <trkpt lat="43.46349" lon="6.47811">
        <ele>94.7</ele>
        <time>2021-04-05T08:24:58Z</time>
      </trkpt>
      <trkpt lat="43.46354" lon="6.47812">
        <ele>94.8</ele>
        <time>2021-04-05T08:25:04Z</time>
      </trkpt>
      <trkpt lat="43.46358" lon="6.47814">
        <ele>94.9</ele>
        <time>2021-04-05T08:25:11Z</time>
      </trkpt>
      <trkpt lat="43.46363" lon="6.47818">
        <ele>95.3</ele>
        <time>2021-04-05T08:25:16Z</time>
      </trkpt>
      <trkpt lat="43.46367" lon="6.47818">
        <ele>95.8</ele>
        <time>2021-04-05T08:25:22Z</time>
      </trkpt>
      <trkpt lat="43.46373" lon="6.4782">
        <ele>96.1</ele>
        <time>2021-04-05T08:25:26Z</time>
      </trkpt>
      <trkpt lat="43.46377" lon="6.47823">
        <ele>96.3</ele>
        <time>2021-04-05T08:25:31Z</time>
      </trkpt>
      <trkpt lat="43.46381" lon="6.47826">
        <ele>96.7</ele>
        <time>2021-04-05T08:25:40Z</time>
      </trkpt>
      <trkpt lat="43.46385" lon="6.47831">
        <ele>97.2</ele>
        <time>2021-04-05T08:25:46Z</time>
      </trkpt>
      <trkpt lat="43.46385" lon="6.47837">
        <ele>97.9</ele>
        <time>2021-04-05T08:25:55Z</time>
      </trkpt>
      <trkpt lat="43.46383" lon="6.47842">
        <ele>98</ele>
        <time>2021-04-05T08:25:59Z</time>
      </trkpt>
      <trkpt lat="43.46382" lon="6.47849">
        <ele>98.2</ele>
        <time>2021-04-05T08:26:09Z</time>
      </trkpt>
      <trkpt lat="43.46384" lon="6.47843">
        <ele>99</ele>
        <time>2021-04-05T08:26:32Z</time>
      </trkpt>
      <trkpt lat="43.46389" lon="6.47841">
        <ele>99</ele>
        <time>2021-04-05T08:26:38Z</time>
      </trkpt>
      <trkpt lat="43.46394" lon="6.47842">
        <ele>99.3</ele>
        <time>2021-04-05T08:26:44Z</time>
      </trkpt>
      <trkpt lat="43.46398" lon="6.47841">
        <ele>99.5</ele>
        <time>2021-04-05T08:26:51Z</time>
      </trkpt>
      <trkpt lat="43.46403" lon="6.47838">
        <ele>99.6</ele>
        <time>2021-04-05T08:26:54Z</time>
      </trkpt>
      <trkpt lat="43.46406" lon="6.47842">
        <ele>100.1</ele>
        <time>2021-04-05T08:27:02Z</time>
      </trkpt>
      <trkpt lat="43.46402" lon="6.47846">
        <ele>100.6</ele>
        <time>2021-04-05T08:27:14Z</time>
      </trkpt>
      <trkpt lat="43.46397" lon="6.47847">
        <ele>101.3</ele>
        <time>2021-04-05T08:27:20Z</time>
      </trkpt>
      <trkpt lat="43.46392" lon="6.47849">
        <ele>101.6</ele>
        <time>2021-04-05T08:27:26Z</time>
      </trkpt>
      <trkpt lat="43.46397" lon="6.47853">
        <ele>101.9</ele>
        <time>2021-04-05T08:27:45Z</time>
      </trkpt>
      <trkpt lat="43.46411" lon="6.4784">
        <ele>102</ele>
        <time>2021-04-05T08:28:10Z</time>
      </trkpt>
      <trkpt lat="43.46419" lon="6.47833">
        <ele>103.4</ele>
        <time>2021-04-05T08:28:21Z</time>
      </trkpt>
      <trkpt lat="43.46415" lon="6.4784">
        <ele>103</ele>
        <time>2021-04-05T08:28:28Z</time>
      </trkpt>
      <trkpt lat="43.4642" lon="6.4784">
        <ele>104.7</ele>
        <time>2021-04-05T08:28:39Z</time>
      </trkpt>
      <trkpt lat="43.46425" lon="6.47838">
        <ele>105.4</ele>
        <time>2021-04-05T08:28:47Z</time>
      </trkpt>
      <trkpt lat="43.46428" lon="6.47833">
        <ele>107.3</ele>
        <time>2021-04-05T08:29:05Z</time>
      </trkpt>
      <trkpt lat="43.4643" lon="6.47838">
        <ele>108.7</ele>
        <time>2021-04-05T08:29:20Z</time>
      </trkpt>
      <trkpt lat="43.46432" lon="6.47845">
        <ele>109</ele>
        <time>2021-04-05T08:29:29Z</time>
      </trkpt>
      <trkpt lat="43.46441" lon="6.47843">
        <ele>109</ele>
        <time>2021-04-05T08:29:38Z</time>
      </trkpt>
      <trkpt lat="43.46447" lon="6.47844">
        <ele>110</ele>
        <time>2021-04-05T08:29:47Z</time>
      </trkpt>
      <trkpt lat="43.46451" lon="6.47842">
        <ele>110.4</ele>
        <time>2021-04-05T08:29:50Z</time>
      </trkpt>
      <trkpt lat="43.46456" lon="6.47845">
        <ele>110</ele>
        <time>2021-04-05T08:29:57Z</time>
      </trkpt>
      <trkpt lat="43.46461" lon="6.47841">
        <ele>110.9</ele>
        <time>2021-04-05T08:30:04Z</time>
      </trkpt>
      <trkpt lat="43.46455" lon="6.47841">
        <ele>112.1</ele>
        <time>2021-04-05T08:30:28Z</time>
      </trkpt>
      <trkpt lat="43.46452" lon="6.47844">
        <ele>112</ele>
        <time>2021-04-05T08:30:32Z</time>
      </trkpt>
      <trkpt lat="43.46447" lon="6.47846">
        <ele>112.9</ele>
        <time>2021-04-05T08:30:43Z</time>
      </trkpt>
      <trkpt lat="43.46452" lon="6.47844">
        <ele>114</ele>
        <time>2021-04-05T08:31:10Z</time>
      </trkpt>
      <trkpt lat="43.46447" lon="6.47845">
        <ele>114</ele>
        <time>2021-04-05T08:31:41Z</time>
      </trkpt>
      <trkpt lat="43.46444" lon="6.47849">
        <ele>113.7</ele>
        <time>2021-04-05T08:32:09Z</time>
      </trkpt>
      <trkpt lat="43.46447" lon="6.47854">
        <ele>112.5</ele>
        <time>2021-04-05T08:32:35Z</time>
      </trkpt>
      <trkpt lat="43.46452" lon="6.4785">
        <ele>111.7</ele>
        <time>2021-04-05T08:32:46Z</time>
      </trkpt>
      <trkpt lat="43.46456" lon="6.47856">
        <ele>112</ele>
        <time>2021-04-05T08:33:18Z</time>
      </trkpt>
      <trkpt lat="43.4646" lon="6.4786">
        <ele>113</ele>
        <time>2021-04-05T08:33:31Z</time>
      </trkpt>
      <trkpt lat="43.46464" lon="6.47854">
        <ele>113.6</ele>
        <time>2021-04-05T08:33:37Z</time>
      </trkpt>
      <trkpt lat="43.46468" lon="6.47851">
        <ele>114.3</ele>
        <time>2021-04-05T08:33:48Z</time>
      </trkpt>
      <trkpt lat="43.46469" lon="6.47858">
        <ele>115.1</ele>
        <time>2021-04-05T08:33:59Z</time>
      </trkpt>
      <trkpt lat="43.46464" lon="6.4786">
        <ele>115.6</ele>
        <time>2021-04-05T08:34:05Z</time>
      </trkpt>
      <trkpt lat="43.4646" lon="6.47862">
        <ele>115.8</ele>
        <time>2021-04-05T08:34:12Z</time>
      </trkpt>
      <trkpt lat="43.46457" lon="6.47867">
        <ele>115.7</ele>
        <time>2021-04-05T08:34:17Z</time>
      </trkpt>
      <trkpt lat="43.46461" lon="6.47866">
        <ele>114.8</ele>
        <time>2021-04-05T08:34:41Z</time>
      </trkpt>
      <trkpt lat="43.46466" lon="6.47867">
        <ele>115.4</ele>
        <time>2021-04-05T08:34:50Z</time>
      </trkpt>
      <trkpt lat="43.46471" lon="6.47869">
        <ele>115.4</ele>
        <time>2021-04-05T08:34:59Z</time>
      </trkpt>
      <trkpt lat="43.46473" lon="6.47874">
        <ele>115.2</ele>
        <time>2021-04-05T08:35:14Z</time>
      </trkpt>
      <trkpt lat="43.46471" lon="6.47869">
        <ele>115.3</ele>
        <time>2021-04-05T08:35:32Z</time>
      </trkpt>
      <trkpt lat="43.46466" lon="6.47868">
        <ele>115.3</ele>
        <time>2021-04-05T08:35:45Z</time>
      </trkpt>
      <trkpt lat="43.4647" lon="6.47864">
        <ele>116</ele>
        <time>2021-04-05T08:38:38Z</time>
      </trkpt>
      <trkpt lat="43.46472" lon="6.47858">
        <ele>116.2</ele>
        <time>2021-04-05T08:38:48Z</time>
      </trkpt>
      <trkpt lat="43.46476" lon="6.47853">
        <ele>116.6</ele>
        <time>2021-04-05T08:38:54Z</time>
      </trkpt>
      <trkpt lat="43.46478" lon="6.47847">
        <ele>116.9</ele>
        <time>2021-04-05T08:39:02Z</time>
      </trkpt>
      <trkpt lat="43.46483" lon="6.4785">
        <ele>117.3</ele>
        <time>2021-04-05T08:39:10Z</time>
      </trkpt>
      <trkpt lat="43.46487" lon="6.4785">
        <ele>119</ele>
        <time>2021-04-05T08:39:39Z</time>
      </trkpt>
      <trkpt lat="43.4649" lon="6.47845">
        <ele>119.2</ele>
        <time>2021-04-05T08:39:52Z</time>
      </trkpt>
      <trkpt lat="43.46495" lon="6.47848">
        <ele>119.4</ele>
        <time>2021-04-05T08:39:59Z</time>
      </trkpt>
      <trkpt lat="43.46498" lon="6.47857">
        <ele>118</ele>
        <time>2021-04-05T08:40:04Z</time>
      </trkpt>
      <trkpt lat="43.465" lon="6.47864">
        <ele>118.4</ele>
        <time>2021-04-05T08:40:10Z</time>
      </trkpt>
      <trkpt lat="43.46502" lon="6.47869">
        <ele>118.9</ele>
        <time>2021-04-05T08:40:40Z</time>
      </trkpt>
      <trkpt lat="43.46504" lon="6.47863">
        <ele>118.4</ele>
        <time>2021-04-05T08:41:03Z</time>
      </trkpt>
      <trkpt lat="43.46502" lon="6.47857">
        <ele>118.7</ele>
        <time>2021-04-05T08:41:25Z</time>
      </trkpt>
      <trkpt lat="43.46499" lon="6.47848">
        <ele>118</ele>
        <time>2021-04-05T08:41:28Z</time>
      </trkpt>
      <trkpt lat="43.46499" lon="6.47841">
        <ele>119</ele>
        <time>2021-04-05T08:41:32Z</time>
      </trkpt>
      <trkpt lat="43.46503" lon="6.47834">
        <ele>120</ele>
        <time>2021-04-05T08:41:48Z</time>
      </trkpt>
      <trkpt lat="43.46508" lon="6.47833">
        <ele>120</ele>
        <time>2021-04-05T08:42:00Z</time>
      </trkpt>
      <trkpt lat="43.46505" lon="6.47839">
        <ele>122.5</ele>
        <time>2021-04-05T08:42:22Z</time>
      </trkpt>
      <trkpt lat="43.4651" lon="6.47836">
        <ele>124</ele>
        <time>2021-04-05T08:43:20Z</time>
      </trkpt>
      <trkpt lat="43.46512" lon="6.47828">
        <ele>124</ele>
        <time>2021-04-05T08:43:25Z</time>
      </trkpt>
      <trkpt lat="43.46513" lon="6.47822">
        <ele>124</ele>
        <time>2021-04-05T08:43:36Z</time>
      </trkpt>
      <trkpt lat="43.46517" lon="6.47822">
        <ele>124.3</ele>
        <time>2021-04-05T08:43:44Z</time>
      </trkpt>
      <trkpt lat="43.46516" lon="6.47829">
        <ele>125.7</ele>
        <time>2021-04-05T08:44:26Z</time>
      </trkpt>
      <trkpt lat="43.46515" lon="6.47835">
        <ele>126.6</ele>
        <time>2021-04-05T08:45:33Z</time>
      </trkpt>
      <trkpt lat="43.46516" lon="6.47829">
        <ele>126.7</ele>
        <time>2021-04-05T08:45:50Z</time>
      </trkpt>
      <trkpt lat="43.46516" lon="6.47822">
        <ele>126.9</ele>
        <time>2021-04-05T08:46:00Z</time>
      </trkpt>
      <trkpt lat="43.46515" lon="6.47815">
        <ele>127.9</ele>
        <time>2021-04-05T08:46:15Z</time>
      </trkpt>
      <trkpt lat="43.46514" lon="6.47809">
        <ele>127.9</ele>
        <time>2021-04-05T08:46:24Z</time>
      </trkpt>
      <trkpt lat="43.46513" lon="6.47802">
        <ele>128.5</ele>
        <time>2021-04-05T08:46:31Z</time>
      </trkpt>
      <trkpt lat="43.46516" lon="6.47797">
        <ele>129.3</ele>
        <time>2021-04-05T08:47:06Z</time>
      </trkpt>
      <trkpt lat="43.46518" lon="6.4779">
        <ele>130.6</ele>
        <time>2021-04-05T08:47:28Z</time>
      </trkpt>
      <trkpt lat="43.46518" lon="6.47783">
        <ele>131.2</ele>
        <time>2021-04-05T08:47:34Z</time>
      </trkpt>
      <trkpt lat="43.46515" lon="6.47779">
        <ele>131.3</ele>
        <time>2021-04-05T08:47:43Z</time>
      </trkpt>
      <trkpt lat="43.46511" lon="6.47776">
        <ele>131.5</ele>
        <time>2021-04-05T08:48:14Z</time>
      </trkpt>
      <trkpt lat="43.46506" lon="6.47775">
        <ele>132.1</ele>
        <time>2021-04-05T08:48:24Z</time>
      </trkpt>
      <trkpt lat="43.46502" lon="6.47775">
        <ele>132.2</ele>
        <time>2021-04-05T08:48:30Z</time>
      </trkpt>
      <trkpt lat="43.46497" lon="6.47777">
        <ele>131.8</ele>
        <time>2021-04-05T08:48:34Z</time>
      </trkpt>
      <trkpt lat="43.46492" lon="6.47777">
        <ele>131.5</ele>
        <time>2021-04-05T08:48:39Z</time>
      </trkpt>
      <trkpt lat="43.46488" lon="6.47774">
        <ele>130.9</ele>
        <time>2021-04-05T08:48:50Z</time>
      </trkpt>
      <trkpt lat="43.46485" lon="6.47779">
        <ele>129.2</ele>
        <time>2021-04-05T08:49:44Z</time>
      </trkpt>
      <trkpt lat="43.4648" lon="6.4778">
        <ele>129.2</ele>
        <time>2021-04-05T08:49:49Z</time>
      </trkpt>
      <trkpt lat="43.46476" lon="6.47783">
        <ele>128.9</ele>
        <time>2021-04-05T08:49:58Z</time>
      </trkpt>
      <trkpt lat="43.46472" lon="6.47787">
        <ele>129</ele>
        <time>2021-04-05T08:50:04Z</time>
      </trkpt>
      <trkpt lat="43.46468" lon="6.47788">
        <ele>129.1</ele>
        <time>2021-04-05T08:50:10Z</time>
      </trkpt>
      <trkpt lat="43.46463" lon="6.47788">
        <ele>128.9</ele>
        <time>2021-04-05T08:50:15Z</time>
      </trkpt>
      <trkpt lat="43.46458" lon="6.4779">
        <ele>128.5</ele>
        <time>2021-04-05T08:50:20Z</time>
      </trkpt>
      <trkpt lat="43.46453" lon="6.4779">
        <ele>128.3</ele>
        <time>2021-04-05T08:50:25Z</time>
      </trkpt>
      <trkpt lat="43.46448" lon="6.47791">
        <ele>128.3</ele>
        <time>2021-04-05T08:50:31Z</time>
      </trkpt>
      <trkpt lat="43.46453" lon="6.47793">
        <ele>128.2</ele>
        <time>2021-04-05T08:50:51Z</time>
      </trkpt>
      <trkpt lat="43.46458" lon="6.47793">
        <ele>128.1</ele>
        <time>2021-04-05T08:50:58Z</time>
      </trkpt>
      <trkpt lat="43.46462" lon="6.4779">
        <ele>128.3</ele>
        <time>2021-04-05T08:51:07Z</time>
      </trkpt>
      <trkpt lat="43.46467" lon="6.47787">
        <ele>128.8</ele>
        <time>2021-04-05T08:51:18Z</time>
      </trkpt>
      <trkpt lat="43.46472" lon="6.47786">
        <ele>129.2</ele>
        <time>2021-04-05T08:51:29Z</time>
      </trkpt>
      <trkpt lat="43.46476" lon="6.47783">
        <ele>129.8</ele>
        <time>2021-04-05T08:52:01Z</time>
      </trkpt>
      <trkpt lat="43.46479" lon="6.47779">
        <ele>129.8</ele>
        <time>2021-04-05T08:52:07Z</time>
      </trkpt>
      <trkpt lat="43.46481" lon="6.47773">
        <ele>129.7</ele>
        <time>2021-04-05T08:52:11Z</time>
      </trkpt>
      <trkpt lat="43.46483" lon="6.47767">
        <ele>129.7</ele>
        <time>2021-04-05T08:52:15Z</time>
      </trkpt>
      <trkpt lat="43.46488" lon="6.47762">
        <ele>129.7</ele>
        <time>2021-04-05T08:52:19Z</time>
      </trkpt>
      <trkpt lat="43.46492" lon="6.47759">
        <ele>129.5</ele>
        <time>2021-04-05T08:52:25Z</time>
      </trkpt>
      <trkpt lat="43.46497" lon="6.47759">
        <ele>129.4</ele>
        <time>2021-04-05T08:52:30Z</time>
      </trkpt>
      <trkpt lat="43.46502" lon="6.47756">
        <ele>129.2</ele>
        <time>2021-04-05T08:52:38Z</time>
      </trkpt>
      <trkpt lat="43.46506" lon="6.47753">
        <ele>128.6</ele>
        <time>2021-04-05T08:52:45Z</time>
      </trkpt>
      <trkpt lat="43.46511" lon="6.47752">
        <ele>128.1</ele>
        <time>2021-04-05T08:52:50Z</time>
      </trkpt>
      <trkpt lat="43.46515" lon="6.47748">
        <ele>127.8</ele>
        <time>2021-04-05T08:52:56Z</time>
      </trkpt>
      <trkpt lat="43.46519" lon="6.47746">
        <ele>127.4</ele>
        <time>2021-04-05T08:53:01Z</time>
      </trkpt>
      <trkpt lat="43.46524" lon="6.47744">
        <ele>126.8</ele>
        <time>2021-04-05T08:53:07Z</time>
      </trkpt>
      <trkpt lat="43.46529" lon="6.47743">
        <ele>126.2</ele>
        <time>2021-04-05T08:53:12Z</time>
      </trkpt>
      <trkpt lat="43.46533" lon="6.47744">
        <ele>125.5</ele>
        <time>2021-04-05T08:53:30Z</time>
      </trkpt>
      <trkpt lat="43.46537" lon="6.4774">
        <ele>125.5</ele>
        <time>2021-04-05T08:53:37Z</time>
      </trkpt>
      <trkpt lat="43.46541" lon="6.47738">
        <ele>125.3</ele>
        <time>2021-04-05T08:53:43Z</time>
      </trkpt>
      <trkpt lat="43.46546" lon="6.47736">
        <ele>125</ele>
        <time>2021-04-05T08:53:48Z</time>
      </trkpt>
      <trkpt lat="43.46551" lon="6.47733">
        <ele>124.7</ele>
        <time>2021-04-05T08:53:53Z</time>
      </trkpt>
      <trkpt lat="43.46554" lon="6.47729">
        <ele>124.6</ele>
        <time>2021-04-05T08:53:57Z</time>
      </trkpt>
      <trkpt lat="43.46559" lon="6.47726">
        <ele>124.3</ele>
        <time>2021-04-05T08:54:02Z</time>
      </trkpt>
      <trkpt lat="43.46564" lon="6.47724">
        <ele>124</ele>
        <time>2021-04-05T08:54:08Z</time>
      </trkpt>
      <trkpt lat="43.46568" lon="6.47719">
        <ele>123.8</ele>
        <time>2021-04-05T08:54:14Z</time>
      </trkpt>
      <trkpt lat="43.46572" lon="6.47715">
        <ele>123.6</ele>
        <time>2021-04-05T08:54:20Z</time>
      </trkpt>
      <trkpt lat="43.46574" lon="6.47709">
        <ele>123.3</ele>
        <time>2021-04-05T08:54:26Z</time>
      </trkpt>
      <trkpt lat="43.46577" lon="6.47702">
        <ele>123.3</ele>
        <time>2021-04-05T08:54:32Z</time>
      </trkpt>
      <trkpt lat="43.4658" lon="6.47697">
        <ele>123.4</ele>
        <time>2021-04-05T08:54:37Z</time>
      </trkpt>
      <trkpt lat="43.46584" lon="6.47693">
        <ele>123.8</ele>
        <time>2021-04-05T08:54:42Z</time>
      </trkpt>
      <trkpt lat="43.46589" lon="6.47691">
        <ele>124</ele>
        <time>2021-04-05T08:54:48Z</time>
      </trkpt>
      <trkpt lat="43.4659" lon="6.47684">
        <ele>124.6</ele>
        <time>2021-04-05T08:54:54Z</time>
      </trkpt>
      <trkpt lat="43.46592" lon="6.47678">
        <ele>125.1</ele>
        <time>2021-04-05T08:55:00Z</time>
      </trkpt>
      <trkpt lat="43.46594" lon="6.47672">
        <ele>125.5</ele>
        <time>2021-04-05T08:55:06Z</time>
      </trkpt>
      <trkpt lat="43.46596" lon="6.47667">
        <ele>125.9</ele>
        <time>2021-04-05T08:55:13Z</time>
      </trkpt>
      <trkpt lat="43.46599" lon="6.47661">
        <ele>126.1</ele>
        <time>2021-04-05T08:55:19Z</time>
      </trkpt>
      <trkpt lat="43.46602" lon="6.47656">
        <ele>126.6</ele>
        <time>2021-04-05T08:55:25Z</time>
      </trkpt>
      <trkpt lat="43.46602" lon="6.47649">
        <ele>127.5</ele>
        <time>2021-04-05T08:55:35Z</time>
      </trkpt>
      <trkpt lat="43.46602" lon="6.47642">
        <ele>127.8</ele>
        <time>2021-04-05T08:55:42Z</time>
      </trkpt>
      <trkpt lat="43.46604" lon="6.47636">
        <ele>127.5</ele>
        <time>2021-04-05T08:55:51Z</time>
      </trkpt>
      <trkpt lat="43.46608" lon="6.47632">
        <ele>127.6</ele>
        <time>2021-04-05T08:56:00Z</time>
      </trkpt>
      <trkpt lat="43.46611" lon="6.47626">
        <ele>126.8</ele>
        <time>2021-04-05T08:56:09Z</time>
      </trkpt>
      <trkpt lat="43.46612" lon="6.4762">
        <ele>126.5</ele>
        <time>2021-04-05T08:56:23Z</time>
      </trkpt>
      <trkpt lat="43.46612" lon="6.47613">
        <ele>126.5</ele>
        <time>2021-04-05T08:56:28Z</time>
      </trkpt>
      <trkpt lat="43.4661" lon="6.47607">
        <ele>126.6</ele>
        <time>2021-04-05T08:56:34Z</time>
      </trkpt>
      <trkpt lat="43.46608" lon="6.47601">
        <ele>126.5</ele>
        <time>2021-04-05T08:56:38Z</time>
      </trkpt>
      <trkpt lat="43.46608" lon="6.47594">
        <ele>126.2</ele>
        <time>2021-04-05T08:56:43Z</time>
      </trkpt>
      <trkpt lat="43.46609" lon="6.47588">
        <ele>126.1</ele>
        <time>2021-04-05T08:56:47Z</time>
      </trkpt>
      <trkpt lat="43.46605" lon="6.47584">
        <ele>125.6</ele>
        <time>2021-04-05T08:56:54Z</time>
      </trkpt>
      <trkpt lat="43.46605" lon="6.47576">
        <ele>125.4</ele>
        <time>2021-04-05T08:57:01Z</time>
      </trkpt>
      <trkpt lat="43.46605" lon="6.47569">
        <ele>125.3</ele>
        <time>2021-04-05T08:57:06Z</time>
      </trkpt>
      <trkpt lat="43.46606" lon="6.47562">
        <ele>125.2</ele>
        <time>2021-04-05T08:57:10Z</time>
      </trkpt>
      <trkpt lat="43.46606" lon="6.47554">
        <ele>124.7</ele>
        <time>2021-04-05T08:57:15Z</time>
      </trkpt>
      <trkpt lat="43.46607" lon="6.47548">
        <ele>124.2</ele>
        <time>2021-04-05T08:57:20Z</time>
      </trkpt>
      <trkpt lat="43.46606" lon="6.47542">
        <ele>123</ele>
        <time>2021-04-05T08:57:38Z</time>
      </trkpt>
      <trkpt lat="43.46606" lon="6.47535">
        <ele>122.9</ele>
        <time>2021-04-05T08:57:45Z</time>
      </trkpt>
      <trkpt lat="43.46604" lon="6.47528">
        <ele>122.7</ele>
        <time>2021-04-05T08:57:51Z</time>
      </trkpt>
      <trkpt lat="43.46599" lon="6.47525">
        <ele>122.2</ele>
        <time>2021-04-05T08:58:16Z</time>
      </trkpt>
      <trkpt lat="43.46596" lon="6.4752">
        <ele>122.2</ele>
        <time>2021-04-05T08:58:22Z</time>
      </trkpt>
      <trkpt lat="43.46599" lon="6.47515">
        <ele>121.8</ele>
        <time>2021-04-05T08:58:36Z</time>
      </trkpt>
      <trkpt lat="43.46594" lon="6.47515">
        <ele>121.4</ele>
        <time>2021-04-05T08:58:48Z</time>
      </trkpt>
      <trkpt lat="43.46589" lon="6.47515">
        <ele>121</ele>
        <time>2021-04-05T08:59:02Z</time>
      </trkpt>
      <trkpt lat="43.46592" lon="6.4751">
        <ele>121.1</ele>
        <time>2021-04-05T08:59:10Z</time>
      </trkpt>
      <trkpt lat="43.46597" lon="6.47508">
        <ele>121</ele>
        <time>2021-04-05T08:59:21Z</time>
      </trkpt>
      <trkpt lat="43.46599" lon="6.47502">
        <ele>121.2</ele>
        <time>2021-04-05T08:59:28Z</time>
      </trkpt>
      <trkpt lat="43.46597" lon="6.47496">
        <ele>121</ele>
        <time>2021-04-05T08:59:36Z</time>
      </trkpt>
      <trkpt lat="43.46594" lon="6.47492">
        <ele>121.2</ele>
        <time>2021-04-05T08:59:46Z</time>
      </trkpt>
      <trkpt lat="43.46589" lon="6.47496">
        <ele>121.7</ele>
        <time>2021-04-05T08:59:56Z</time>
      </trkpt>
      <trkpt lat="43.46587" lon="6.47502">
        <ele>122</ele>
        <time>2021-04-05T09:00:10Z</time>
      </trkpt>
      <trkpt lat="43.46583" lon="6.47505">
        <ele>122</ele>
        <time>2021-04-05T09:00:16Z</time>
      </trkpt>
      <trkpt lat="43.46581" lon="6.47511">
        <ele>121.8</ele>
        <time>2021-04-05T09:00:50Z</time>
      </trkpt>
      <trkpt lat="43.46577" lon="6.47507">
        <ele>122.3</ele>
        <time>2021-04-05T09:01:04Z</time>
      </trkpt>
      <trkpt lat="43.46572" lon="6.47508">
        <ele>122.5</ele>
        <time>2021-04-05T09:01:11Z</time>
      </trkpt>
      <trkpt lat="43.46567" lon="6.47508">
        <ele>123.6</ele>
        <time>2021-04-05T09:01:35Z</time>
      </trkpt>
      <trkpt lat="43.46563" lon="6.47511">
        <ele>124.2</ele>
        <time>2021-04-05T09:01:44Z</time>
      </trkpt>
      <trkpt lat="43.46558" lon="6.47511">
        <ele>125.2</ele>
        <time>2021-04-05T09:02:02Z</time>
      </trkpt>
      <trkpt lat="43.46554" lon="6.47511">
        <ele>125</ele>
        <time>2021-04-05T09:02:11Z</time>
      </trkpt>
      <trkpt lat="43.46549" lon="6.4751">
        <ele>127.1</ele>
        <time>2021-04-05T09:02:50Z</time>
      </trkpt>
      <trkpt lat="43.46544" lon="6.47509">
        <ele>126.7</ele>
        <time>2021-04-05T09:03:05Z</time>
      </trkpt>
      <trkpt lat="43.46539" lon="6.47512">
        <ele>127.2</ele>
        <time>2021-04-05T09:03:13Z</time>
      </trkpt>
      <trkpt lat="43.46535" lon="6.47515">
        <ele>128</ele>
        <time>2021-04-05T09:03:19Z</time>
      </trkpt>
      <trkpt lat="43.46531" lon="6.47518">
        <ele>128.4</ele>
        <time>2021-04-05T09:03:24Z</time>
      </trkpt>
      <trkpt lat="43.46526" lon="6.47521">
        <ele>129.2</ele>
        <time>2021-04-05T09:03:31Z</time>
      </trkpt>
      <trkpt lat="43.46521" lon="6.47521">
        <ele>130</ele>
        <time>2021-04-05T09:03:38Z</time>
      </trkpt>
      <trkpt lat="43.46519" lon="6.47514">
        <ele>130.6</ele>
        <time>2021-04-05T09:03:44Z</time>
      </trkpt>
      <trkpt lat="43.46519" lon="6.47508">
        <ele>130.9</ele>
        <time>2021-04-05T09:03:48Z</time>
      </trkpt>
      <trkpt lat="43.4652" lon="6.47501">
        <ele>131.2</ele>
        <time>2021-04-05T09:03:54Z</time>
      </trkpt>
      <trkpt lat="43.46516" lon="6.47496">
        <ele>131.3</ele>
        <time>2021-04-05T09:03:59Z</time>
      </trkpt>
      <trkpt lat="43.46513" lon="6.4749">
        <ele>131.8</ele>
        <time>2021-04-05T09:04:04Z</time>
      </trkpt>
      <trkpt lat="43.46509" lon="6.47486">
        <ele>131.9</ele>
        <time>2021-04-05T09:04:09Z</time>
      </trkpt>
      <trkpt lat="43.46505" lon="6.47481">
        <ele>132.3</ele>
        <time>2021-04-05T09:04:16Z</time>
      </trkpt>
      <trkpt lat="43.46502" lon="6.47476">
        <ele>132.4</ele>
        <time>2021-04-05T09:04:21Z</time>
      </trkpt>
      <trkpt lat="43.46498" lon="6.47472">
        <ele>132.8</ele>
        <time>2021-04-05T09:04:29Z</time>
      </trkpt>
      <trkpt lat="43.46493" lon="6.47469">
        <ele>133</ele>
        <time>2021-04-05T09:04:34Z</time>
      </trkpt>
      <trkpt lat="43.46491" lon="6.47463">
        <ele>133.2</ele>
        <time>2021-04-05T09:04:41Z</time>
      </trkpt>
      <trkpt lat="43.46489" lon="6.47457">
        <ele>133.5</ele>
        <time>2021-04-05T09:04:53Z</time>
      </trkpt>
      <trkpt lat="43.4649" lon="6.4745">
        <ele>133.5</ele>
        <time>2021-04-05T09:05:13Z</time>
      </trkpt>
      <trkpt lat="43.46488" lon="6.47444">
        <ele>133.7</ele>
        <time>2021-04-05T09:05:19Z</time>
      </trkpt>
      <trkpt lat="43.46489" lon="6.47437">
        <ele>133.8</ele>
        <time>2021-04-05T09:05:27Z</time>
      </trkpt>
      <trkpt lat="43.46485" lon="6.47433">
        <ele>132.8</ele>
        <time>2021-04-05T09:05:55Z</time>
      </trkpt>
      <trkpt lat="43.46484" lon="6.47427">
        <ele>132.4</ele>
        <time>2021-04-05T09:06:19Z</time>
      </trkpt>
      <trkpt lat="43.46482" lon="6.47421">
        <ele>132.7</ele>
        <time>2021-04-05T09:06:24Z</time>
      </trkpt>
      <trkpt lat="43.46482" lon="6.47414">
        <ele>133</ele>
        <time>2021-04-05T09:06:29Z</time>
      </trkpt>
      <trkpt lat="43.4648" lon="6.47407">
        <ele>133.3</ele>
        <time>2021-04-05T09:06:35Z</time>
      </trkpt>
      <trkpt lat="43.46478" lon="6.474">
        <ele>133.2</ele>
        <time>2021-04-05T09:06:40Z</time>
      </trkpt>
      <trkpt lat="43.46477" lon="6.47393">
        <ele>133.5</ele>
        <time>2021-04-05T09:06:46Z</time>
      </trkpt>
      <trkpt lat="43.46477" lon="6.47386">
        <ele>133.6</ele>
        <time>2021-04-05T09:06:51Z</time>
      </trkpt>
      <trkpt lat="43.46479" lon="6.47378">
        <ele>133.6</ele>
        <time>2021-04-05T09:06:54Z</time>
      </trkpt>
      <trkpt lat="43.46477" lon="6.47372">
        <ele>133.5</ele>
        <time>2021-04-05T09:06:59Z</time>
      </trkpt>
      <trkpt lat="43.46474" lon="6.47366">
        <ele>133.3</ele>
        <time>2021-04-05T09:07:04Z</time>
      </trkpt>
      <trkpt lat="43.46472" lon="6.4736">
        <ele>133.2</ele>
        <time>2021-04-05T09:07:09Z</time>
      </trkpt>
      <trkpt lat="43.4647" lon="6.47353">
        <ele>133.2</ele>
        <time>2021-04-05T09:07:14Z</time>
      </trkpt>
      <trkpt lat="43.4647" lon="6.47346">
        <ele>133.2</ele>
        <time>2021-04-05T09:07:20Z</time>
      </trkpt>
      <trkpt lat="43.4647" lon="6.47339">
        <ele>133.4</ele>
        <time>2021-04-05T09:07:27Z</time>
      </trkpt>
      <trkpt lat="43.46471" lon="6.47333">
        <ele>133.5</ele>
        <time>2021-04-05T09:07:32Z</time>
      </trkpt>
      <trkpt lat="43.46472" lon="6.47326">
        <ele>133.5</ele>
        <time>2021-04-05T09:07:38Z</time>
      </trkpt>
      <trkpt lat="43.46473" lon="6.47319">
        <ele>133.9</ele>
        <time>2021-04-05T09:07:56Z</time>
      </trkpt>
      <trkpt lat="43.46474" lon="6.47313">
        <ele>133.9</ele>
        <time>2021-04-05T09:08:01Z</time>
      </trkpt>
      <trkpt lat="43.46477" lon="6.47307">
        <ele>133.7</ele>
        <time>2021-04-05T09:08:06Z</time>
      </trkpt>
      <trkpt lat="43.46479" lon="6.47301">
        <ele>133.7</ele>
        <time>2021-04-05T09:08:11Z</time>
      </trkpt>
      <trkpt lat="43.46481" lon="6.47295">
        <ele>133.9</ele>
        <time>2021-04-05T09:08:17Z</time>
      </trkpt>
      <trkpt lat="43.46484" lon="6.4729">
        <ele>134.2</ele>
        <time>2021-04-05T09:08:24Z</time>
      </trkpt>
      <trkpt lat="43.46485" lon="6.47284">
        <ele>134.2</ele>
        <time>2021-04-05T09:08:38Z</time>
      </trkpt>
      <trkpt lat="43.4649" lon="6.47285">
        <ele>134.6</ele>
        <time>2021-04-05T09:08:44Z</time>
      </trkpt>
      <trkpt lat="43.46495" lon="6.47287">
        <ele>134.5</ele>
        <time>2021-04-05T09:08:50Z</time>
      </trkpt>
      <trkpt lat="43.46498" lon="6.47292">
        <ele>133.9</ele>
        <time>2021-04-05T09:08:57Z</time>
      </trkpt>
      <trkpt lat="43.46503" lon="6.47291">
        <ele>133.7</ele>
        <time>2021-04-05T09:09:06Z</time>
      </trkpt>
      <trkpt lat="43.46507" lon="6.47286">
        <ele>133.3</ele>
        <time>2021-04-05T09:09:12Z</time>
      </trkpt>
      <trkpt lat="43.46509" lon="6.4728">
        <ele>132.9</ele>
        <time>2021-04-05T09:09:17Z</time>
      </trkpt>
      <trkpt lat="43.46511" lon="6.47274">
        <ele>132.3</ele>
        <time>2021-04-05T09:09:23Z</time>
      </trkpt>
      <trkpt lat="43.46513" lon="6.47268">
        <ele>132.1</ele>
        <time>2021-04-05T09:09:31Z</time>
      </trkpt>
      <trkpt lat="43.46514" lon="6.47262">
        <ele>131.8</ele>
        <time>2021-04-05T09:09:38Z</time>
      </trkpt>
      <trkpt lat="43.46512" lon="6.47257">
        <ele>131.5</ele>
        <time>2021-04-05T09:10:15Z</time>
      </trkpt>
      <trkpt lat="43.46513" lon="6.47251">
        <ele>131.7</ele>
        <time>2021-04-05T09:10:48Z</time>
      </trkpt>
      <trkpt lat="43.46515" lon="6.47245">
        <ele>131.7</ele>
        <time>2021-04-05T09:11:01Z</time>
      </trkpt>
      <trkpt lat="43.46518" lon="6.4724">
        <ele>132.1</ele>
        <time>2021-04-05T09:11:06Z</time>
      </trkpt>
      <trkpt lat="43.46519" lon="6.47234">
        <ele>132.3</ele>
        <time>2021-04-05T09:11:11Z</time>
      </trkpt>
      <trkpt lat="43.46521" lon="6.47227">
        <ele>132.4</ele>
        <time>2021-04-05T09:11:18Z</time>
      </trkpt>
      <trkpt lat="43.46521" lon="6.4722">
        <ele>132.7</ele>
        <time>2021-04-05T09:11:30Z</time>
      </trkpt>
      <trkpt lat="43.46521" lon="6.47214">
        <ele>132.6</ele>
        <time>2021-04-05T09:11:40Z</time>
      </trkpt>
      <trkpt lat="43.46524" lon="6.47208">
        <ele>132.3</ele>
        <time>2021-04-05T09:11:46Z</time>
      </trkpt>
      <trkpt lat="43.46526" lon="6.47202">
        <ele>132.5</ele>
        <time>2021-04-05T09:11:52Z</time>
      </trkpt>
      <trkpt lat="43.4653" lon="6.47198">
        <ele>133</ele>
        <time>2021-04-05T09:11:59Z</time>
      </trkpt>
      <trkpt lat="43.46533" lon="6.47194">
        <ele>133.3</ele>
        <time>2021-04-05T09:12:05Z</time>
      </trkpt>
      <trkpt lat="43.46537" lon="6.47191">
        <ele>133.3</ele>
        <time>2021-04-05T09:12:11Z</time>
      </trkpt>
      <trkpt lat="43.4654" lon="6.47185">
        <ele>133.5</ele>
        <time>2021-04-05T09:12:15Z</time>
      </trkpt>
      <trkpt lat="43.46542" lon="6.4718">
        <ele>133.9</ele>
        <time>2021-04-05T09:12:21Z</time>
      </trkpt>
      <trkpt lat="43.46545" lon="6.47174">
        <ele>133.6</ele>
        <time>2021-04-05T09:12:29Z</time>
      </trkpt>
      <trkpt lat="43.4655" lon="6.47173">
        <ele>133.4</ele>
        <time>2021-04-05T09:12:37Z</time>
      </trkpt>
      <trkpt lat="43.46554" lon="6.47169">
        <ele>133.4</ele>
        <time>2021-04-05T09:12:46Z</time>
      </trkpt>
      <trkpt lat="43.46557" lon="6.47165">
        <ele>133.3</ele>
        <time>2021-04-05T09:12:53Z</time>
      </trkpt>
      <trkpt lat="43.46561" lon="6.47161">
        <ele>133.2</ele>
        <time>2021-04-05T09:13:00Z</time>
      </trkpt>
      <trkpt lat="43.4656" lon="6.47154">
        <ele>133</ele>
        <time>2021-04-05T09:13:06Z</time>
      </trkpt>
      <trkpt lat="43.4656" lon="6.47148">
        <ele>133.2</ele>
        <time>2021-04-05T09:13:12Z</time>
      </trkpt>
      <trkpt lat="43.46558" lon="6.47142">
        <ele>134</ele>
        <time>2021-04-05T09:13:25Z</time>
      </trkpt>
      <trkpt lat="43.46558" lon="6.47135">
        <ele>134</ele>
        <time>2021-04-05T09:13:32Z</time>
      </trkpt>
      <trkpt lat="43.4656" lon="6.47129">
        <ele>134.2</ele>
        <time>2021-04-05T09:13:39Z</time>
      </trkpt>
      <trkpt lat="43.46559" lon="6.47122">
        <ele>134.8</ele>
        <time>2021-04-05T09:14:16Z</time>
      </trkpt>
      <trkpt lat="43.46561" lon="6.47116">
        <ele>134.9</ele>
        <time>2021-04-05T09:14:30Z</time>
      </trkpt>
      <trkpt lat="43.46563" lon="6.4711">
        <ele>135.1</ele>
        <time>2021-04-05T09:14:39Z</time>
      </trkpt>
      <trkpt lat="43.46566" lon="6.47105">
        <ele>135.6</ele>
        <time>2021-04-05T09:15:06Z</time>
      </trkpt>
      <trkpt lat="43.46569" lon="6.47099">
        <ele>136</ele>
        <time>2021-04-05T09:18:24Z</time>
      </trkpt>
      <trkpt lat="43.46572" lon="6.47095">
        <ele>135.4</ele>
        <time>2021-04-05T09:19:11Z</time>
      </trkpt>
      <trkpt lat="43.46576" lon="6.47089">
        <ele>135.2</ele>
        <time>2021-04-05T09:19:18Z</time>
      </trkpt>
      <trkpt lat="43.46579" lon="6.47084">
        <ele>134.9</ele>
        <time>2021-04-05T09:19:25Z</time>
      </trkpt>
      <trkpt lat="43.46583" lon="6.4708">
        <ele>134.6</ele>
        <time>2021-04-05T09:19:32Z</time>
      </trkpt>
      <trkpt lat="43.46587" lon="6.47076">
        <ele>134.5</ele>
        <time>2021-04-05T09:19:38Z</time>
      </trkpt>
      <trkpt lat="43.46591" lon="6.47073">
        <ele>134.4</ele>
        <time>2021-04-05T09:19:45Z</time>
      </trkpt>
      <trkpt lat="43.46596" lon="6.47069">
        <ele>134.3</ele>
        <time>2021-04-05T09:19:52Z</time>
      </trkpt>
      <trkpt lat="43.46599" lon="6.47064">
        <ele>134</ele>
        <time>2021-04-05T09:19:58Z</time>
      </trkpt>
      <trkpt lat="43.46603" lon="6.4706">
        <ele>133.9</ele>
        <time>2021-04-05T09:20:03Z</time>
      </trkpt>
      <trkpt lat="43.46606" lon="6.47054">
        <ele>134</ele>
        <time>2021-04-05T09:20:08Z</time>
      </trkpt>
      <trkpt lat="43.4661" lon="6.47051">
        <ele>134.1</ele>
        <time>2021-04-05T09:20:14Z</time>
      </trkpt>
      <trkpt lat="43.46615" lon="6.47048">
        <ele>134.1</ele>
        <time>2021-04-05T09:20:20Z</time>
      </trkpt>
      <trkpt lat="43.46619" lon="6.47043">
        <ele>134.2</ele>
        <time>2021-04-05T09:20:25Z</time>
      </trkpt>
      <trkpt lat="43.46623" lon="6.47039">
        <ele>134.5</ele>
        <time>2021-04-05T09:20:30Z</time>
      </trkpt>
      <trkpt lat="43.46626" lon="6.47033">
        <ele>134.7</ele>
        <time>2021-04-05T09:20:35Z</time>
      </trkpt>
      <trkpt lat="43.46631" lon="6.47029">
        <ele>134.6</ele>
        <time>2021-04-05T09:20:41Z</time>
      </trkpt>
      <trkpt lat="43.46635" lon="6.47026">
        <ele>134.6</ele>
        <time>2021-04-05T09:20:47Z</time>
      </trkpt>
      <trkpt lat="43.46639" lon="6.47022">
        <ele>134.6</ele>
        <time>2021-04-05T09:20:52Z</time>
      </trkpt>
      <trkpt lat="43.46644" lon="6.4702">
        <ele>134.8</ele>
        <time>2021-04-05T09:20:57Z</time>
      </trkpt>
      <trkpt lat="43.46648" lon="6.47017">
        <ele>134.8</ele>
        <time>2021-04-05T09:21:02Z</time>
      </trkpt>
      <trkpt lat="43.4665" lon="6.47011">
        <ele>134.9</ele>
        <time>2021-04-05T09:21:07Z</time>
      </trkpt>
      <trkpt lat="43.46652" lon="6.47004">
        <ele>134.8</ele>
        <time>2021-04-05T09:21:12Z</time>
      </trkpt>
      <trkpt lat="43.46653" lon="6.46997">
        <ele>134.6</ele>
        <time>2021-04-05T09:21:17Z</time>
      </trkpt>
      <trkpt lat="43.46651" lon="6.4699">
        <ele>134.9</ele>
        <time>2021-04-05T09:21:23Z</time>
      </trkpt>
      <trkpt lat="43.4665" lon="6.46983">
        <ele>134.9</ele>
        <time>2021-04-05T09:21:28Z</time>
      </trkpt>
      <trkpt lat="43.46647" lon="6.46978">
        <ele>135.2</ele>
        <time>2021-04-05T09:21:34Z</time>
      </trkpt>
      <trkpt lat="43.46645" lon="6.46972">
        <ele>135.2</ele>
        <time>2021-04-05T09:21:40Z</time>
      </trkpt>
      <trkpt lat="43.46644" lon="6.46965">
        <ele>135.1</ele>
        <time>2021-04-05T09:22:00Z</time>
      </trkpt>
      <trkpt lat="43.46643" lon="6.46959">
        <ele>134.8</ele>
        <time>2021-04-05T09:22:08Z</time>
      </trkpt>
      <trkpt lat="43.46643" lon="6.46952">
        <ele>134.8</ele>
        <time>2021-04-05T09:22:44Z</time>
      </trkpt>
      <trkpt lat="43.46644" lon="6.46946">
        <ele>135.3</ele>
        <time>2021-04-05T09:23:06Z</time>
      </trkpt>
      <trkpt lat="43.46641" lon="6.46941">
        <ele>135.4</ele>
        <time>2021-04-05T09:23:12Z</time>
      </trkpt>
      <trkpt lat="43.46638" lon="6.46936">
        <ele>135.4</ele>
        <time>2021-04-05T09:23:17Z</time>
      </trkpt>
      <trkpt lat="43.46636" lon="6.46931">
        <ele>135.4</ele>
        <time>2021-04-05T09:23:23Z</time>
      </trkpt>
      <trkpt lat="43.46632" lon="6.46926">
        <ele>135.5</ele>
        <time>2021-04-05T09:23:28Z</time>
      </trkpt>
      <trkpt lat="43.46629" lon="6.4692">
        <ele>135.5</ele>
        <time>2021-04-05T09:23:33Z</time>
      </trkpt>
      <trkpt lat="43.46626" lon="6.46915">
        <ele>135.4</ele>
        <time>2021-04-05T09:23:38Z</time>
      </trkpt>
      <trkpt lat="43.46623" lon="6.4691">
        <ele>135.5</ele>
        <time>2021-04-05T09:23:43Z</time>
      </trkpt>
      <trkpt lat="43.46619" lon="6.46903">
        <ele>135.6</ele>
        <time>2021-04-05T09:23:48Z</time>
      </trkpt>
      <trkpt lat="43.46616" lon="6.46898">
        <ele>135.6</ele>
        <time>2021-04-05T09:23:53Z</time>
      </trkpt>
      <trkpt lat="43.46615" lon="6.46891">
        <ele>135.6</ele>
        <time>2021-04-05T09:23:58Z</time>
      </trkpt>
      <trkpt lat="43.46613" lon="6.46885">
        <ele>135.8</ele>
        <time>2021-04-05T09:24:05Z</time>
      </trkpt>
      <trkpt lat="43.46616" lon="6.46879">
        <ele>135.7</ele>
        <time>2021-04-05T09:24:13Z</time>
      </trkpt>
      <trkpt lat="43.46621" lon="6.46879">
        <ele>135.8</ele>
        <time>2021-04-05T09:24:34Z</time>
      </trkpt>
      <trkpt lat="43.46625" lon="6.46876">
        <ele>135.7</ele>
        <time>2021-04-05T09:24:41Z</time>
      </trkpt>
      <trkpt lat="43.46628" lon="6.46871">
        <ele>135.5</ele>
        <time>2021-04-05T09:24:47Z</time>
      </trkpt>
      <trkpt lat="43.46632" lon="6.46866">
        <ele>135.7</ele>
        <time>2021-04-05T09:24:53Z</time>
      </trkpt>
      <trkpt lat="43.46637" lon="6.46864">
        <ele>135.6</ele>
        <time>2021-04-05T09:24:58Z</time>
      </trkpt>
      <trkpt lat="43.46641" lon="6.46861">
        <ele>135.7</ele>
        <time>2021-04-05T09:25:04Z</time>
      </trkpt>
      <trkpt lat="43.46645" lon="6.46858">
        <ele>135.7</ele>
        <time>2021-04-05T09:25:09Z</time>
      </trkpt>
      <trkpt lat="43.46649" lon="6.46854">
        <ele>135.6</ele>
        <time>2021-04-05T09:25:13Z</time>
      </trkpt>
      <trkpt lat="43.46653" lon="6.4685">
        <ele>135.6</ele>
        <time>2021-04-05T09:25:18Z</time>
      </trkpt>
      <trkpt lat="43.46657" lon="6.46846">
        <ele>135.5</ele>
        <time>2021-04-05T09:25:23Z</time>
      </trkpt>
      <trkpt lat="43.46661" lon="6.46842">
        <ele>135.4</ele>
        <time>2021-04-05T09:25:27Z</time>
      </trkpt>
      <trkpt lat="43.46665" lon="6.46837">
        <ele>135.3</ele>
        <time>2021-04-05T09:25:32Z</time>
      </trkpt>
      <trkpt lat="43.46669" lon="6.46833">
        <ele>135.3</ele>
        <time>2021-04-05T09:25:36Z</time>
      </trkpt>
      <trkpt lat="43.46674" lon="6.46828">
        <ele>135.3</ele>
        <time>2021-04-05T09:25:40Z</time>
      </trkpt>
      <trkpt lat="43.46678" lon="6.46825">
        <ele>135.3</ele>
        <time>2021-04-05T09:25:44Z</time>
      </trkpt>
      <trkpt lat="43.46682" lon="6.46821">
        <ele>135.3</ele>
        <time>2021-04-05T09:25:48Z</time>
      </trkpt>
      <trkpt lat="43.46687" lon="6.46817">
        <ele>135.5</ele>
        <time>2021-04-05T09:25:53Z</time>
      </trkpt>
      <trkpt lat="43.4669" lon="6.46813">
        <ele>135.8</ele>
        <time>2021-04-05T09:25:57Z</time>
      </trkpt>
      <trkpt lat="43.46694" lon="6.46809">
        <ele>135.9</ele>
        <time>2021-04-05T09:26:02Z</time>
      </trkpt>
      <trkpt lat="43.46698" lon="6.46805">
        <ele>136.1</ele>
        <time>2021-04-05T09:26:07Z</time>
      </trkpt>
      <trkpt lat="43.46699" lon="6.46798">
        <ele>135.8</ele>
        <time>2021-04-05T09:26:12Z</time>
      </trkpt>
      <trkpt lat="43.467" lon="6.46791">
        <ele>135.9</ele>
        <time>2021-04-05T09:26:17Z</time>
      </trkpt>
      <trkpt lat="43.467" lon="6.46783">
        <ele>136.1</ele>
        <time>2021-04-05T09:26:22Z</time>
      </trkpt>
      <trkpt lat="43.46701" lon="6.46777">
        <ele>136.5</ele>
        <time>2021-04-05T09:26:28Z</time>
      </trkpt>
      <trkpt lat="43.46703" lon="6.46771">
        <ele>136.8</ele>
        <time>2021-04-05T09:26:38Z</time>
      </trkpt>
      <trkpt lat="43.46704" lon="6.46764">
        <ele>137.1</ele>
        <time>2021-04-05T09:26:44Z</time>
      </trkpt>
      <trkpt lat="43.46705" lon="6.46758">
        <ele>137.2</ele>
        <time>2021-04-05T09:26:48Z</time>
      </trkpt>
      <trkpt lat="43.46706" lon="6.46751">
        <ele>137.6</ele>
        <time>2021-04-05T09:26:55Z</time>
      </trkpt>
      <trkpt lat="43.46709" lon="6.46747">
        <ele>137.6</ele>
        <time>2021-04-05T09:27:01Z</time>
      </trkpt>
      <trkpt lat="43.46709" lon="6.4674">
        <ele>138.6</ele>
        <time>2021-04-05T09:27:11Z</time>
      </trkpt>
      <trkpt lat="43.4671" lon="6.46734">
        <ele>139.2</ele>
        <time>2021-04-05T09:27:16Z</time>
      </trkpt>
      <trkpt lat="43.46712" lon="6.46727">
        <ele>139.8</ele>
        <time>2021-04-05T09:27:22Z</time>
      </trkpt>
      <trkpt lat="43.4671" lon="6.46721">
        <ele>140.5</ele>
        <time>2021-04-05T09:27:27Z</time>
      </trkpt>
      <trkpt lat="43.46706" lon="6.46717">
        <ele>141.9</ele>
        <time>2021-04-05T09:27:40Z</time>
      </trkpt>
      <trkpt lat="43.46701" lon="6.46717">
        <ele>142.2</ele>
        <time>2021-04-05T09:27:44Z</time>
      </trkpt>
      <trkpt lat="43.46696" lon="6.46717">
        <ele>142.7</ele>
        <time>2021-04-05T09:27:50Z</time>
      </trkpt>
      <trkpt lat="43.46691" lon="6.46717">
        <ele>142.9</ele>
        <time>2021-04-05T09:27:55Z</time>
      </trkpt>
      <trkpt lat="43.46686" lon="6.46716">
        <ele>142.8</ele>
        <time>2021-04-05T09:28:01Z</time>
      </trkpt>
      <trkpt lat="43.46684" lon="6.46709">
        <ele>142</ele>
        <time>2021-04-05T09:28:07Z</time>
      </trkpt>
      <trkpt lat="43.46679" lon="6.46709">
        <ele>142.5</ele>
        <time>2021-04-05T09:28:13Z</time>
      </trkpt>
      <trkpt lat="43.46674" lon="6.46712">
        <ele>142.1</ele>
        <time>2021-04-05T09:28:19Z</time>
      </trkpt>
      <trkpt lat="43.4667" lon="6.46709">
        <ele>141.9</ele>
        <time>2021-04-05T09:28:31Z</time>
      </trkpt>
      <trkpt lat="43.46665" lon="6.4671">
        <ele>141.8</ele>
        <time>2021-04-05T09:28:38Z</time>
      </trkpt>
      <trkpt lat="43.4666" lon="6.46711">
        <ele>141.6</ele>
        <time>2021-04-05T09:28:41Z</time>
      </trkpt>
      <trkpt lat="43.46655" lon="6.46711">
        <ele>141.4</ele>
        <time>2021-04-05T09:28:44Z</time>
      </trkpt>
      <trkpt lat="43.46649" lon="6.46713">
        <ele>141.3</ele>
        <time>2021-04-05T09:28:48Z</time>
      </trkpt>
      <trkpt lat="43.46645" lon="6.46715">
        <ele>141.1</ele>
        <time>2021-04-05T09:28:52Z</time>
      </trkpt>
      <trkpt lat="43.4664" lon="6.46717">
        <ele>141.1</ele>
        <time>2021-04-05T09:28:56Z</time>
      </trkpt>
      <trkpt lat="43.46635" lon="6.46717">
        <ele>141.1</ele>
        <time>2021-04-05T09:29:00Z</time>
      </trkpt>
      <trkpt lat="43.4663" lon="6.46718">
        <ele>141.2</ele>
        <time>2021-04-05T09:29:04Z</time>
      </trkpt>
      <trkpt lat="43.46626" lon="6.46722">
        <ele>141.3</ele>
        <time>2021-04-05T09:29:08Z</time>
      </trkpt>
      <trkpt lat="43.46621" lon="6.46723">
        <ele>141.3</ele>
        <time>2021-04-05T09:29:14Z</time>
      </trkpt>
      <trkpt lat="43.46615" lon="6.46727">
        <ele>141.5</ele>
        <time>2021-04-05T09:29:19Z</time>
      </trkpt>
      <trkpt lat="43.4661" lon="6.46729">
        <ele>141.6</ele>
        <time>2021-04-05T09:29:23Z</time>
      </trkpt>
      <trkpt lat="43.46605" lon="6.4673">
        <ele>141.7</ele>
        <time>2021-04-05T09:29:29Z</time>
      </trkpt>
      <trkpt lat="43.466" lon="6.46731">
        <ele>141.7</ele>
        <time>2021-04-05T09:29:34Z</time>
      </trkpt>
      <trkpt lat="43.46595" lon="6.46733">
        <ele>141.6</ele>
        <time>2021-04-05T09:29:40Z</time>
      </trkpt>
      <trkpt lat="43.46591" lon="6.46735">
        <ele>141.7</ele>
        <time>2021-04-05T09:29:44Z</time>
      </trkpt>
      <trkpt lat="43.46586" lon="6.46738">
        <ele>141.9</ele>
        <time>2021-04-05T09:29:49Z</time>
      </trkpt>
      <trkpt lat="43.46581" lon="6.46738">
        <ele>142</ele>
        <time>2021-04-05T09:29:53Z</time>
      </trkpt>
      <trkpt lat="43.46576" lon="6.46739">
        <ele>142.1</ele>
        <time>2021-04-05T09:29:58Z</time>
      </trkpt>
      <trkpt lat="43.46572" lon="6.46741">
        <ele>142.5</ele>
        <time>2021-04-05T09:30:02Z</time>
      </trkpt>
      <trkpt lat="43.46567" lon="6.46742">
        <ele>142.6</ele>
        <time>2021-04-05T09:30:07Z</time>
      </trkpt>
      <trkpt lat="43.46562" lon="6.46746">
        <ele>143</ele>
        <time>2021-04-05T09:30:14Z</time>
      </trkpt>
      <trkpt lat="43.46558" lon="6.4675">
        <ele>143.2</ele>
        <time>2021-04-05T09:30:19Z</time>
      </trkpt>
      <trkpt lat="43.46558" lon="6.46743">
        <ele>143.6</ele>
        <time>2021-04-05T09:30:42Z</time>
      </trkpt>
      <trkpt lat="43.46558" lon="6.46736">
        <ele>144.2</ele>
        <time>2021-04-05T09:30:49Z</time>
      </trkpt>
      <trkpt lat="43.46558" lon="6.4673">
        <ele>149.1</ele>
        <time>2021-04-05T09:31:32Z</time>
      </trkpt>
      <trkpt lat="43.46556" lon="6.46724">
        <ele>150</ele>
        <time>2021-04-05T09:31:37Z</time>
      </trkpt>
      <trkpt lat="43.46556" lon="6.46717">
        <ele>151</ele>
        <time>2021-04-05T09:31:46Z</time>
      </trkpt>
      <trkpt lat="43.46558" lon="6.46712">
        <ele>152</ele>
        <time>2021-04-05T09:31:53Z</time>
      </trkpt>
      <trkpt lat="43.4656" lon="6.46706">
        <ele>153.6</ele>
        <time>2021-04-05T09:32:04Z</time>
      </trkpt>
      <trkpt lat="43.46563" lon="6.46701">
        <ele>156.1</ele>
        <time>2021-04-05T09:32:22Z</time>
      </trkpt>
      <trkpt lat="43.46567" lon="6.46696">
        <ele>157.3</ele>
        <time>2021-04-05T09:32:32Z</time>
      </trkpt>
      <trkpt lat="43.4657" lon="6.46692">
        <ele>158.2</ele>
        <time>2021-04-05T09:32:43Z</time>
      </trkpt>
      <trkpt lat="43.46574" lon="6.46688">
        <ele>159.2</ele>
        <time>2021-04-05T09:32:52Z</time>
      </trkpt>
      <trkpt lat="43.46577" lon="6.46683">
        <ele>160.8</ele>
        <time>2021-04-05T09:33:13Z</time>
      </trkpt>
      <trkpt lat="43.46578" lon="6.46676">
        <ele>161.7</ele>
        <time>2021-04-05T09:33:20Z</time>
      </trkpt>
      <trkpt lat="43.46579" lon="6.4667">
        <ele>162.9</ele>
        <time>2021-04-05T09:33:29Z</time>
      </trkpt>
      <trkpt lat="43.46582" lon="6.46665">
        <ele>163.3</ele>
        <time>2021-04-05T09:33:33Z</time>
      </trkpt>
      <trkpt lat="43.46583" lon="6.46658">
        <ele>164.4</ele>
        <time>2021-04-05T09:33:44Z</time>
      </trkpt>
      <trkpt lat="43.46586" lon="6.46653">
        <ele>165.5</ele>
        <time>2021-04-05T09:33:53Z</time>
      </trkpt>
      <trkpt lat="43.46591" lon="6.46651">
        <ele>167.1</ele>
        <time>2021-04-05T09:34:02Z</time>
      </trkpt>
      <trkpt lat="43.46595" lon="6.46648">
        <ele>168.4</ele>
        <time>2021-04-05T09:34:11Z</time>
      </trkpt>
      <trkpt lat="43.46599" lon="6.46644">
        <ele>169.2</ele>
        <time>2021-04-05T09:34:19Z</time>
      </trkpt>
      <trkpt lat="43.46603" lon="6.46641">
        <ele>170.6</ele>
        <time>2021-04-05T09:34:32Z</time>
      </trkpt>
      <trkpt lat="43.46607" lon="6.46637">
        <ele>171.6</ele>
        <time>2021-04-05T09:34:42Z</time>
      </trkpt>
      <trkpt lat="43.4661" lon="6.46632">
        <ele>172.2</ele>
        <time>2021-04-05T09:34:49Z</time>
      </trkpt>
      <trkpt lat="43.46614" lon="6.46628">
        <ele>173.6</ele>
        <time>2021-04-05T09:35:01Z</time>
      </trkpt>
      <trkpt lat="43.46618" lon="6.46623">
        <ele>174</ele>
        <time>2021-04-05T09:35:05Z</time>
      </trkpt>
      <trkpt lat="43.46621" lon="6.46618">
        <ele>174.5</ele>
        <time>2021-04-05T09:35:10Z</time>
      </trkpt>
      <trkpt lat="43.46624" lon="6.46612">
        <ele>175.5</ele>
        <time>2021-04-05T09:35:20Z</time>
      </trkpt>
      <trkpt lat="43.46627" lon="6.46607">
        <ele>175.9</ele>
        <time>2021-04-05T09:35:25Z</time>
      </trkpt>
      <trkpt lat="43.46631" lon="6.46601">
        <ele>176.4</ele>
        <time>2021-04-05T09:35:30Z</time>
      </trkpt>
      <trkpt lat="43.46634" lon="6.46598">
        <ele>177.5</ele>
        <time>2021-04-05T09:35:41Z</time>
      </trkpt>
      <trkpt lat="43.46638" lon="6.46594">
        <ele>178.5</ele>
        <time>2021-04-05T09:35:51Z</time>
      </trkpt>
      <trkpt lat="43.46642" lon="6.46589">
        <ele>179.1</ele>
        <time>2021-04-05T09:35:56Z</time>
      </trkpt>
      <trkpt lat="43.46645" lon="6.46583">
        <ele>179.6</ele>
        <time>2021-04-05T09:36:02Z</time>
      </trkpt>
      <trkpt lat="43.46649" lon="6.46579">
        <ele>180.1</ele>
        <time>2021-04-05T09:36:08Z</time>
      </trkpt>
      <trkpt lat="43.46651" lon="6.46572">
        <ele>180.4</ele>
        <time>2021-04-05T09:36:16Z</time>
      </trkpt>
      <trkpt lat="43.46655" lon="6.46568">
        <ele>180.8</ele>
        <time>2021-04-05T09:36:23Z</time>
      </trkpt>
      <trkpt lat="43.46659" lon="6.46564">
        <ele>181.5</ele>
        <time>2021-04-05T09:36:29Z</time>
      </trkpt>
      <trkpt lat="43.46661" lon="6.46559">
        <ele>182.3</ele>
        <time>2021-04-05T09:36:38Z</time>
      </trkpt>
      <trkpt lat="43.46665" lon="6.46555">
        <ele>182.9</ele>
        <time>2021-04-05T09:36:46Z</time>
      </trkpt>
      <trkpt lat="43.46668" lon="6.4655">
        <ele>184</ele>
        <time>2021-04-05T09:36:54Z</time>
      </trkpt>
      <trkpt lat="43.46672" lon="6.46545">
        <ele>184.9</ele>
        <time>2021-04-05T09:37:02Z</time>
      </trkpt>
      <trkpt lat="43.46675" lon="6.4654">
        <ele>185.5</ele>
        <time>2021-04-05T09:37:09Z</time>
      </trkpt>
      <trkpt lat="43.46676" lon="6.46533">
        <ele>186</ele>
        <time>2021-04-05T09:37:16Z</time>
      </trkpt>
      <trkpt lat="43.46678" lon="6.46527">
        <ele>186.7</ele>
        <time>2021-04-05T09:37:21Z</time>
      </trkpt>
      <trkpt lat="43.46681" lon="6.46522">
        <ele>187.4</ele>
        <time>2021-04-05T09:37:26Z</time>
      </trkpt>
      <trkpt lat="43.46684" lon="6.46516">
        <ele>187.8</ele>
        <time>2021-04-05T09:37:30Z</time>
      </trkpt>
      <trkpt lat="43.46686" lon="6.4651">
        <ele>188.3</ele>
        <time>2021-04-05T09:37:34Z</time>
      </trkpt>
      <trkpt lat="43.46687" lon="6.46503">
        <ele>188.7</ele>
        <time>2021-04-05T09:37:38Z</time>
      </trkpt>
      <trkpt lat="43.4669" lon="6.46496">
        <ele>188.9</ele>
        <time>2021-04-05T09:37:42Z</time>
      </trkpt>
      <trkpt lat="43.46693" lon="6.46491">
        <ele>189</ele>
        <time>2021-04-05T09:37:46Z</time>
      </trkpt>
      <trkpt lat="43.46696" lon="6.46486">
        <ele>189.2</ele>
        <time>2021-04-05T09:37:51Z</time>
      </trkpt>
      <trkpt lat="43.46697" lon="6.46479">
        <ele>189.2</ele>
        <time>2021-04-05T09:37:56Z</time>
      </trkpt>
      <trkpt lat="43.46697" lon="6.46472">
        <ele>189.2</ele>
        <time>2021-04-05T09:38:00Z</time>
      </trkpt>
      <trkpt lat="43.46698" lon="6.46464">
        <ele>189.5</ele>
        <time>2021-04-05T09:38:05Z</time>
      </trkpt>
      <trkpt lat="43.46701" lon="6.46459">
        <ele>189.9</ele>
        <time>2021-04-05T09:38:09Z</time>
      </trkpt>
      <trkpt lat="43.467" lon="6.46453">
        <ele>190.3</ele>
        <time>2021-04-05T09:38:14Z</time>
      </trkpt>
      <trkpt lat="43.46702" lon="6.46446">
        <ele>190.9</ele>
        <time>2021-04-05T09:38:19Z</time>
      </trkpt>
      <trkpt lat="43.46699" lon="6.4644">
        <ele>191.4</ele>
        <time>2021-04-05T09:38:26Z</time>
      </trkpt>
      <trkpt lat="43.46696" lon="6.46436">
        <ele>191.7</ele>
        <time>2021-04-05T09:38:35Z</time>
      </trkpt>
      <trkpt lat="43.46694" lon="6.4643">
        <ele>192</ele>
        <time>2021-04-05T09:38:45Z</time>
      </trkpt>
      <trkpt lat="43.46695" lon="6.46424">
        <ele>192.5</ele>
        <time>2021-04-05T09:39:28Z</time>
      </trkpt>
      <trkpt lat="43.46696" lon="6.4643">
        <ele>192.3</ele>
        <time>2021-04-05T09:39:42Z</time>
      </trkpt>
      <trkpt lat="43.46691" lon="6.46427">
        <ele>192.5</ele>
        <time>2021-04-05T09:40:20Z</time>
      </trkpt>
      <trkpt lat="43.46687" lon="6.46428">
        <ele>193.6</ele>
        <time>2021-04-05T09:40:59Z</time>
      </trkpt>
      <trkpt lat="43.46691" lon="6.46431">
        <ele>193</ele>
        <time>2021-04-05T09:41:17Z</time>
      </trkpt>
      <trkpt lat="43.46686" lon="6.46429">
        <ele>192.8</ele>
        <time>2021-04-05T09:41:41Z</time>
      </trkpt>
      <trkpt lat="43.46682" lon="6.46426">
        <ele>194.3</ele>
        <time>2021-04-05T09:41:57Z</time>
      </trkpt>
      <trkpt lat="43.46678" lon="6.46423">
        <ele>194.8</ele>
        <time>2021-04-05T09:42:05Z</time>
      </trkpt>
      <trkpt lat="43.46673" lon="6.46421">
        <ele>195.3</ele>
        <time>2021-04-05T09:42:09Z</time>
      </trkpt>
      <trkpt lat="43.46668" lon="6.46421">
        <ele>195.7</ele>
        <time>2021-04-05T09:42:12Z</time>
      </trkpt>
      <trkpt lat="43.46664" lon="6.4642">
        <ele>196.3</ele>
        <time>2021-04-05T09:42:17Z</time>
      </trkpt>
      <trkpt lat="43.46659" lon="6.46418">
        <ele>197.2</ele>
        <time>2021-04-05T09:42:23Z</time>
      </trkpt>
      <trkpt lat="43.46655" lon="6.46416">
        <ele>197.9</ele>
        <time>2021-04-05T09:42:32Z</time>
      </trkpt>
      <trkpt lat="43.4665" lon="6.46417">
        <ele>199.2</ele>
        <time>2021-04-05T09:42:43Z</time>
      </trkpt>
      <trkpt lat="43.46646" lon="6.46412">
        <ele>200.3</ele>
        <time>2021-04-05T09:42:51Z</time>
      </trkpt>
      <trkpt lat="43.46642" lon="6.46409">
        <ele>201</ele>
        <time>2021-04-05T09:42:56Z</time>
      </trkpt>
      <trkpt lat="43.46637" lon="6.46408">
        <ele>201.6</ele>
        <time>2021-04-05T09:43:02Z</time>
      </trkpt>
      <trkpt lat="43.46633" lon="6.46404">
        <ele>202.3</ele>
        <time>2021-04-05T09:43:08Z</time>
      </trkpt>
      <trkpt lat="43.46628" lon="6.46402">
        <ele>202.8</ele>
        <time>2021-04-05T09:43:17Z</time>
      </trkpt>
      <trkpt lat="43.46623" lon="6.46399">
        <ele>203.5</ele>
        <time>2021-04-05T09:43:23Z</time>
      </trkpt>
      <trkpt lat="43.46619" lon="6.46397">
        <ele>204.7</ele>
        <time>2021-04-05T09:43:31Z</time>
      </trkpt>
      <trkpt lat="43.46614" lon="6.46395">
        <ele>205.3</ele>
        <time>2021-04-05T09:43:37Z</time>
      </trkpt>
      <trkpt lat="43.4661" lon="6.46392">
        <ele>205.9</ele>
        <time>2021-04-05T09:43:44Z</time>
      </trkpt>
      <trkpt lat="43.46605" lon="6.46391">
        <ele>206.4</ele>
        <time>2021-04-05T09:43:50Z</time>
      </trkpt>
      <trkpt lat="43.466" lon="6.46389">
        <ele>207.1</ele>
        <time>2021-04-05T09:43:56Z</time>
      </trkpt>
      <trkpt lat="43.46596" lon="6.46388">
        <ele>207.6</ele>
        <time>2021-04-05T09:44:01Z</time>
      </trkpt>
      <trkpt lat="43.46592" lon="6.46384">
        <ele>208.3</ele>
        <time>2021-04-05T09:44:08Z</time>
      </trkpt>
      <trkpt lat="43.46586" lon="6.46382">
        <ele>208.9</ele>
        <time>2021-04-05T09:44:14Z</time>
      </trkpt>
      <trkpt lat="43.46582" lon="6.4638">
        <ele>209.4</ele>
        <time>2021-04-05T09:44:18Z</time>
      </trkpt>
      <trkpt lat="43.46578" lon="6.46376">
        <ele>209.9</ele>
        <time>2021-04-05T09:44:24Z</time>
      </trkpt>
      <trkpt lat="43.46575" lon="6.46371">
        <ele>210.3</ele>
        <time>2021-04-05T09:44:29Z</time>
      </trkpt>
      <trkpt lat="43.46572" lon="6.46366">
        <ele>211</ele>
        <time>2021-04-05T09:44:35Z</time>
      </trkpt>
      <trkpt lat="43.46569" lon="6.46361">
        <ele>211.4</ele>
        <time>2021-04-05T09:44:41Z</time>
      </trkpt>
      <trkpt lat="43.46565" lon="6.46357">
        <ele>211.8</ele>
        <time>2021-04-05T09:44:48Z</time>
      </trkpt>
      <trkpt lat="43.4656" lon="6.46353">
        <ele>212.4</ele>
        <time>2021-04-05T09:44:52Z</time>
      </trkpt>
      <trkpt lat="43.46556" lon="6.4635">
        <ele>213</ele>
        <time>2021-04-05T09:44:57Z</time>
      </trkpt>
      <trkpt lat="43.46552" lon="6.46346">
        <ele>213.5</ele>
        <time>2021-04-05T09:45:02Z</time>
      </trkpt>
      <trkpt lat="43.46547" lon="6.46347">
        <ele>213.8</ele>
        <time>2021-04-05T09:45:17Z</time>
      </trkpt>
      <trkpt lat="43.46543" lon="6.46344">
        <ele>214.3</ele>
        <time>2021-04-05T09:45:25Z</time>
      </trkpt>
      <trkpt lat="43.4654" lon="6.46338">
        <ele>214.6</ele>
        <time>2021-04-05T09:45:31Z</time>
      </trkpt>
      <trkpt lat="43.46538" lon="6.46333">
        <ele>215.1</ele>
        <time>2021-04-05T09:45:36Z</time>
      </trkpt>
      <trkpt lat="43.46537" lon="6.46327">
        <ele>215.4</ele>
        <time>2021-04-05T09:45:41Z</time>
      </trkpt>
      <trkpt lat="43.46536" lon="6.46319">
        <ele>215.7</ele>
        <time>2021-04-05T09:45:46Z</time>
      </trkpt>
      <trkpt lat="43.46534" lon="6.46313">
        <ele>216</ele>
        <time>2021-04-05T09:45:51Z</time>
      </trkpt>
      <trkpt lat="43.46532" lon="6.46307">
        <ele>216.2</ele>
        <time>2021-04-05T09:45:56Z</time>
      </trkpt>
      <trkpt lat="43.46532" lon="6.463">
        <ele>216.6</ele>
        <time>2021-04-05T09:46:02Z</time>
      </trkpt>
      <trkpt lat="43.46533" lon="6.46293">
        <ele>216.7</ele>
        <time>2021-04-05T09:46:08Z</time>
      </trkpt>
      <trkpt lat="43.46534" lon="6.46286">
        <ele>216.6</ele>
        <time>2021-04-05T09:46:14Z</time>
      </trkpt>
      <trkpt lat="43.46532" lon="6.4628">
        <ele>216.7</ele>
        <time>2021-04-05T09:46:21Z</time>
      </trkpt>
      <trkpt lat="43.4653" lon="6.46274">
        <ele>217.1</ele>
        <time>2021-04-05T09:46:27Z</time>
      </trkpt>
      <trkpt lat="43.46527" lon="6.46268">
        <ele>217.2</ele>
        <time>2021-04-05T09:46:33Z</time>
      </trkpt>
      <trkpt lat="43.46525" lon="6.46262">
        <ele>217.2</ele>
        <time>2021-04-05T09:46:38Z</time>
      </trkpt>
      <trkpt lat="43.46522" lon="6.46256">
        <ele>217.8</ele>
        <time>2021-04-05T09:46:43Z</time>
      </trkpt>
      <trkpt lat="43.46519" lon="6.46251">
        <ele>218.1</ele>
        <time>2021-04-05T09:46:48Z</time>
      </trkpt>
      <trkpt lat="43.46515" lon="6.46245">
        <ele>218.4</ele>
        <time>2021-04-05T09:46:55Z</time>
      </trkpt>
      <trkpt lat="43.46511" lon="6.46242">
        <ele>218.8</ele>
        <time>2021-04-05T09:47:01Z</time>
      </trkpt>
      <trkpt lat="43.46507" lon="6.46238">
        <ele>218.8</ele>
        <time>2021-04-05T09:47:17Z</time>
      </trkpt>
      <trkpt lat="43.46502" lon="6.46235">
        <ele>218.8</ele>
        <time>2021-04-05T09:47:27Z</time>
      </trkpt>
      <trkpt lat="43.46497" lon="6.46233">
        <ele>218.8</ele>
        <time>2021-04-05T09:47:32Z</time>
      </trkpt>
      <trkpt lat="43.46493" lon="6.46229">
        <ele>218.5</ele>
        <time>2021-04-05T09:47:40Z</time>
      </trkpt>
      <trkpt lat="43.46488" lon="6.46227">
        <ele>218.2</ele>
        <time>2021-04-05T09:47:46Z</time>
      </trkpt>
      <trkpt lat="43.46484" lon="6.46224">
        <ele>218.2</ele>
        <time>2021-04-05T09:47:52Z</time>
      </trkpt>
      <trkpt lat="43.46479" lon="6.46225">
        <ele>218</ele>
        <time>2021-04-05T09:47:58Z</time>
      </trkpt>
      <trkpt lat="43.46475" lon="6.46228">
        <ele>217.9</ele>
        <time>2021-04-05T09:48:03Z</time>
      </trkpt>
      <trkpt lat="43.46471" lon="6.46231">
        <ele>217.7</ele>
        <time>2021-04-05T09:48:10Z</time>
      </trkpt>
      <trkpt lat="43.46466" lon="6.46234">
        <ele>217.6</ele>
        <time>2021-04-05T09:48:14Z</time>
      </trkpt>
      <trkpt lat="43.46462" lon="6.46237">
        <ele>217.6</ele>
        <time>2021-04-05T09:48:19Z</time>
      </trkpt>
      <trkpt lat="43.46458" lon="6.4624">
        <ele>216.7</ele>
        <time>2021-04-05T09:48:26Z</time>
      </trkpt>
      <trkpt lat="43.46454" lon="6.46243">
        <ele>216.2</ele>
        <time>2021-04-05T09:48:31Z</time>
      </trkpt>
      <trkpt lat="43.46449" lon="6.46245">
        <ele>215.7</ele>
        <time>2021-04-05T09:48:37Z</time>
      </trkpt>
      <trkpt lat="43.46444" lon="6.46246">
        <ele>215.2</ele>
        <time>2021-04-05T09:48:42Z</time>
      </trkpt>
      <trkpt lat="43.4644" lon="6.46247">
        <ele>214.1</ele>
        <time>2021-04-05T09:48:50Z</time>
      </trkpt>
      <trkpt lat="43.46436" lon="6.46249">
        <ele>213.5</ele>
        <time>2021-04-05T09:48:58Z</time>
      </trkpt>
      <trkpt lat="43.46431" lon="6.46252">
        <ele>212.9</ele>
        <time>2021-04-05T09:49:05Z</time>
      </trkpt>
      <trkpt lat="43.46426" lon="6.46255">
        <ele>211.9</ele>
        <time>2021-04-05T09:49:11Z</time>
      </trkpt>
      <trkpt lat="43.46422" lon="6.46258">
        <ele>210.4</ele>
        <time>2021-04-05T09:49:19Z</time>
      </trkpt>
      <trkpt lat="43.46417" lon="6.46259">
        <ele>208.9</ele>
        <time>2021-04-05T09:49:28Z</time>
      </trkpt>
      <trkpt lat="43.46413" lon="6.46262">
        <ele>206.9</ele>
        <time>2021-04-05T09:49:40Z</time>
      </trkpt>
      <trkpt lat="43.46414" lon="6.46269">
        <ele>204.2</ele>
        <time>2021-04-05T09:50:02Z</time>
      </trkpt>
      <trkpt lat="43.46409" lon="6.46269">
        <ele>204.2</ele>
        <time>2021-04-05T09:50:08Z</time>
      </trkpt>
      <trkpt lat="43.46404" lon="6.46272">
        <ele>202.9</ele>
        <time>2021-04-05T09:50:39Z</time>
      </trkpt>
      <trkpt lat="43.46408" lon="6.46267">
        <ele>203.1</ele>
        <time>2021-04-05T09:50:55Z</time>
      </trkpt>
      <trkpt lat="43.46403" lon="6.46265">
        <ele>203.3</ele>
        <time>2021-04-05T09:51:45Z</time>
      </trkpt>
      <trkpt lat="43.464" lon="6.4627">
        <ele>201.6</ele>
        <time>2021-04-05T09:52:00Z</time>
      </trkpt>
      <trkpt lat="43.46396" lon="6.46271">
        <ele>200.3</ele>
        <time>2021-04-05T09:52:08Z</time>
      </trkpt>
      <trkpt lat="43.46391" lon="6.46275">
        <ele>197.8</ele>
        <time>2021-04-05T09:52:25Z</time>
      </trkpt>
      <trkpt lat="43.46387" lon="6.46276">
        <ele>196.3</ele>
        <time>2021-04-05T09:52:37Z</time>
      </trkpt>
      <trkpt lat="43.46382" lon="6.46276">
        <ele>194.8</ele>
        <time>2021-04-05T09:52:49Z</time>
      </trkpt>
      <trkpt lat="43.46379" lon="6.46281">
        <ele>193.8</ele>
        <time>2021-04-05T09:53:00Z</time>
      </trkpt>
      <trkpt lat="43.46375" lon="6.46286">
        <ele>189.1</ele>
        <time>2021-04-05T09:53:37Z</time>
      </trkpt>
      <trkpt lat="43.46371" lon="6.46288">
        <ele>188.3</ele>
        <time>2021-04-05T09:53:50Z</time>
      </trkpt>
      <trkpt lat="43.46366" lon="6.46287">
        <ele>186.4</ele>
        <time>2021-04-05T09:54:05Z</time>
      </trkpt>
      <trkpt lat="43.46362" lon="6.46287">
        <ele>185.4</ele>
        <time>2021-04-05T09:54:20Z</time>
      </trkpt>
      <trkpt lat="43.46366" lon="6.46283">
        <ele>183.9</ele>
        <time>2021-04-05T09:54:49Z</time>
      </trkpt>
      <trkpt lat="43.46362" lon="6.46287">
        <ele>183.9</ele>
        <time>2021-04-05T09:54:58Z</time>
      </trkpt>
      <trkpt lat="43.46359" lon="6.46292">
        <ele>183.9</ele>
        <time>2021-04-05T09:55:05Z</time>
      </trkpt>
      <trkpt lat="43.46356" lon="6.46298">
        <ele>183.9</ele>
        <time>2021-04-05T09:55:11Z</time>
      </trkpt>
      <trkpt lat="43.46352" lon="6.46302">
        <ele>184</ele>
        <time>2021-04-05T09:55:16Z</time>
      </trkpt>
      <trkpt lat="43.46349" lon="6.46308">
        <ele>184.1</ele>
        <time>2021-04-05T09:55:20Z</time>
      </trkpt>
      <trkpt lat="43.46348" lon="6.46315">
        <ele>184.2</ele>
        <time>2021-04-05T09:55:24Z</time>
      </trkpt>
      <trkpt lat="43.46345" lon="6.4632">
        <ele>184.2</ele>
        <time>2021-04-05T09:55:31Z</time>
      </trkpt>
      <trkpt lat="43.4634" lon="6.4632">
        <ele>184.4</ele>
        <time>2021-04-05T09:55:38Z</time>
      </trkpt>
      <trkpt lat="43.46335" lon="6.4632">
        <ele>185.6</ele>
        <time>2021-04-05T09:55:49Z</time>
      </trkpt>
      <trkpt lat="43.46331" lon="6.46321">
        <ele>186.3</ele>
        <time>2021-04-05T09:55:56Z</time>
      </trkpt>
      <trkpt lat="43.46326" lon="6.46319">
        <ele>187.1</ele>
        <time>2021-04-05T09:56:03Z</time>
      </trkpt>
      <trkpt lat="43.46321" lon="6.46319">
        <ele>188</ele>
        <time>2021-04-05T09:56:12Z</time>
      </trkpt>
      <trkpt lat="43.46317" lon="6.46316">
        <ele>189.4</ele>
        <time>2021-04-05T09:56:22Z</time>
      </trkpt>
      <trkpt lat="43.46312" lon="6.46314">
        <ele>192.5</ele>
        <time>2021-04-05T09:56:43Z</time>
      </trkpt>
      <trkpt lat="43.46307" lon="6.46315">
        <ele>193.7</ele>
        <time>2021-04-05T09:56:50Z</time>
      </trkpt>
      <trkpt lat="43.46303" lon="6.46316">
        <ele>195.1</ele>
        <time>2021-04-05T09:56:58Z</time>
      </trkpt>
      <trkpt lat="43.46298" lon="6.46315">
        <ele>195.8</ele>
        <time>2021-04-05T09:57:05Z</time>
      </trkpt>
      <trkpt lat="43.46294" lon="6.46316">
        <ele>196.2</ele>
        <time>2021-04-05T09:57:12Z</time>
      </trkpt>
      <trkpt lat="43.46289" lon="6.46316">
        <ele>197</ele>
        <time>2021-04-05T09:57:19Z</time>
      </trkpt>
      <trkpt lat="43.46284" lon="6.46317">
        <ele>197.8</ele>
        <time>2021-04-05T09:57:25Z</time>
      </trkpt>
      <trkpt lat="43.4628" lon="6.46317">
        <ele>198.5</ele>
        <time>2021-04-05T09:57:31Z</time>
      </trkpt>
      <trkpt lat="43.46275" lon="6.46315">
        <ele>199.7</ele>
        <time>2021-04-05T09:57:40Z</time>
      </trkpt>
      <trkpt lat="43.4627" lon="6.46313">
        <ele>200.9</ele>
        <time>2021-04-05T09:57:50Z</time>
      </trkpt>
      <trkpt lat="43.46266" lon="6.46316">
        <ele>201.8</ele>
        <time>2021-04-05T09:57:56Z</time>
      </trkpt>
      <trkpt lat="43.46262" lon="6.46317">
        <ele>202.6</ele>
        <time>2021-04-05T09:58:02Z</time>
      </trkpt>
      <trkpt lat="43.46257" lon="6.46318">
        <ele>204.1</ele>
        <time>2021-04-05T09:58:13Z</time>
      </trkpt>
      <trkpt lat="43.46252" lon="6.46318">
        <ele>205.4</ele>
        <time>2021-04-05T09:58:25Z</time>
      </trkpt>
      <trkpt lat="43.46248" lon="6.46322">
        <ele>206.5</ele>
        <time>2021-04-05T09:58:35Z</time>
      </trkpt>
      <trkpt lat="43.46244" lon="6.46321">
        <ele>207.6</ele>
        <time>2021-04-05T09:58:44Z</time>
      </trkpt>
      <trkpt lat="43.46239" lon="6.46322">
        <ele>208.6</ele>
        <time>2021-04-05T09:58:54Z</time>
      </trkpt>
      <trkpt lat="43.46235" lon="6.46324">
        <ele>209.5</ele>
        <time>2021-04-05T09:59:01Z</time>
      </trkpt>
      <trkpt lat="43.4623" lon="6.46323">
        <ele>210.2</ele>
        <time>2021-04-05T09:59:09Z</time>
      </trkpt>
      <trkpt lat="43.46226" lon="6.46324">
        <ele>211.2</ele>
        <time>2021-04-05T09:59:16Z</time>
      </trkpt>
      <trkpt lat="43.46221" lon="6.46323">
        <ele>212.2</ele>
        <time>2021-04-05T09:59:25Z</time>
      </trkpt>
      <trkpt lat="43.46216" lon="6.46327">
        <ele>213</ele>
        <time>2021-04-05T09:59:33Z</time>
      </trkpt>
      <trkpt lat="43.46211" lon="6.46329">
        <ele>214.1</ele>
        <time>2021-04-05T09:59:40Z</time>
      </trkpt>
      <trkpt lat="43.46207" lon="6.46329">
        <ele>215.2</ele>
        <time>2021-04-05T09:59:48Z</time>
      </trkpt>
      <trkpt lat="43.46204" lon="6.46334">
        <ele>215.7</ele>
        <time>2021-04-05T09:59:55Z</time>
      </trkpt>
      <trkpt lat="43.46199" lon="6.46334">
        <ele>217.1</ele>
        <time>2021-04-05T10:00:03Z</time>
      </trkpt>
      <trkpt lat="43.46195" lon="6.46336">
        <ele>218</ele>
        <time>2021-04-05T10:00:14Z</time>
      </trkpt>
      <trkpt lat="43.46191" lon="6.46338">
        <ele>218.6</ele>
        <time>2021-04-05T10:00:25Z</time>
      </trkpt>
      <trkpt lat="43.46187" lon="6.46342">
        <ele>219.5</ele>
        <time>2021-04-05T10:00:36Z</time>
      </trkpt>
      <trkpt lat="43.46183" lon="6.46346">
        <ele>220.4</ele>
        <time>2021-04-05T10:00:45Z</time>
      </trkpt>
      <trkpt lat="43.46178" lon="6.46348">
        <ele>221.1</ele>
        <time>2021-04-05T10:00:54Z</time>
      </trkpt>
      <trkpt lat="43.46173" lon="6.46349">
        <ele>221.7</ele>
        <time>2021-04-05T10:01:01Z</time>
      </trkpt>
      <trkpt lat="43.46169" lon="6.46351">
        <ele>222.7</ele>
        <time>2021-04-05T10:01:07Z</time>
      </trkpt>
      <trkpt lat="43.46164" lon="6.46353">
        <ele>223.6</ele>
        <time>2021-04-05T10:01:16Z</time>
      </trkpt>
      <trkpt lat="43.46159" lon="6.46354">
        <ele>224.5</ele>
        <time>2021-04-05T10:01:22Z</time>
      </trkpt>
      <trkpt lat="43.46154" lon="6.46355">
        <ele>225.3</ele>
        <time>2021-04-05T10:01:28Z</time>
      </trkpt>
      <trkpt lat="43.46149" lon="6.46356">
        <ele>226</ele>
        <time>2021-04-05T10:01:34Z</time>
      </trkpt>
      <trkpt lat="43.46145" lon="6.46358">
        <ele>226.7</ele>
        <time>2021-04-05T10:01:42Z</time>
      </trkpt>
      <trkpt lat="43.4614" lon="6.46361">
        <ele>227.8</ele>
        <time>2021-04-05T10:01:53Z</time>
      </trkpt>
      <trkpt lat="43.46135" lon="6.46362">
        <ele>228.5</ele>
        <time>2021-04-05T10:02:03Z</time>
      </trkpt>
      <trkpt lat="43.46131" lon="6.46364">
        <ele>229.1</ele>
        <time>2021-04-05T10:02:08Z</time>
      </trkpt>
      <trkpt lat="43.46126" lon="6.46364">
        <ele>230.1</ele>
        <time>2021-04-05T10:02:16Z</time>
      </trkpt>
      <trkpt lat="43.46121" lon="6.46364">
        <ele>230.5</ele>
        <time>2021-04-05T10:02:21Z</time>
      </trkpt>
      <trkpt lat="43.46116" lon="6.46366">
        <ele>231.6</ele>
        <time>2021-04-05T10:02:30Z</time>
      </trkpt>
      <trkpt lat="43.46112" lon="6.46365">
        <ele>232.4</ele>
        <time>2021-04-05T10:02:37Z</time>
      </trkpt>
      <trkpt lat="43.46107" lon="6.46365">
        <ele>233.1</ele>
        <time>2021-04-05T10:02:45Z</time>
      </trkpt>
      <trkpt lat="43.46101" lon="6.46363">
        <ele>233.6</ele>
        <time>2021-04-05T10:02:50Z</time>
      </trkpt>
      <trkpt lat="43.46097" lon="6.46359">
        <ele>234.2</ele>
        <time>2021-04-05T10:02:57Z</time>
      </trkpt>
      <trkpt lat="43.46092" lon="6.46357">
        <ele>234.6</ele>
        <time>2021-04-05T10:03:02Z</time>
      </trkpt>
      <trkpt lat="43.46087" lon="6.4636">
        <ele>234.8</ele>
        <time>2021-04-05T10:03:07Z</time>
      </trkpt>
      <trkpt lat="43.46083" lon="6.46363">
        <ele>235.3</ele>
        <time>2021-04-05T10:03:13Z</time>
      </trkpt>
      <trkpt lat="43.46078" lon="6.46364">
        <ele>235.8</ele>
        <time>2021-04-05T10:03:18Z</time>
      </trkpt>
      <trkpt lat="43.46073" lon="6.46362">
        <ele>236.5</ele>
        <time>2021-04-05T10:03:24Z</time>
      </trkpt>
      <trkpt lat="43.46068" lon="6.46362">
        <ele>236.9</ele>
        <time>2021-04-05T10:03:31Z</time>
      </trkpt>
      <trkpt lat="43.46066" lon="6.46356">
        <ele>237</ele>
        <time>2021-04-05T10:03:39Z</time>
      </trkpt>
      <trkpt lat="43.46068" lon="6.4635">
        <ele>237.4</ele>
        <time>2021-04-05T10:03:47Z</time>
      </trkpt>
      <trkpt lat="43.46069" lon="6.46343">
        <ele>237.8</ele>
        <time>2021-04-05T10:03:54Z</time>
      </trkpt>
      <trkpt lat="43.46069" lon="6.46337">
        <ele>238.3</ele>
        <time>2021-04-05T10:04:27Z</time>
      </trkpt>
      <trkpt lat="43.46065" lon="6.46332">
        <ele>238.7</ele>
        <time>2021-04-05T10:05:41Z</time>
      </trkpt>
      <trkpt lat="43.46064" lon="6.46326">
        <ele>238.5</ele>
        <time>2021-04-05T10:05:48Z</time>
      </trkpt>
      <trkpt lat="43.46063" lon="6.4632">
        <ele>238.9</ele>
        <time>2021-04-05T10:05:55Z</time>
      </trkpt>
      <trkpt lat="43.46063" lon="6.46313">
        <ele>239</ele>
        <time>2021-04-05T10:06:01Z</time>
      </trkpt>
      <trkpt lat="43.46062" lon="6.46306">
        <ele>239.1</ele>
        <time>2021-04-05T10:06:06Z</time>
      </trkpt>
      <trkpt lat="43.46061" lon="6.463">
        <ele>239.2</ele>
        <time>2021-04-05T10:06:12Z</time>
      </trkpt>
      <trkpt lat="43.46059" lon="6.46293">
        <ele>239.4</ele>
        <time>2021-04-05T10:06:18Z</time>
      </trkpt>
      <trkpt lat="43.46058" lon="6.46287">
        <ele>239.3</ele>
        <time>2021-04-05T10:06:24Z</time>
      </trkpt>
      <trkpt lat="43.46059" lon="6.4628">
        <ele>239.3</ele>
        <time>2021-04-05T10:06:29Z</time>
      </trkpt>
      <trkpt lat="43.46058" lon="6.46273">
        <ele>239.4</ele>
        <time>2021-04-05T10:06:35Z</time>
      </trkpt>
      <trkpt lat="43.46056" lon="6.46267">
        <ele>239.6</ele>
        <time>2021-04-05T10:06:40Z</time>
      </trkpt>
      <trkpt lat="43.46054" lon="6.46261">
        <ele>239.7</ele>
        <time>2021-04-05T10:06:45Z</time>
      </trkpt>
      <trkpt lat="43.46053" lon="6.46254">
        <ele>239.7</ele>
        <time>2021-04-05T10:06:51Z</time>
      </trkpt>
      <trkpt lat="43.46053" lon="6.46247">
        <ele>239.6</ele>
        <time>2021-04-05T10:06:57Z</time>
      </trkpt>
      <trkpt lat="43.46051" lon="6.46239">
        <ele>239.8</ele>
        <time>2021-04-05T10:07:02Z</time>
      </trkpt>
      <trkpt lat="43.4605" lon="6.46233">
        <ele>239.9</ele>
        <time>2021-04-05T10:07:07Z</time>
      </trkpt>
      <trkpt lat="43.46048" lon="6.46227">
        <ele>239.9</ele>
        <time>2021-04-05T10:07:12Z</time>
      </trkpt>
      <trkpt lat="43.46046" lon="6.4622">
        <ele>240</ele>
        <time>2021-04-05T10:07:17Z</time>
      </trkpt>
      <trkpt lat="43.46042" lon="6.46217">
        <ele>240.1</ele>
        <time>2021-04-05T10:07:23Z</time>
      </trkpt>
      <trkpt lat="43.46036" lon="6.46218">
        <ele>240.2</ele>
        <time>2021-04-05T10:07:28Z</time>
      </trkpt>
      <trkpt lat="43.46031" lon="6.46219">
        <ele>240.1</ele>
        <time>2021-04-05T10:07:34Z</time>
      </trkpt>
      <trkpt lat="43.46031" lon="6.46225">
        <ele>239.8</ele>
        <time>2021-04-05T10:07:58Z</time>
      </trkpt>
      <trkpt lat="43.4603" lon="6.46219">
        <ele>245.9</ele>
        <time>2021-04-05T11:04:29Z</time>
      </trkpt>
      <trkpt lat="43.46034" lon="6.46223">
        <ele>245.9</ele>
        <time>2021-04-05T11:05:27Z</time>
      </trkpt>
      <trkpt lat="43.46035" lon="6.46217">
        <ele>246.2</ele>
        <time>2021-04-05T11:06:00Z</time>
      </trkpt>
      <trkpt lat="43.4604" lon="6.46215">
        <ele>246.3</ele>
        <time>2021-04-05T11:06:08Z</time>
      </trkpt>
      <trkpt lat="43.46043" lon="6.46218">
        <ele>246.3</ele>
        <time>2021-04-05T11:06:22Z</time>
      </trkpt>
      <trkpt lat="43.46043" lon="6.46212">
        <ele>246.4</ele>
        <time>2021-04-05T11:06:33Z</time>
      </trkpt>
      <trkpt lat="43.46042" lon="6.46205">
        <ele>246.4</ele>
        <time>2021-04-05T11:06:38Z</time>
      </trkpt>
      <trkpt lat="43.46043" lon="6.46199">
        <ele>246.4</ele>
        <time>2021-04-05T11:06:43Z</time>
      </trkpt>
      <trkpt lat="43.46043" lon="6.46191">
        <ele>246.6</ele>
        <time>2021-04-05T11:06:50Z</time>
      </trkpt>
      <trkpt lat="43.46044" lon="6.46184">
        <ele>246.8</ele>
        <time>2021-04-05T11:06:56Z</time>
      </trkpt>
      <trkpt lat="43.46044" lon="6.46176">
        <ele>246.9</ele>
        <time>2021-04-05T11:07:02Z</time>
      </trkpt>
      <trkpt lat="43.46043" lon="6.4617">
        <ele>246.8</ele>
        <time>2021-04-05T11:07:07Z</time>
      </trkpt>
      <trkpt lat="43.46043" lon="6.46163">
        <ele>246.8</ele>
        <time>2021-04-05T11:07:12Z</time>
      </trkpt>
      <trkpt lat="43.46042" lon="6.46155">
        <ele>246.8</ele>
        <time>2021-04-05T11:07:19Z</time>
      </trkpt>
      <trkpt lat="43.46042" lon="6.46149">
        <ele>246.8</ele>
        <time>2021-04-05T11:07:25Z</time>
      </trkpt>
      <trkpt lat="43.46043" lon="6.46142">
        <ele>246.7</ele>
        <time>2021-04-05T11:07:31Z</time>
      </trkpt>
      <trkpt lat="43.46043" lon="6.46136">
        <ele>246.7</ele>
        <time>2021-04-05T11:07:36Z</time>
      </trkpt>
      <trkpt lat="43.46042" lon="6.46129">
        <ele>246.7</ele>
        <time>2021-04-05T11:07:41Z</time>
      </trkpt>
      <trkpt lat="43.46043" lon="6.46123">
        <ele>246.6</ele>
        <time>2021-04-05T11:07:46Z</time>
      </trkpt>
      <trkpt lat="43.46042" lon="6.46116">
        <ele>246.6</ele>
        <time>2021-04-05T11:07:51Z</time>
      </trkpt>
      <trkpt lat="43.46039" lon="6.4611">
        <ele>246.5</ele>
        <time>2021-04-05T11:07:55Z</time>
      </trkpt>
      <trkpt lat="43.46036" lon="6.46105">
        <ele>246.5</ele>
        <time>2021-04-05T11:07:59Z</time>
      </trkpt>
      <trkpt lat="43.46032" lon="6.46101">
        <ele>246.5</ele>
        <time>2021-04-05T11:08:05Z</time>
      </trkpt>
      <trkpt lat="43.46029" lon="6.46097">
        <ele>246.5</ele>
        <time>2021-04-05T11:08:10Z</time>
      </trkpt>
      <trkpt lat="43.46026" lon="6.46092">
        <ele>246.5</ele>
        <time>2021-04-05T11:08:14Z</time>
      </trkpt>
      <trkpt lat="43.46023" lon="6.46088">
        <ele>246.6</ele>
        <time>2021-04-05T11:08:19Z</time>
      </trkpt>
      <trkpt lat="43.46021" lon="6.46082">
        <ele>246.6</ele>
        <time>2021-04-05T11:08:24Z</time>
      </trkpt>
      <trkpt lat="43.46024" lon="6.46075">
        <ele>246.6</ele>
        <time>2021-04-05T11:08:29Z</time>
      </trkpt>
      <trkpt lat="43.46027" lon="6.4607">
        <ele>246.6</ele>
        <time>2021-04-05T11:08:36Z</time>
      </trkpt>
      <trkpt lat="43.46029" lon="6.46064">
        <ele>246.6</ele>
        <time>2021-04-05T11:08:42Z</time>
      </trkpt>
      <trkpt lat="43.46029" lon="6.46056">
        <ele>246.9</ele>
        <time>2021-04-05T11:08:49Z</time>
      </trkpt>
      <trkpt lat="43.46028" lon="6.4605">
        <ele>247.2</ele>
        <time>2021-04-05T11:08:54Z</time>
      </trkpt>
      <trkpt lat="43.46026" lon="6.46044">
        <ele>247.5</ele>
        <time>2021-04-05T11:08:59Z</time>
      </trkpt>
      <trkpt lat="43.46026" lon="6.46037">
        <ele>247.7</ele>
        <time>2021-04-05T11:09:05Z</time>
      </trkpt>
      <trkpt lat="43.46026" lon="6.4603">
        <ele>247.8</ele>
        <time>2021-04-05T11:09:11Z</time>
      </trkpt>
      <trkpt lat="43.46027" lon="6.46023">
        <ele>247.9</ele>
        <time>2021-04-05T11:09:15Z</time>
      </trkpt>
      <trkpt lat="43.4603" lon="6.46018">
        <ele>248</ele>
        <time>2021-04-05T11:09:19Z</time>
      </trkpt>
      <trkpt lat="43.46034" lon="6.46011">
        <ele>248</ele>
        <time>2021-04-05T11:09:24Z</time>
      </trkpt>
      <trkpt lat="43.46036" lon="6.46004">
        <ele>248.2</ele>
        <time>2021-04-05T11:09:28Z</time>
      </trkpt>
      <trkpt lat="43.46035" lon="6.45997">
        <ele>248.3</ele>
        <time>2021-04-05T11:09:33Z</time>
      </trkpt>
      <trkpt lat="43.46033" lon="6.45991">
        <ele>248.5</ele>
        <time>2021-04-05T11:09:39Z</time>
      </trkpt>
      <trkpt lat="43.46034" lon="6.45985">
        <ele>248.6</ele>
        <time>2021-04-05T11:09:44Z</time>
      </trkpt>
      <trkpt lat="43.46036" lon="6.45979">
        <ele>248.6</ele>
        <time>2021-04-05T11:09:48Z</time>
      </trkpt>
      <trkpt lat="43.46038" lon="6.45973">
        <ele>248.7</ele>
        <time>2021-04-05T11:09:52Z</time>
      </trkpt>
      <trkpt lat="43.46039" lon="6.45966">
        <ele>248.8</ele>
        <time>2021-04-05T11:09:57Z</time>
      </trkpt>
      <trkpt lat="43.46039" lon="6.45959">
        <ele>248.8</ele>
        <time>2021-04-05T11:10:02Z</time>
      </trkpt>
      <trkpt lat="43.46037" lon="6.45952">
        <ele>248.8</ele>
        <time>2021-04-05T11:10:06Z</time>
      </trkpt>
      <trkpt lat="43.46034" lon="6.45946">
        <ele>248.9</ele>
        <time>2021-04-05T11:10:10Z</time>
      </trkpt>
      <trkpt lat="43.46032" lon="6.4594">
        <ele>249.3</ele>
        <time>2021-04-05T11:10:16Z</time>
      </trkpt>
      <trkpt lat="43.46031" lon="6.45933">
        <ele>249.6</ele>
        <time>2021-04-05T11:10:22Z</time>
      </trkpt>
      <trkpt lat="43.46029" lon="6.45927">
        <ele>249.7</ele>
        <time>2021-04-05T11:10:26Z</time>
      </trkpt>
      <trkpt lat="43.46028" lon="6.4592">
        <ele>249.9</ele>
        <time>2021-04-05T11:10:31Z</time>
      </trkpt>
      <trkpt lat="43.46026" lon="6.45914">
        <ele>250</ele>
        <time>2021-04-05T11:10:36Z</time>
      </trkpt>
      <trkpt lat="43.46025" lon="6.45908">
        <ele>250.2</ele>
        <time>2021-04-05T11:10:41Z</time>
      </trkpt>
      <trkpt lat="43.46023" lon="6.45902">
        <ele>250.4</ele>
        <time>2021-04-05T11:10:45Z</time>
      </trkpt>
      <trkpt lat="43.4602" lon="6.45897">
        <ele>250.6</ele>
        <time>2021-04-05T11:10:50Z</time>
      </trkpt>
      <trkpt lat="43.46019" lon="6.4589">
        <ele>250.7</ele>
        <time>2021-04-05T11:10:54Z</time>
      </trkpt>
      <trkpt lat="43.46018" lon="6.45883">
        <ele>251.1</ele>
        <time>2021-04-05T11:10:59Z</time>
      </trkpt>
      <trkpt lat="43.46019" lon="6.45877">
        <ele>251.4</ele>
        <time>2021-04-05T11:11:04Z</time>
      </trkpt>
      <trkpt lat="43.46022" lon="6.45872">
        <ele>251.7</ele>
        <time>2021-04-05T11:11:08Z</time>
      </trkpt>
      <trkpt lat="43.46025" lon="6.45866">
        <ele>251.9</ele>
        <time>2021-04-05T11:11:13Z</time>
      </trkpt>
      <trkpt lat="43.46026" lon="6.4586">
        <ele>252.1</ele>
        <time>2021-04-05T11:11:19Z</time>
      </trkpt>
      <trkpt lat="43.46027" lon="6.45854">
        <ele>252.2</ele>
        <time>2021-04-05T11:11:23Z</time>
      </trkpt>
      <trkpt lat="43.46028" lon="6.45847">
        <ele>252.3</ele>
        <time>2021-04-05T11:11:28Z</time>
      </trkpt>
      <trkpt lat="43.46032" lon="6.45842">
        <ele>252.3</ele>
        <time>2021-04-05T11:11:32Z</time>
      </trkpt>
      <trkpt lat="43.46034" lon="6.45837">
        <ele>252.5</ele>
        <time>2021-04-05T11:11:37Z</time>
      </trkpt>
      <trkpt lat="43.46035" lon="6.45829">
        <ele>252.7</ele>
        <time>2021-04-05T11:11:43Z</time>
      </trkpt>
      <trkpt lat="43.46035" lon="6.45823">
        <ele>252.9</ele>
        <time>2021-04-05T11:11:48Z</time>
      </trkpt>
      <trkpt lat="43.46036" lon="6.45816">
        <ele>253.1</ele>
        <time>2021-04-05T11:11:53Z</time>
      </trkpt>
      <trkpt lat="43.46036" lon="6.45809">
        <ele>253.1</ele>
        <time>2021-04-05T11:11:57Z</time>
      </trkpt>
      <trkpt lat="43.46035" lon="6.45803">
        <ele>253.3</ele>
        <time>2021-04-05T11:12:01Z</time>
      </trkpt>
      <trkpt lat="43.46035" lon="6.45795">
        <ele>253.5</ele>
        <time>2021-04-05T11:12:06Z</time>
      </trkpt>
      <trkpt lat="43.46036" lon="6.45788">
        <ele>253.6</ele>
        <time>2021-04-05T11:12:11Z</time>
      </trkpt>
      <trkpt lat="43.46035" lon="6.45781">
        <ele>253.8</ele>
        <time>2021-04-05T11:12:16Z</time>
      </trkpt>
      <trkpt lat="43.46036" lon="6.45774">
        <ele>253.8</ele>
        <time>2021-04-05T11:12:20Z</time>
      </trkpt>
      <trkpt lat="43.46034" lon="6.45768">
        <ele>253.9</ele>
        <time>2021-04-05T11:12:24Z</time>
      </trkpt>
      <trkpt lat="43.46035" lon="6.45762">
        <ele>253.9</ele>
        <time>2021-04-05T11:12:30Z</time>
      </trkpt>
      <trkpt lat="43.46037" lon="6.45756">
        <ele>254</ele>
        <time>2021-04-05T11:12:36Z</time>
      </trkpt>
      <trkpt lat="43.46039" lon="6.4575">
        <ele>254.1</ele>
        <time>2021-04-05T11:12:41Z</time>
      </trkpt>
      <trkpt lat="43.46039" lon="6.45742">
        <ele>254.2</ele>
        <time>2021-04-05T11:12:46Z</time>
      </trkpt>
      <trkpt lat="43.46038" lon="6.45736">
        <ele>254.2</ele>
        <time>2021-04-05T11:12:50Z</time>
      </trkpt>
      <trkpt lat="43.46038" lon="6.45728">
        <ele>254.2</ele>
        <time>2021-04-05T11:12:55Z</time>
      </trkpt>
      <trkpt lat="43.46044" lon="6.45725">
        <ele>254.2</ele>
        <time>2021-04-05T11:13:00Z</time>
      </trkpt>
      <trkpt lat="43.46046" lon="6.45719">
        <ele>254.2</ele>
        <time>2021-04-05T11:13:05Z</time>
      </trkpt>
      <trkpt lat="43.46047" lon="6.45713">
        <ele>254.2</ele>
        <time>2021-04-05T11:13:09Z</time>
      </trkpt>
      <trkpt lat="43.46047" lon="6.45705">
        <ele>254.1</ele>
        <time>2021-04-05T11:13:13Z</time>
      </trkpt>
      <trkpt lat="43.46046" lon="6.45698">
        <ele>253.9</ele>
        <time>2021-04-05T11:13:17Z</time>
      </trkpt>
      <trkpt lat="43.46048" lon="6.45691">
        <ele>253.7</ele>
        <time>2021-04-05T11:13:22Z</time>
      </trkpt>
      <trkpt lat="43.46047" lon="6.45684">
        <ele>253.5</ele>
        <time>2021-04-05T11:13:27Z</time>
      </trkpt>
      <trkpt lat="43.46047" lon="6.45676">
        <ele>253.4</ele>
        <time>2021-04-05T11:13:33Z</time>
      </trkpt>
      <trkpt lat="43.46046" lon="6.4567">
        <ele>253.3</ele>
        <time>2021-04-05T11:13:38Z</time>
      </trkpt>
      <trkpt lat="43.46044" lon="6.45664">
        <ele>253.2</ele>
        <time>2021-04-05T11:13:44Z</time>
      </trkpt>
      <trkpt lat="43.46045" lon="6.45658">
        <ele>253.2</ele>
        <time>2021-04-05T11:13:48Z</time>
      </trkpt>
      <trkpt lat="43.46047" lon="6.45651">
        <ele>253.2</ele>
        <time>2021-04-05T11:13:53Z</time>
      </trkpt>
      <trkpt lat="43.46046" lon="6.45645">
        <ele>253.2</ele>
        <time>2021-04-05T11:13:59Z</time>
      </trkpt>
      <trkpt lat="43.46043" lon="6.45639">
        <ele>253.1</ele>
        <time>2021-04-05T11:14:03Z</time>
      </trkpt>
      <trkpt lat="43.46041" lon="6.45632">
        <ele>253</ele>
        <time>2021-04-05T11:14:09Z</time>
      </trkpt>
      <trkpt lat="43.46041" lon="6.45626">
        <ele>252.8</ele>
        <time>2021-04-05T11:14:14Z</time>
      </trkpt>
      <trkpt lat="43.4604" lon="6.4562">
        <ele>252.7</ele>
        <time>2021-04-05T11:14:19Z</time>
      </trkpt>
      <trkpt lat="43.4604" lon="6.45613">
        <ele>252.8</ele>
        <time>2021-04-05T11:14:23Z</time>
      </trkpt>
      <trkpt lat="43.4604" lon="6.45606">
        <ele>252.8</ele>
        <time>2021-04-05T11:14:28Z</time>
      </trkpt>
      <trkpt lat="43.4604" lon="6.45599">
        <ele>252.7</ele>
        <time>2021-04-05T11:14:34Z</time>
      </trkpt>
      <trkpt lat="43.46038" lon="6.45592">
        <ele>252.7</ele>
        <time>2021-04-05T11:14:39Z</time>
      </trkpt>
      <trkpt lat="43.4604" lon="6.45586">
        <ele>252.7</ele>
        <time>2021-04-05T11:14:44Z</time>
      </trkpt>
      <trkpt lat="43.46036" lon="6.45583">
        <ele>252.5</ele>
        <time>2021-04-05T11:14:55Z</time>
      </trkpt>
      <trkpt lat="43.46038" lon="6.45576">
        <ele>252.1</ele>
        <time>2021-04-05T11:15:14Z</time>
      </trkpt>
      <trkpt lat="43.46039" lon="6.45569">
        <ele>252.1</ele>
        <time>2021-04-05T11:15:18Z</time>
      </trkpt>
      <trkpt lat="43.46041" lon="6.45562">
        <ele>252</ele>
        <time>2021-04-05T11:15:24Z</time>
      </trkpt>
      <trkpt lat="43.4604" lon="6.45555">
        <ele>252</ele>
        <time>2021-04-05T11:15:29Z</time>
      </trkpt>
      <trkpt lat="43.46038" lon="6.45549">
        <ele>252</ele>
        <time>2021-04-05T11:15:32Z</time>
      </trkpt>
      <trkpt lat="43.46037" lon="6.45542">
        <ele>251.9</ele>
        <time>2021-04-05T11:15:37Z</time>
      </trkpt>
      <trkpt lat="43.46037" lon="6.45535">
        <ele>251.8</ele>
        <time>2021-04-05T11:15:41Z</time>
      </trkpt>
      <trkpt lat="43.46039" lon="6.45528">
        <ele>251.7</ele>
        <time>2021-04-05T11:15:45Z</time>
      </trkpt>
      <trkpt lat="43.46034" lon="6.45524">
        <ele>251.6</ele>
        <time>2021-04-05T11:15:50Z</time>
      </trkpt>
      <trkpt lat="43.46029" lon="6.45523">
        <ele>251.5</ele>
        <time>2021-04-05T11:15:54Z</time>
      </trkpt>
      <trkpt lat="43.46023" lon="6.45521">
        <ele>251.4</ele>
        <time>2021-04-05T11:16:00Z</time>
      </trkpt>
      <trkpt lat="43.46018" lon="6.45522">
        <ele>251.4</ele>
        <time>2021-04-05T11:16:05Z</time>
      </trkpt>
      <trkpt lat="43.46014" lon="6.45519">
        <ele>251.3</ele>
        <time>2021-04-05T11:16:10Z</time>
      </trkpt>
      <trkpt lat="43.46014" lon="6.45512">
        <ele>251.3</ele>
        <time>2021-04-05T11:16:17Z</time>
      </trkpt>
      <trkpt lat="43.46014" lon="6.45505">
        <ele>251.3</ele>
        <time>2021-04-05T11:16:22Z</time>
      </trkpt>
      <trkpt lat="43.46013" lon="6.45498">
        <ele>251.3</ele>
        <time>2021-04-05T11:16:27Z</time>
      </trkpt>
      <trkpt lat="43.46012" lon="6.45491">
        <ele>251.3</ele>
        <time>2021-04-05T11:16:32Z</time>
      </trkpt>
      <trkpt lat="43.46011" lon="6.45484">
        <ele>251.2</ele>
        <time>2021-04-05T11:16:37Z</time>
      </trkpt>
      <trkpt lat="43.46009" lon="6.45478">
        <ele>251.2</ele>
        <time>2021-04-05T11:16:42Z</time>
      </trkpt>
      <trkpt lat="43.46006" lon="6.45472">
        <ele>251.2</ele>
        <time>2021-04-05T11:16:47Z</time>
      </trkpt>
      <trkpt lat="43.46005" lon="6.45465">
        <ele>251.3</ele>
        <time>2021-04-05T11:16:51Z</time>
      </trkpt>
      <trkpt lat="43.46007" lon="6.45459">
        <ele>251.3</ele>
        <time>2021-04-05T11:16:57Z</time>
      </trkpt>
      <trkpt lat="43.46008" lon="6.45453">
        <ele>251.3</ele>
        <time>2021-04-05T11:17:02Z</time>
      </trkpt>
      <trkpt lat="43.46009" lon="6.45446">
        <ele>251.4</ele>
        <time>2021-04-05T11:17:07Z</time>
      </trkpt>
      <trkpt lat="43.46009" lon="6.45439">
        <ele>251.4</ele>
        <time>2021-04-05T11:17:12Z</time>
      </trkpt>
      <trkpt lat="43.46009" lon="6.45433">
        <ele>251.4</ele>
        <time>2021-04-05T11:17:16Z</time>
      </trkpt>
      <trkpt lat="43.46007" lon="6.45427">
        <ele>251.4</ele>
        <time>2021-04-05T11:17:23Z</time>
      </trkpt>
      <trkpt lat="43.46004" lon="6.45421">
        <ele>251.1</ele>
        <time>2021-04-05T11:17:29Z</time>
      </trkpt>
      <trkpt lat="43.46" lon="6.45415">
        <ele>250.6</ele>
        <time>2021-04-05T11:17:36Z</time>
      </trkpt>
      <trkpt lat="43.46002" lon="6.45408">
        <ele>250.2</ele>
        <time>2021-04-05T11:17:41Z</time>
      </trkpt>
      <trkpt lat="43.46005" lon="6.45403">
        <ele>250.1</ele>
        <time>2021-04-05T11:17:44Z</time>
      </trkpt>
      <trkpt lat="43.46006" lon="6.45396">
        <ele>249.7</ele>
        <time>2021-04-05T11:17:52Z</time>
      </trkpt>
      <trkpt lat="43.46006" lon="6.45389">
        <ele>249.5</ele>
        <time>2021-04-05T11:17:59Z</time>
      </trkpt>
      <trkpt lat="43.46005" lon="6.45383">
        <ele>249.4</ele>
        <time>2021-04-05T11:18:03Z</time>
      </trkpt>
      <trkpt lat="43.46006" lon="6.45376">
        <ele>249.4</ele>
        <time>2021-04-05T11:18:07Z</time>
      </trkpt>
      <trkpt lat="43.46008" lon="6.4537">
        <ele>249.3</ele>
        <time>2021-04-05T11:18:10Z</time>
      </trkpt>
      <trkpt lat="43.4601" lon="6.45365">
        <ele>249.3</ele>
        <time>2021-04-05T11:18:14Z</time>
      </trkpt>
      <trkpt lat="43.46014" lon="6.4536">
        <ele>249.1</ele>
        <time>2021-04-05T11:18:19Z</time>
      </trkpt>
      <trkpt lat="43.46017" lon="6.45355">
        <ele>249</ele>
        <time>2021-04-05T11:18:25Z</time>
      </trkpt>
      <trkpt lat="43.46018" lon="6.45348">
        <ele>249</ele>
        <time>2021-04-05T11:18:30Z</time>
      </trkpt>
      <trkpt lat="43.46021" lon="6.45342">
        <ele>248.9</ele>
        <time>2021-04-05T11:18:35Z</time>
      </trkpt>
      <trkpt lat="43.46022" lon="6.45336">
        <ele>248.6</ele>
        <time>2021-04-05T11:18:43Z</time>
      </trkpt>
      <trkpt lat="43.46024" lon="6.45329">
        <ele>248.2</ele>
        <time>2021-04-05T11:18:49Z</time>
      </trkpt>
      <trkpt lat="43.46027" lon="6.45325">
        <ele>247.5</ele>
        <time>2021-04-05T11:18:58Z</time>
      </trkpt>
      <trkpt lat="43.46031" lon="6.45321">
        <ele>247.3</ele>
        <time>2021-04-05T11:19:05Z</time>
      </trkpt>
      <trkpt lat="43.46033" lon="6.45315">
        <ele>247.3</ele>
        <time>2021-04-05T11:19:11Z</time>
      </trkpt>
      <trkpt lat="43.46036" lon="6.45309">
        <ele>247.6</ele>
        <time>2021-04-05T11:19:17Z</time>
      </trkpt>
      <trkpt lat="43.46038" lon="6.45303">
        <ele>247.8</ele>
        <time>2021-04-05T11:19:22Z</time>
      </trkpt>
      <trkpt lat="43.4604" lon="6.45297">
        <ele>248</ele>
        <time>2021-04-05T11:19:26Z</time>
      </trkpt>
      <trkpt lat="43.46043" lon="6.45291">
        <ele>248.5</ele>
        <time>2021-04-05T11:19:35Z</time>
      </trkpt>
      <trkpt lat="43.46045" lon="6.45286">
        <ele>249.1</ele>
        <time>2021-04-05T11:19:43Z</time>
      </trkpt>
      <trkpt lat="43.4605" lon="6.45283">
        <ele>250.2</ele>
        <time>2021-04-05T11:19:53Z</time>
      </trkpt>
      <trkpt lat="43.46053" lon="6.45277">
        <ele>250.7</ele>
        <time>2021-04-05T11:19:59Z</time>
      </trkpt>
      <trkpt lat="43.46058" lon="6.45273">
        <ele>251</ele>
        <time>2021-04-05T11:20:04Z</time>
      </trkpt>
      <trkpt lat="43.46059" lon="6.45266">
        <ele>251.1</ele>
        <time>2021-04-05T11:20:08Z</time>
      </trkpt>
      <trkpt lat="43.46061" lon="6.4526">
        <ele>251.3</ele>
        <time>2021-04-05T11:20:12Z</time>
      </trkpt>
      <trkpt lat="43.46061" lon="6.45254">
        <ele>251.5</ele>
        <time>2021-04-05T11:20:17Z</time>
      </trkpt>
      <trkpt lat="43.46062" lon="6.45247">
        <ele>252.1</ele>
        <time>2021-04-05T11:20:30Z</time>
      </trkpt>
      <trkpt lat="43.46064" lon="6.4524">
        <ele>252.2</ele>
        <time>2021-04-05T11:20:35Z</time>
      </trkpt>
      <trkpt lat="43.46066" lon="6.45233">
        <ele>252.4</ele>
        <time>2021-04-05T11:20:40Z</time>
      </trkpt>
      <trkpt lat="43.46067" lon="6.45226">
        <ele>252.6</ele>
        <time>2021-04-05T11:20:45Z</time>
      </trkpt>
      <trkpt lat="43.46069" lon="6.45219">
        <ele>252.7</ele>
        <time>2021-04-05T11:20:50Z</time>
      </trkpt>
      <trkpt lat="43.46072" lon="6.45213">
        <ele>252.8</ele>
        <time>2021-04-05T11:20:55Z</time>
      </trkpt>
      <trkpt lat="43.46076" lon="6.45209">
        <ele>252.7</ele>
        <time>2021-04-05T11:21:00Z</time>
      </trkpt>
      <trkpt lat="43.4608" lon="6.45203">
        <ele>252.5</ele>
        <time>2021-04-05T11:21:05Z</time>
      </trkpt>
      <trkpt lat="43.46083" lon="6.45198">
        <ele>252.4</ele>
        <time>2021-04-05T11:21:09Z</time>
      </trkpt>
      <trkpt lat="43.46087" lon="6.45192">
        <ele>252.3</ele>
        <time>2021-04-05T11:21:14Z</time>
      </trkpt>
      <trkpt lat="43.46089" lon="6.45187">
        <ele>252.2</ele>
        <time>2021-04-05T11:21:18Z</time>
      </trkpt>
      <trkpt lat="43.46092" lon="6.45181">
        <ele>252.2</ele>
        <time>2021-04-05T11:21:22Z</time>
      </trkpt>
      <trkpt lat="43.46094" lon="6.45176">
        <ele>252.1</ele>
        <time>2021-04-05T11:21:27Z</time>
      </trkpt>
      <trkpt lat="43.46094" lon="6.45169">
        <ele>251.8</ele>
        <time>2021-04-05T11:21:33Z</time>
      </trkpt>
      <trkpt lat="43.46095" lon="6.45162">
        <ele>251.1</ele>
        <time>2021-04-05T11:21:45Z</time>
      </trkpt>
      <trkpt lat="43.46098" lon="6.45158">
        <ele>250.9</ele>
        <time>2021-04-05T11:21:50Z</time>
      </trkpt>
      <trkpt lat="43.46101" lon="6.45151">
        <ele>250.6</ele>
        <time>2021-04-05T11:21:56Z</time>
      </trkpt>
      <trkpt lat="43.46103" lon="6.45145">
        <ele>250.2</ele>
        <time>2021-04-05T11:22:02Z</time>
      </trkpt>
      <trkpt lat="43.46104" lon="6.45138">
        <ele>249.8</ele>
        <time>2021-04-05T11:22:08Z</time>
      </trkpt>
      <trkpt lat="43.46106" lon="6.45132">
        <ele>249.6</ele>
        <time>2021-04-05T11:22:13Z</time>
      </trkpt>
      <trkpt lat="43.46106" lon="6.45125">
        <ele>249</ele>
        <time>2021-04-05T11:22:20Z</time>
      </trkpt>
      <trkpt lat="43.46107" lon="6.45117">
        <ele>248.1</ele>
        <time>2021-04-05T11:22:27Z</time>
      </trkpt>
      <trkpt lat="43.46108" lon="6.45111">
        <ele>247.7</ele>
        <time>2021-04-05T11:22:31Z</time>
      </trkpt>
      <trkpt lat="43.46111" lon="6.45104">
        <ele>247.2</ele>
        <time>2021-04-05T11:22:36Z</time>
      </trkpt>
      <trkpt lat="43.46113" lon="6.45099">
        <ele>246.8</ele>
        <time>2021-04-05T11:22:41Z</time>
      </trkpt>
      <trkpt lat="43.46116" lon="6.45094">
        <ele>246.5</ele>
        <time>2021-04-05T11:22:45Z</time>
      </trkpt>
      <trkpt lat="43.46119" lon="6.45088">
        <ele>246</ele>
        <time>2021-04-05T11:22:50Z</time>
      </trkpt>
      <trkpt lat="43.46122" lon="6.45082">
        <ele>245.5</ele>
        <time>2021-04-05T11:22:55Z</time>
      </trkpt>
      <trkpt lat="43.46123" lon="6.45075">
        <ele>245</ele>
        <time>2021-04-05T11:23:00Z</time>
      </trkpt>
      <trkpt lat="43.46123" lon="6.45069">
        <ele>244.6</ele>
        <time>2021-04-05T11:23:06Z</time>
      </trkpt>
      <trkpt lat="43.46122" lon="6.45062">
        <ele>244.4</ele>
        <time>2021-04-05T11:23:10Z</time>
      </trkpt>
      <trkpt lat="43.46123" lon="6.45055">
        <ele>244</ele>
        <time>2021-04-05T11:23:19Z</time>
      </trkpt>
      <trkpt lat="43.46126" lon="6.45051">
        <ele>241.8</ele>
        <time>2021-04-05T11:24:02Z</time>
      </trkpt>
      <trkpt lat="43.46127" lon="6.45045">
        <ele>241.5</ele>
        <time>2021-04-05T11:24:23Z</time>
      </trkpt>
      <trkpt lat="43.46125" lon="6.45039">
        <ele>241.6</ele>
        <time>2021-04-05T11:24:27Z</time>
      </trkpt>
      <trkpt lat="43.46124" lon="6.45033">
        <ele>241.6</ele>
        <time>2021-04-05T11:24:30Z</time>
      </trkpt>
      <trkpt lat="43.46125" lon="6.45026">
        <ele>241.6</ele>
        <time>2021-04-05T11:24:34Z</time>
      </trkpt>
      <trkpt lat="43.46125" lon="6.45018">
        <ele>241.5</ele>
        <time>2021-04-05T11:24:40Z</time>
      </trkpt>
      <trkpt lat="43.46124" lon="6.45013">
        <ele>241.5</ele>
        <time>2021-04-05T11:24:49Z</time>
      </trkpt>
      <trkpt lat="43.46122" lon="6.45006">
        <ele>241.4</ele>
        <time>2021-04-05T11:24:54Z</time>
      </trkpt>
      <trkpt lat="43.46121" lon="6.44999">
        <ele>241.4</ele>
        <time>2021-04-05T11:24:58Z</time>
      </trkpt>
      <trkpt lat="43.46123" lon="6.44993">
        <ele>241.4</ele>
        <time>2021-04-05T11:25:03Z</time>
      </trkpt>
      <trkpt lat="43.46125" lon="6.44986">
        <ele>241.4</ele>
        <time>2021-04-05T11:25:07Z</time>
      </trkpt>
      <trkpt lat="43.46125" lon="6.44979">
        <ele>241.4</ele>
        <time>2021-04-05T11:25:11Z</time>
      </trkpt>
      <trkpt lat="43.46124" lon="6.44972">
        <ele>241.5</ele>
        <time>2021-04-05T11:25:15Z</time>
      </trkpt>
      <trkpt lat="43.46122" lon="6.44964">
        <ele>241.6</ele>
        <time>2021-04-05T11:25:19Z</time>
      </trkpt>
      <trkpt lat="43.46123" lon="6.44957">
        <ele>241.7</ele>
        <time>2021-04-05T11:25:23Z</time>
      </trkpt>
      <trkpt lat="43.46122" lon="6.44951">
        <ele>241.6</ele>
        <time>2021-04-05T11:25:27Z</time>
      </trkpt>
      <trkpt lat="43.46121" lon="6.44944">
        <ele>241.5</ele>
        <time>2021-04-05T11:25:31Z</time>
      </trkpt>
      <trkpt lat="43.46119" lon="6.44937">
        <ele>241.5</ele>
        <time>2021-04-05T11:25:34Z</time>
      </trkpt>
      <trkpt lat="43.46118" lon="6.4493">
        <ele>241.5</ele>
        <time>2021-04-05T11:25:37Z</time>
      </trkpt>
      <trkpt lat="43.46115" lon="6.44925">
        <ele>241.4</ele>
        <time>2021-04-05T11:25:42Z</time>
      </trkpt>
      <trkpt lat="43.46114" lon="6.44916">
        <ele>241.4</ele>
        <time>2021-04-05T11:25:46Z</time>
      </trkpt>
      <trkpt lat="43.46114" lon="6.44908">
        <ele>241.4</ele>
        <time>2021-04-05T11:25:49Z</time>
      </trkpt>
      <trkpt lat="43.46113" lon="6.44902">
        <ele>241.4</ele>
        <time>2021-04-05T11:25:55Z</time>
      </trkpt>
      <trkpt lat="43.46111" lon="6.44896">
        <ele>241.4</ele>
        <time>2021-04-05T11:25:58Z</time>
      </trkpt>
      <trkpt lat="43.4611" lon="6.44889">
        <ele>241.4</ele>
        <time>2021-04-05T11:26:01Z</time>
      </trkpt>
      <trkpt lat="43.46107" lon="6.44882">
        <ele>241.6</ele>
        <time>2021-04-05T11:26:07Z</time>
      </trkpt>
      <trkpt lat="43.46106" lon="6.44875">
        <ele>241.8</ele>
        <time>2021-04-05T11:26:10Z</time>
      </trkpt>
      <trkpt lat="43.46105" lon="6.44868">
        <ele>242.5</ele>
        <time>2021-04-05T11:26:16Z</time>
      </trkpt>
      <trkpt lat="43.46105" lon="6.44861">
        <ele>242.8</ele>
        <time>2021-04-05T11:26:19Z</time>
      </trkpt>
      <trkpt lat="43.46104" lon="6.44855">
        <ele>243.2</ele>
        <time>2021-04-05T11:26:24Z</time>
      </trkpt>
      <trkpt lat="43.46101" lon="6.44848">
        <ele>243.4</ele>
        <time>2021-04-05T11:26:28Z</time>
      </trkpt>
      <trkpt lat="43.46098" lon="6.44841">
        <ele>243.8</ele>
        <time>2021-04-05T11:26:32Z</time>
      </trkpt>
      <trkpt lat="43.46097" lon="6.44834">
        <ele>244.1</ele>
        <time>2021-04-05T11:26:38Z</time>
      </trkpt>
      <trkpt lat="43.46097" lon="6.44827">
        <ele>244.3</ele>
        <time>2021-04-05T11:26:41Z</time>
      </trkpt>
      <trkpt lat="43.46097" lon="6.44819">
        <ele>244.5</ele>
        <time>2021-04-05T11:26:47Z</time>
      </trkpt>
      <trkpt lat="43.46097" lon="6.44812">
        <ele>244.7</ele>
        <time>2021-04-05T11:26:50Z</time>
      </trkpt>
      <trkpt lat="43.46093" lon="6.44806">
        <ele>245</ele>
        <time>2021-04-05T11:26:55Z</time>
      </trkpt>
      <trkpt lat="43.46089" lon="6.44802">
        <ele>245.1</ele>
        <time>2021-04-05T11:26:59Z</time>
      </trkpt>
      <trkpt lat="43.46086" lon="6.44797">
        <ele>245.2</ele>
        <time>2021-04-05T11:27:03Z</time>
      </trkpt>
      <trkpt lat="43.46083" lon="6.44791">
        <ele>245.3</ele>
        <time>2021-04-05T11:27:07Z</time>
      </trkpt>
      <trkpt lat="43.46085" lon="6.44785">
        <ele>245.3</ele>
        <time>2021-04-05T11:27:10Z</time>
      </trkpt>
      <trkpt lat="43.46083" lon="6.44779">
        <ele>245.3</ele>
        <time>2021-04-05T11:27:15Z</time>
      </trkpt>
      <trkpt lat="43.46083" lon="6.44772">
        <ele>245.6</ele>
        <time>2021-04-05T11:27:20Z</time>
      </trkpt>
      <trkpt lat="43.46079" lon="6.44775">
        <ele>245.9</ele>
        <time>2021-04-05T11:27:28Z</time>
      </trkpt>
      <trkpt lat="43.46076" lon="6.4477">
        <ele>246.2</ele>
        <time>2021-04-05T11:27:39Z</time>
      </trkpt>
      <trkpt lat="43.46074" lon="6.44762">
        <ele>246.3</ele>
        <time>2021-04-05T11:27:44Z</time>
      </trkpt>
      <trkpt lat="43.46074" lon="6.44756">
        <ele>246.4</ele>
        <time>2021-04-05T11:27:47Z</time>
      </trkpt>
      <trkpt lat="43.46073" lon="6.44748">
        <ele>246.5</ele>
        <time>2021-04-05T11:27:53Z</time>
      </trkpt>
      <trkpt lat="43.46072" lon="6.44742">
        <ele>246.8</ele>
        <time>2021-04-05T11:27:59Z</time>
      </trkpt>
      <trkpt lat="43.46072" lon="6.44734">
        <ele>247</ele>
        <time>2021-04-05T11:28:03Z</time>
      </trkpt>
      <trkpt lat="43.46071" lon="6.44727">
        <ele>247.3</ele>
        <time>2021-04-05T11:28:07Z</time>
      </trkpt>
      <trkpt lat="43.46072" lon="6.44721">
        <ele>247.5</ele>
        <time>2021-04-05T11:28:11Z</time>
      </trkpt>
      <trkpt lat="43.46072" lon="6.44714">
        <ele>247.7</ele>
        <time>2021-04-05T11:28:15Z</time>
      </trkpt>
      <trkpt lat="43.46075" lon="6.44709">
        <ele>248</ele>
        <time>2021-04-05T11:28:22Z</time>
      </trkpt>
      <trkpt lat="43.46072" lon="6.44704">
        <ele>249.3</ele>
        <time>2021-04-05T11:28:47Z</time>
      </trkpt>
      <trkpt lat="43.46068" lon="6.44701">
        <ele>249.6</ele>
        <time>2021-04-05T11:29:15Z</time>
      </trkpt>
      <trkpt lat="43.46071" lon="6.44705">
        <ele>249.5</ele>
        <time>2021-04-05T11:30:06Z</time>
      </trkpt>
      <trkpt lat="43.46067" lon="6.44708">
        <ele>249.8</ele>
        <time>2021-04-05T11:30:46Z</time>
      </trkpt>
      <trkpt lat="43.46066" lon="6.44702">
        <ele>251</ele>
        <time>2021-04-05T11:30:58Z</time>
      </trkpt>
      <trkpt lat="43.46066" lon="6.44696">
        <ele>252.1</ele>
        <time>2021-04-05T11:31:48Z</time>
      </trkpt>
      <trkpt lat="43.46069" lon="6.447">
        <ele>252.3</ele>
        <time>2021-04-05T11:33:02Z</time>
      </trkpt>
      <trkpt lat="43.46072" lon="6.44705">
        <ele>252.6</ele>
        <time>2021-04-05T11:35:07Z</time>
      </trkpt>
      <trkpt lat="43.46077" lon="6.44705">
        <ele>251.6</ele>
        <time>2021-04-05T11:36:05Z</time>
      </trkpt>
      <trkpt lat="43.46081" lon="6.44706">
        <ele>251.3</ele>
        <time>2021-04-05T11:36:14Z</time>
      </trkpt>
      <trkpt lat="43.46086" lon="6.44707">
        <ele>251.2</ele>
        <time>2021-04-05T11:36:19Z</time>
      </trkpt>
      <trkpt lat="43.46091" lon="6.44706">
        <ele>251.2</ele>
        <time>2021-04-05T11:36:23Z</time>
      </trkpt>
      <trkpt lat="43.46096" lon="6.44706">
        <ele>250.8</ele>
        <time>2021-04-05T11:36:30Z</time>
      </trkpt>
      <trkpt lat="43.461" lon="6.44707">
        <ele>250.4</ele>
        <time>2021-04-05T11:36:37Z</time>
      </trkpt>
      <trkpt lat="43.46106" lon="6.44705">
        <ele>250</ele>
        <time>2021-04-05T11:36:43Z</time>
      </trkpt>
      <trkpt lat="43.46111" lon="6.44703">
        <ele>249.7</ele>
        <time>2021-04-05T11:36:47Z</time>
      </trkpt>
      <trkpt lat="43.46116" lon="6.44702">
        <ele>249.5</ele>
        <time>2021-04-05T11:36:51Z</time>
      </trkpt>
      <trkpt lat="43.46121" lon="6.44703">
        <ele>249.2</ele>
        <time>2021-04-05T11:36:55Z</time>
      </trkpt>
      <trkpt lat="43.46126" lon="6.44703">
        <ele>248.8</ele>
        <time>2021-04-05T11:37:01Z</time>
      </trkpt>
      <trkpt lat="43.46131" lon="6.44702">
        <ele>248.2</ele>
        <time>2021-04-05T11:37:07Z</time>
      </trkpt>
      <trkpt lat="43.46136" lon="6.44701">
        <ele>247.9</ele>
        <time>2021-04-05T11:37:11Z</time>
      </trkpt>
      <trkpt lat="43.4614" lon="6.447">
        <ele>247.7</ele>
        <time>2021-04-05T11:37:14Z</time>
      </trkpt>
      <trkpt lat="43.46145" lon="6.44699">
        <ele>247.4</ele>
        <time>2021-04-05T11:37:17Z</time>
      </trkpt>
      <trkpt lat="43.4615" lon="6.44697">
        <ele>246.6</ele>
        <time>2021-04-05T11:37:22Z</time>
      </trkpt>
      <trkpt lat="43.46155" lon="6.44696">
        <ele>246</ele>
        <time>2021-04-05T11:37:28Z</time>
      </trkpt>
      <trkpt lat="43.4616" lon="6.44695">
        <ele>245.5</ele>
        <time>2021-04-05T11:37:34Z</time>
      </trkpt>
      <trkpt lat="43.46164" lon="6.44696">
        <ele>244.8</ele>
        <time>2021-04-05T11:37:41Z</time>
      </trkpt>
      <trkpt lat="43.46162" lon="6.4469">
        <ele>244</ele>
        <time>2021-04-05T11:38:05Z</time>
      </trkpt>
      <trkpt lat="43.46157" lon="6.44692">
        <ele>244.2</ele>
        <time>2021-04-05T11:38:14Z</time>
      </trkpt>
      <trkpt lat="43.46152" lon="6.44694">
        <ele>244.3</ele>
        <time>2021-04-05T11:38:20Z</time>
      </trkpt>
      <trkpt lat="43.46148" lon="6.44694">
        <ele>244.8</ele>
        <time>2021-04-05T11:38:25Z</time>
      </trkpt>
      <trkpt lat="43.46143" lon="6.44694">
        <ele>245.3</ele>
        <time>2021-04-05T11:38:31Z</time>
      </trkpt>
      <trkpt lat="43.46138" lon="6.44694">
        <ele>245.5</ele>
        <time>2021-04-05T11:38:37Z</time>
      </trkpt>
      <trkpt lat="43.46133" lon="6.44694">
        <ele>246</ele>
        <time>2021-04-05T11:38:42Z</time>
      </trkpt>
      <trkpt lat="43.46129" lon="6.44696">
        <ele>246.2</ele>
        <time>2021-04-05T11:38:47Z</time>
      </trkpt>
      <trkpt lat="43.46124" lon="6.44697">
        <ele>246.7</ele>
        <time>2021-04-05T11:38:52Z</time>
      </trkpt>
      <trkpt lat="43.46119" lon="6.44697">
        <ele>247.8</ele>
        <time>2021-04-05T11:39:04Z</time>
      </trkpt>
      <trkpt lat="43.46123" lon="6.44699">
        <ele>248.5</ele>
        <time>2021-04-05T11:39:35Z</time>
      </trkpt>
      <trkpt lat="43.46128" lon="6.44699">
        <ele>248.6</ele>
        <time>2021-04-05T11:39:43Z</time>
      </trkpt>
      <trkpt lat="43.46132" lon="6.44698">
        <ele>248.6</ele>
        <time>2021-04-05T11:39:49Z</time>
      </trkpt>
      <trkpt lat="43.46127" lon="6.44696">
        <ele>248.8</ele>
        <time>2021-04-05T11:39:56Z</time>
      </trkpt>
      <trkpt lat="43.46122" lon="6.44696">
        <ele>248.8</ele>
        <time>2021-04-05T11:40:00Z</time>
      </trkpt>
      <trkpt lat="43.46117" lon="6.44696">
        <ele>248.9</ele>
        <time>2021-04-05T11:40:03Z</time>
      </trkpt>
      <trkpt lat="43.46113" lon="6.44694">
        <ele>249.1</ele>
        <time>2021-04-05T11:40:06Z</time>
      </trkpt>
      <trkpt lat="43.46107" lon="6.44692">
        <ele>249.4</ele>
        <time>2021-04-05T11:40:12Z</time>
      </trkpt>
      <trkpt lat="43.46103" lon="6.44692">
        <ele>249.8</ele>
        <time>2021-04-05T11:40:17Z</time>
      </trkpt>
      <trkpt lat="43.46097" lon="6.44691">
        <ele>250.3</ele>
        <time>2021-04-05T11:40:22Z</time>
      </trkpt>
      <trkpt lat="43.46092" lon="6.44691">
        <ele>251</ele>
        <time>2021-04-05T11:40:27Z</time>
      </trkpt>
      <trkpt lat="43.46087" lon="6.44693">
        <ele>251.2</ele>
        <time>2021-04-05T11:40:32Z</time>
      </trkpt>
      <trkpt lat="43.46082" lon="6.44692">
        <ele>251.5</ele>
        <time>2021-04-05T11:40:38Z</time>
      </trkpt>
      <trkpt lat="43.46077" lon="6.44694">
        <ele>252.3</ele>
        <time>2021-04-05T11:40:43Z</time>
      </trkpt>
      <trkpt lat="43.46073" lon="6.44697">
        <ele>252.8</ele>
        <time>2021-04-05T11:40:49Z</time>
      </trkpt>
      <trkpt lat="43.46068" lon="6.44696">
        <ele>253.3</ele>
        <time>2021-04-05T11:40:56Z</time>
      </trkpt>
      <trkpt lat="43.46068" lon="6.4469">
        <ele>253.4</ele>
        <time>2021-04-05T11:41:02Z</time>
      </trkpt>
      <trkpt lat="43.46066" lon="6.44683">
        <ele>253.8</ele>
        <time>2021-04-05T11:41:08Z</time>
      </trkpt>
      <trkpt lat="43.46064" lon="6.44678">
        <ele>253.7</ele>
        <time>2021-04-05T11:41:14Z</time>
      </trkpt>
      <trkpt lat="43.46061" lon="6.44672">
        <ele>253.8</ele>
        <time>2021-04-05T11:41:19Z</time>
      </trkpt>
      <trkpt lat="43.46061" lon="6.44665">
        <ele>253.9</ele>
        <time>2021-04-05T11:41:24Z</time>
      </trkpt>
      <trkpt lat="43.46059" lon="6.4466">
        <ele>254.3</ele>
        <time>2021-04-05T11:41:29Z</time>
      </trkpt>
      <trkpt lat="43.46057" lon="6.44653">
        <ele>254.7</ele>
        <time>2021-04-05T11:41:35Z</time>
      </trkpt>
      <trkpt lat="43.46054" lon="6.44647">
        <ele>255.3</ele>
        <time>2021-04-05T11:41:42Z</time>
      </trkpt>
      <trkpt lat="43.46053" lon="6.4464">
        <ele>255.7</ele>
        <time>2021-04-05T11:41:47Z</time>
      </trkpt>
      <trkpt lat="43.46051" lon="6.44633">
        <ele>256</ele>
        <time>2021-04-05T11:41:52Z</time>
      </trkpt>
      <trkpt lat="43.4605" lon="6.44627">
        <ele>256.3</ele>
        <time>2021-04-05T11:41:57Z</time>
      </trkpt>
      <trkpt lat="43.46049" lon="6.4462">
        <ele>256.6</ele>
        <time>2021-04-05T11:42:02Z</time>
      </trkpt>
      <trkpt lat="43.46047" lon="6.44614">
        <ele>257.3</ele>
        <time>2021-04-05T11:42:08Z</time>
      </trkpt>
      <trkpt lat="43.46048" lon="6.44608">
        <ele>257.5</ele>
        <time>2021-04-05T11:42:13Z</time>
      </trkpt>
      <trkpt lat="43.46047" lon="6.44601">
        <ele>257.7</ele>
        <time>2021-04-05T11:42:18Z</time>
      </trkpt>
      <trkpt lat="43.46049" lon="6.44595">
        <ele>257.8</ele>
        <time>2021-04-05T11:42:22Z</time>
      </trkpt>
      <trkpt lat="43.46048" lon="6.44588">
        <ele>257.9</ele>
        <time>2021-04-05T11:42:27Z</time>
      </trkpt>
      <trkpt lat="43.46048" lon="6.44581">
        <ele>258.2</ele>
        <time>2021-04-05T11:42:33Z</time>
      </trkpt>
      <trkpt lat="43.46046" lon="6.44574">
        <ele>258.7</ele>
        <time>2021-04-05T11:42:39Z</time>
      </trkpt>
      <trkpt lat="43.46044" lon="6.44568">
        <ele>259.4</ele>
        <time>2021-04-05T11:42:50Z</time>
      </trkpt>
      <trkpt lat="43.46042" lon="6.44562">
        <ele>259.7</ele>
        <time>2021-04-05T11:42:57Z</time>
      </trkpt>
      <trkpt lat="43.4604" lon="6.44557">
        <ele>259.8</ele>
        <time>2021-04-05T11:43:01Z</time>
      </trkpt>
      <trkpt lat="43.46037" lon="6.4455">
        <ele>260.1</ele>
        <time>2021-04-05T11:43:06Z</time>
      </trkpt>
      <trkpt lat="43.46037" lon="6.44543">
        <ele>261.1</ele>
        <time>2021-04-05T11:43:21Z</time>
      </trkpt>
      <trkpt lat="43.46035" lon="6.44537">
        <ele>261.3</ele>
        <time>2021-04-05T11:43:27Z</time>
      </trkpt>
      <trkpt lat="43.46035" lon="6.4453">
        <ele>261.7</ele>
        <time>2021-04-05T11:43:32Z</time>
      </trkpt>
      <trkpt lat="43.46033" lon="6.44523">
        <ele>262.1</ele>
        <time>2021-04-05T11:43:37Z</time>
      </trkpt>
      <trkpt lat="43.4603" lon="6.44517">
        <ele>262.2</ele>
        <time>2021-04-05T11:43:41Z</time>
      </trkpt>
      <trkpt lat="43.46027" lon="6.44512">
        <ele>262.6</ele>
        <time>2021-04-05T11:43:45Z</time>
      </trkpt>
      <trkpt lat="43.46024" lon="6.44507">
        <ele>263</ele>
        <time>2021-04-05T11:43:50Z</time>
      </trkpt>
      <trkpt lat="43.46023" lon="6.445">
        <ele>263.6</ele>
        <time>2021-04-05T11:43:56Z</time>
      </trkpt>
      <trkpt lat="43.46024" lon="6.44494">
        <ele>264</ele>
        <time>2021-04-05T11:44:02Z</time>
      </trkpt>
      <trkpt lat="43.46025" lon="6.44488">
        <ele>264.4</ele>
        <time>2021-04-05T11:44:09Z</time>
      </trkpt>
      <trkpt lat="43.46028" lon="6.44481">
        <ele>264.5</ele>
        <time>2021-04-05T11:44:13Z</time>
      </trkpt>
      <trkpt lat="43.46028" lon="6.44474">
        <ele>264.7</ele>
        <time>2021-04-05T11:44:18Z</time>
      </trkpt>
      <trkpt lat="43.46028" lon="6.44468">
        <ele>264.6</ele>
        <time>2021-04-05T11:44:23Z</time>
      </trkpt>
      <trkpt lat="43.4603" lon="6.44461">
        <ele>264.6</ele>
        <time>2021-04-05T11:44:28Z</time>
      </trkpt>
      <trkpt lat="43.46032" lon="6.44455">
        <ele>264.5</ele>
        <time>2021-04-05T11:44:34Z</time>
      </trkpt>
      <trkpt lat="43.46035" lon="6.4445">
        <ele>264.5</ele>
        <time>2021-04-05T11:44:39Z</time>
      </trkpt>
      <trkpt lat="43.46039" lon="6.44445">
        <ele>264.5</ele>
        <time>2021-04-05T11:44:44Z</time>
      </trkpt>
      <trkpt lat="43.46041" lon="6.44439">
        <ele>264.4</ele>
        <time>2021-04-05T11:44:48Z</time>
      </trkpt>
      <trkpt lat="43.46043" lon="6.44432">
        <ele>264.4</ele>
        <time>2021-04-05T11:44:53Z</time>
      </trkpt>
      <trkpt lat="43.46045" lon="6.44424">
        <ele>264.3</ele>
        <time>2021-04-05T11:44:59Z</time>
      </trkpt>
      <trkpt lat="43.46047" lon="6.44417">
        <ele>264.3</ele>
        <time>2021-04-05T11:45:03Z</time>
      </trkpt>
      <trkpt lat="43.46048" lon="6.4441">
        <ele>264.2</ele>
        <time>2021-04-05T11:45:08Z</time>
      </trkpt>
      <trkpt lat="43.4605" lon="6.44403">
        <ele>264.1</ele>
        <time>2021-04-05T11:45:12Z</time>
      </trkpt>
      <trkpt lat="43.46051" lon="6.44396">
        <ele>263.8</ele>
        <time>2021-04-05T11:45:17Z</time>
      </trkpt>
      <trkpt lat="43.46051" lon="6.44389">
        <ele>263.6</ele>
        <time>2021-04-05T11:45:21Z</time>
      </trkpt>
      <trkpt lat="43.46052" lon="6.44382">
        <ele>263.3</ele>
        <time>2021-04-05T11:45:26Z</time>
      </trkpt>
      <trkpt lat="43.46053" lon="6.44375">
        <ele>263.1</ele>
        <time>2021-04-05T11:45:31Z</time>
      </trkpt>
      <trkpt lat="43.46054" lon="6.44369">
        <ele>263</ele>
        <time>2021-04-05T11:45:34Z</time>
      </trkpt>
      <trkpt lat="43.46055" lon="6.44363">
        <ele>262.9</ele>
        <time>2021-04-05T11:45:39Z</time>
      </trkpt>
      <trkpt lat="43.46057" lon="6.44356">
        <ele>262.6</ele>
        <time>2021-04-05T11:45:47Z</time>
      </trkpt>
      <trkpt lat="43.46058" lon="6.4435">
        <ele>262.2</ele>
        <time>2021-04-05T11:45:51Z</time>
      </trkpt>
      <trkpt lat="43.46059" lon="6.44343">
        <ele>261.9</ele>
        <time>2021-04-05T11:45:56Z</time>
      </trkpt>
      <trkpt lat="43.46058" lon="6.44335">
        <ele>261.4</ele>
        <time>2021-04-05T11:46:01Z</time>
      </trkpt>
      <trkpt lat="43.46059" lon="6.44328">
        <ele>261.1</ele>
        <time>2021-04-05T11:46:06Z</time>
      </trkpt>
      <trkpt lat="43.4606" lon="6.44321">
        <ele>260.7</ele>
        <time>2021-04-05T11:46:12Z</time>
      </trkpt>
      <trkpt lat="43.46062" lon="6.44314">
        <ele>260.5</ele>
        <time>2021-04-05T11:46:17Z</time>
      </trkpt>
      <trkpt lat="43.46065" lon="6.44309">
        <ele>260.4</ele>
        <time>2021-04-05T11:46:21Z</time>
      </trkpt>
      <trkpt lat="43.46065" lon="6.44302">
        <ele>260</ele>
        <time>2021-04-05T11:46:26Z</time>
      </trkpt>
      <trkpt lat="43.46069" lon="6.44297">
        <ele>259.7</ele>
        <time>2021-04-05T11:46:30Z</time>
      </trkpt>
      <trkpt lat="43.4607" lon="6.44291">
        <ele>259.4</ele>
        <time>2021-04-05T11:46:35Z</time>
      </trkpt>
      <trkpt lat="43.46073" lon="6.44286">
        <ele>259.2</ele>
        <time>2021-04-05T11:46:41Z</time>
      </trkpt>
      <trkpt lat="43.46074" lon="6.44279">
        <ele>259.1</ele>
        <time>2021-04-05T11:46:45Z</time>
      </trkpt>
      <trkpt lat="43.46076" lon="6.44273">
        <ele>259</ele>
        <time>2021-04-05T11:46:50Z</time>
      </trkpt>
      <trkpt lat="43.46076" lon="6.44267">
        <ele>258.8</ele>
        <time>2021-04-05T11:46:55Z</time>
      </trkpt>
      <trkpt lat="43.46076" lon="6.4426">
        <ele>258.2</ele>
        <time>2021-04-05T11:47:02Z</time>
      </trkpt>
      <trkpt lat="43.46078" lon="6.44254">
        <ele>257.4</ele>
        <time>2021-04-05T11:47:22Z</time>
      </trkpt>
      <trkpt lat="43.46073" lon="6.44252">
        <ele>257</ele>
        <time>2021-04-05T11:47:56Z</time>
      </trkpt>
      <trkpt lat="43.46069" lon="6.44256">
        <ele>256</ele>
        <time>2021-04-05T11:48:28Z</time>
      </trkpt>
      <trkpt lat="43.4607" lon="6.44262">
        <ele>256</ele>
        <time>2021-04-05T11:48:41Z</time>
      </trkpt>
      <trkpt lat="43.46075" lon="6.44262">
        <ele>256.2</ele>
        <time>2021-04-05T11:48:47Z</time>
      </trkpt>
      <trkpt lat="43.46079" lon="6.44259">
        <ele>256.3</ele>
        <time>2021-04-05T11:48:51Z</time>
      </trkpt>
      <trkpt lat="43.46083" lon="6.44254">
        <ele>256.4</ele>
        <time>2021-04-05T11:48:56Z</time>
      </trkpt>
      <trkpt lat="43.46084" lon="6.44247">
        <ele>256.6</ele>
        <time>2021-04-05T11:49:01Z</time>
      </trkpt>
      <trkpt lat="43.46087" lon="6.44242">
        <ele>256.9</ele>
        <time>2021-04-05T11:49:05Z</time>
      </trkpt>
      <trkpt lat="43.46087" lon="6.44235">
        <ele>257</ele>
        <time>2021-04-05T11:49:09Z</time>
      </trkpt>
      <trkpt lat="43.4609" lon="6.4423">
        <ele>256.7</ele>
        <time>2021-04-05T11:49:14Z</time>
      </trkpt>
      <trkpt lat="43.4609" lon="6.44223">
        <ele>256.6</ele>
        <time>2021-04-05T11:49:19Z</time>
      </trkpt>
      <trkpt lat="43.46093" lon="6.44216">
        <ele>256.4</ele>
        <time>2021-04-05T11:49:24Z</time>
      </trkpt>
      <trkpt lat="43.46094" lon="6.44209">
        <ele>256</ele>
        <time>2021-04-05T11:49:29Z</time>
      </trkpt>
      <trkpt lat="43.46095" lon="6.44202">
        <ele>255.5</ele>
        <time>2021-04-05T11:49:34Z</time>
      </trkpt>
      <trkpt lat="43.46096" lon="6.44196">
        <ele>255.1</ele>
        <time>2021-04-05T11:49:39Z</time>
      </trkpt>
      <trkpt lat="43.46098" lon="6.44189">
        <ele>254.8</ele>
        <time>2021-04-05T11:49:43Z</time>
      </trkpt>
      <trkpt lat="43.46101" lon="6.44184">
        <ele>254.5</ele>
        <time>2021-04-05T11:49:47Z</time>
      </trkpt>
      <trkpt lat="43.46104" lon="6.44179">
        <ele>254.3</ele>
        <time>2021-04-05T11:49:51Z</time>
      </trkpt>
      <trkpt lat="43.46106" lon="6.44173">
        <ele>253.9</ele>
        <time>2021-04-05T11:49:56Z</time>
      </trkpt>
      <trkpt lat="43.4611" lon="6.44169">
        <ele>253.7</ele>
        <time>2021-04-05T11:50:00Z</time>
      </trkpt>
      <trkpt lat="43.46115" lon="6.44165">
        <ele>253.5</ele>
        <time>2021-04-05T11:50:03Z</time>
      </trkpt>
      <trkpt lat="43.46117" lon="6.44159">
        <ele>253.4</ele>
        <time>2021-04-05T11:50:08Z</time>
      </trkpt>
      <trkpt lat="43.46118" lon="6.44152">
        <ele>253.4</ele>
        <time>2021-04-05T11:50:13Z</time>
      </trkpt>
      <trkpt lat="43.46122" lon="6.44146">
        <ele>253.6</ele>
        <time>2021-04-05T11:50:19Z</time>
      </trkpt>
      <trkpt lat="43.46126" lon="6.44141">
        <ele>253.6</ele>
        <time>2021-04-05T11:50:22Z</time>
      </trkpt>
      <trkpt lat="43.46126" lon="6.44134">
        <ele>253.2</ele>
        <time>2021-04-05T11:50:28Z</time>
      </trkpt>
      <trkpt lat="43.46127" lon="6.44127">
        <ele>252.9</ele>
        <time>2021-04-05T11:50:34Z</time>
      </trkpt>
      <trkpt lat="43.4613" lon="6.44122">
        <ele>252.4</ele>
        <time>2021-04-05T11:50:39Z</time>
      </trkpt>
      <trkpt lat="43.4613" lon="6.44115">
        <ele>252</ele>
        <time>2021-04-05T11:50:45Z</time>
      </trkpt>
      <trkpt lat="43.46133" lon="6.44108">
        <ele>251.9</ele>
        <time>2021-04-05T11:50:49Z</time>
      </trkpt>
      <trkpt lat="43.46134" lon="6.44101">
        <ele>251.9</ele>
        <time>2021-04-05T11:50:53Z</time>
      </trkpt>
      <trkpt lat="43.46134" lon="6.44093">
        <ele>251.5</ele>
        <time>2021-04-05T11:50:58Z</time>
      </trkpt>
      <trkpt lat="43.46135" lon="6.44087">
        <ele>251.2</ele>
        <time>2021-04-05T11:51:05Z</time>
      </trkpt>
      <trkpt lat="43.46135" lon="6.4408">
        <ele>250.7</ele>
        <time>2021-04-05T11:51:11Z</time>
      </trkpt>
      <trkpt lat="43.46136" lon="6.44073">
        <ele>250.2</ele>
        <time>2021-04-05T11:51:15Z</time>
      </trkpt>
      <trkpt lat="43.46138" lon="6.44067">
        <ele>249.7</ele>
        <time>2021-04-05T11:51:18Z</time>
      </trkpt>
      <trkpt lat="43.46141" lon="6.44062">
        <ele>249.3</ele>
        <time>2021-04-05T11:51:22Z</time>
      </trkpt>
      <trkpt lat="43.46144" lon="6.44056">
        <ele>249</ele>
        <time>2021-04-05T11:51:28Z</time>
      </trkpt>
      <trkpt lat="43.46148" lon="6.44051">
        <ele>248.8</ele>
        <time>2021-04-05T11:51:31Z</time>
      </trkpt>
      <trkpt lat="43.46148" lon="6.44044">
        <ele>248.9</ele>
        <time>2021-04-05T11:51:36Z</time>
      </trkpt>
      <trkpt lat="43.4615" lon="6.44038">
        <ele>248.8</ele>
        <time>2021-04-05T11:51:42Z</time>
      </trkpt>
      <trkpt lat="43.46153" lon="6.44033">
        <ele>248.6</ele>
        <time>2021-04-05T11:51:47Z</time>
      </trkpt>
      <trkpt lat="43.46156" lon="6.44029">
        <ele>248.3</ele>
        <time>2021-04-05T11:51:51Z</time>
      </trkpt>
      <trkpt lat="43.46158" lon="6.44022">
        <ele>248.3</ele>
        <time>2021-04-05T11:51:56Z</time>
      </trkpt>
      <trkpt lat="43.46156" lon="6.44016">
        <ele>248</ele>
        <time>2021-04-05T11:52:00Z</time>
      </trkpt>
      <trkpt lat="43.46158" lon="6.44009">
        <ele>247.8</ele>
        <time>2021-04-05T11:52:05Z</time>
      </trkpt>
      <trkpt lat="43.4616" lon="6.44004">
        <ele>247.6</ele>
        <time>2021-04-05T11:52:10Z</time>
      </trkpt>
      <trkpt lat="43.46163" lon="6.43998">
        <ele>247.2</ele>
        <time>2021-04-05T11:52:16Z</time>
      </trkpt>
      <trkpt lat="43.46162" lon="6.43991">
        <ele>247.1</ele>
        <time>2021-04-05T11:52:21Z</time>
      </trkpt>
      <trkpt lat="43.46163" lon="6.43984">
        <ele>246.9</ele>
        <time>2021-04-05T11:52:25Z</time>
      </trkpt>
      <trkpt lat="43.46165" lon="6.43978">
        <ele>246.8</ele>
        <time>2021-04-05T11:52:29Z</time>
      </trkpt>
      <trkpt lat="43.46165" lon="6.43971">
        <ele>246.6</ele>
        <time>2021-04-05T11:52:33Z</time>
      </trkpt>
      <trkpt lat="43.46167" lon="6.43965">
        <ele>246.4</ele>
        <time>2021-04-05T11:52:37Z</time>
      </trkpt>
      <trkpt lat="43.46168" lon="6.43958">
        <ele>246.3</ele>
        <time>2021-04-05T11:52:41Z</time>
      </trkpt>
      <trkpt lat="43.46169" lon="6.4395">
        <ele>246.3</ele>
        <time>2021-04-05T11:52:46Z</time>
      </trkpt>
      <trkpt lat="43.46169" lon="6.43944">
        <ele>246.2</ele>
        <time>2021-04-05T11:52:50Z</time>
      </trkpt>
      <trkpt lat="43.46167" lon="6.43936">
        <ele>246.2</ele>
        <time>2021-04-05T11:52:55Z</time>
      </trkpt>
      <trkpt lat="43.46168" lon="6.4393">
        <ele>245.8</ele>
        <time>2021-04-05T11:53:01Z</time>
      </trkpt>
      <trkpt lat="43.46171" lon="6.43925">
        <ele>245.5</ele>
        <time>2021-04-05T11:53:04Z</time>
      </trkpt>
      <trkpt lat="43.46175" lon="6.4392">
        <ele>245.1</ele>
        <time>2021-04-05T11:53:08Z</time>
      </trkpt>
      <trkpt lat="43.4618" lon="6.43921">
        <ele>244.9</ele>
        <time>2021-04-05T11:53:14Z</time>
      </trkpt>
      <trkpt lat="43.46185" lon="6.4392">
        <ele>244.8</ele>
        <time>2021-04-05T11:53:19Z</time>
      </trkpt>
      <trkpt lat="43.46189" lon="6.43918">
        <ele>244.9</ele>
        <time>2021-04-05T11:53:23Z</time>
      </trkpt>
      <trkpt lat="43.46193" lon="6.43916">
        <ele>244.9</ele>
        <time>2021-04-05T11:53:27Z</time>
      </trkpt>
      <trkpt lat="43.46198" lon="6.43912">
        <ele>244.8</ele>
        <time>2021-04-05T11:53:32Z</time>
      </trkpt>
      <trkpt lat="43.46193" lon="6.43911">
        <ele>246.4</ele>
        <time>2021-04-05T11:55:18Z</time>
      </trkpt>
      <trkpt lat="43.46188" lon="6.43911">
        <ele>246.3</ele>
        <time>2021-04-05T11:55:23Z</time>
      </trkpt>
      <trkpt lat="43.46182" lon="6.43911">
        <ele>246.1</ele>
        <time>2021-04-05T11:55:29Z</time>
      </trkpt>
      <trkpt lat="43.46178" lon="6.4391">
        <ele>245.9</ele>
        <time>2021-04-05T11:55:34Z</time>
      </trkpt>
      <trkpt lat="43.46176" lon="6.43904">
        <ele>245.1</ele>
        <time>2021-04-05T11:55:42Z</time>
      </trkpt>
      <trkpt lat="43.46176" lon="6.43897">
        <ele>244.8</ele>
        <time>2021-04-05T11:55:47Z</time>
      </trkpt>
      <trkpt lat="43.46177" lon="6.4389">
        <ele>244.8</ele>
        <time>2021-04-05T11:55:52Z</time>
      </trkpt>
      <trkpt lat="43.46178" lon="6.43884">
        <ele>244.8</ele>
        <time>2021-04-05T11:55:57Z</time>
      </trkpt>
      <trkpt lat="43.46179" lon="6.43877">
        <ele>244.7</ele>
        <time>2021-04-05T11:56:03Z</time>
      </trkpt>
      <trkpt lat="43.46179" lon="6.4387">
        <ele>244.4</ele>
        <time>2021-04-05T11:56:08Z</time>
      </trkpt>
      <trkpt lat="43.4618" lon="6.43863">
        <ele>243.9</ele>
        <time>2021-04-05T11:56:15Z</time>
      </trkpt>
      <trkpt lat="43.46182" lon="6.43857">
        <ele>243.6</ele>
        <time>2021-04-05T11:56:20Z</time>
      </trkpt>
      <trkpt lat="43.46183" lon="6.43851">
        <ele>243.3</ele>
        <time>2021-04-05T11:56:25Z</time>
      </trkpt>
      <trkpt lat="43.46184" lon="6.43844">
        <ele>242.8</ele>
        <time>2021-04-05T11:56:30Z</time>
      </trkpt>
      <trkpt lat="43.46186" lon="6.43838">
        <ele>242.5</ele>
        <time>2021-04-05T11:56:34Z</time>
      </trkpt>
      <trkpt lat="43.46187" lon="6.43831">
        <ele>242</ele>
        <time>2021-04-05T11:56:39Z</time>
      </trkpt>
      <trkpt lat="43.46189" lon="6.43825">
        <ele>241.7</ele>
        <time>2021-04-05T11:56:44Z</time>
      </trkpt>
      <trkpt lat="43.4619" lon="6.43819">
        <ele>241.4</ele>
        <time>2021-04-05T11:56:49Z</time>
      </trkpt>
      <trkpt lat="43.46191" lon="6.43812">
        <ele>241.2</ele>
        <time>2021-04-05T11:56:54Z</time>
      </trkpt>
      <trkpt lat="43.46189" lon="6.43805">
        <ele>240.7</ele>
        <time>2021-04-05T11:57:00Z</time>
      </trkpt>
      <trkpt lat="43.46186" lon="6.43802">
        <ele>240.2</ele>
        <time>2021-04-05T11:57:07Z</time>
      </trkpt>
      <trkpt lat="43.46181" lon="6.43805">
        <ele>240</ele>
        <time>2021-04-05T11:57:12Z</time>
      </trkpt>
      <trkpt lat="43.46177" lon="6.43805">
        <ele>239.7</ele>
        <time>2021-04-05T11:57:17Z</time>
      </trkpt>
      <trkpt lat="43.46172" lon="6.43804">
        <ele>239</ele>
        <time>2021-04-05T11:57:28Z</time>
      </trkpt>
      <trkpt lat="43.46172" lon="6.43798">
        <ele>238.5</ele>
        <time>2021-04-05T11:57:33Z</time>
      </trkpt>
      <trkpt lat="43.46172" lon="6.4379">
        <ele>237.9</ele>
        <time>2021-04-05T11:57:40Z</time>
      </trkpt>
      <trkpt lat="43.46174" lon="6.43785">
        <ele>237.4</ele>
        <time>2021-04-05T11:57:45Z</time>
      </trkpt>
      <trkpt lat="43.46172" lon="6.43779">
        <ele>236.8</ele>
        <time>2021-04-05T11:57:51Z</time>
      </trkpt>
      <trkpt lat="43.46171" lon="6.43772">
        <ele>236.3</ele>
        <time>2021-04-05T11:57:58Z</time>
      </trkpt>
      <trkpt lat="43.46169" lon="6.43767">
        <ele>236</ele>
        <time>2021-04-05T11:58:03Z</time>
      </trkpt>
      <trkpt lat="43.46165" lon="6.43763">
        <ele>235.7</ele>
        <time>2021-04-05T11:58:07Z</time>
      </trkpt>
      <trkpt lat="43.4616" lon="6.43759">
        <ele>235.3</ele>
        <time>2021-04-05T11:58:12Z</time>
      </trkpt>
      <trkpt lat="43.46155" lon="6.43756">
        <ele>235</ele>
        <time>2021-04-05T11:58:18Z</time>
      </trkpt>
      <trkpt lat="43.46151" lon="6.43753">
        <ele>234.5</ele>
        <time>2021-04-05T11:58:24Z</time>
      </trkpt>
      <trkpt lat="43.46147" lon="6.43748">
        <ele>234.2</ele>
        <time>2021-04-05T11:58:28Z</time>
      </trkpt>
      <trkpt lat="43.46144" lon="6.43742">
        <ele>233.9</ele>
        <time>2021-04-05T11:58:33Z</time>
      </trkpt>
      <trkpt lat="43.46142" lon="6.43735">
        <ele>233.4</ele>
        <time>2021-04-05T11:58:42Z</time>
      </trkpt>
      <trkpt lat="43.46136" lon="6.43734">
        <ele>233</ele>
        <time>2021-04-05T11:58:48Z</time>
      </trkpt>
      <trkpt lat="43.46132" lon="6.43733">
        <ele>232.8</ele>
        <time>2021-04-05T11:58:54Z</time>
      </trkpt>
      <trkpt lat="43.46127" lon="6.43734">
        <ele>232.8</ele>
        <time>2021-04-05T11:59:26Z</time>
      </trkpt>
      <trkpt lat="43.46123" lon="6.43737">
        <ele>232.9</ele>
        <time>2021-04-05T11:59:35Z</time>
      </trkpt>
      <trkpt lat="43.4612" lon="6.43733">
        <ele>232.9</ele>
        <time>2021-04-05T11:59:52Z</time>
      </trkpt>
      <trkpt lat="43.46114" lon="6.43734">
        <ele>232.8</ele>
        <time>2021-04-05T11:59:59Z</time>
      </trkpt>
      <trkpt lat="43.4611" lon="6.43737">
        <ele>232.5</ele>
        <time>2021-04-05T12:00:04Z</time>
      </trkpt>
      <trkpt lat="43.46104" lon="6.43736">
        <ele>232.2</ele>
        <time>2021-04-05T12:00:08Z</time>
      </trkpt>
      <trkpt lat="43.46099" lon="6.4374">
        <ele>231.9</ele>
        <time>2021-04-05T12:00:13Z</time>
      </trkpt>
      <trkpt lat="43.46094" lon="6.43743">
        <ele>231.4</ele>
        <time>2021-04-05T12:00:19Z</time>
      </trkpt>
      <trkpt lat="43.46091" lon="6.43747">
        <ele>231.1</ele>
        <time>2021-04-05T12:00:23Z</time>
      </trkpt>
      <trkpt lat="43.46086" lon="6.43751">
        <ele>230.5</ele>
        <time>2021-04-05T12:00:29Z</time>
      </trkpt>
      <trkpt lat="43.46083" lon="6.43757">
        <ele>229.9</ele>
        <time>2021-04-05T12:00:35Z</time>
      </trkpt>
      <trkpt lat="43.4608" lon="6.43764">
        <ele>229.5</ele>
        <time>2021-04-05T12:00:39Z</time>
      </trkpt>
      <trkpt lat="43.46078" lon="6.4377">
        <ele>229</ele>
        <time>2021-04-05T12:00:45Z</time>
      </trkpt>
      <trkpt lat="43.46075" lon="6.43776">
        <ele>228.8</ele>
        <time>2021-04-05T12:00:49Z</time>
      </trkpt>
      <trkpt lat="43.46073" lon="6.43783">
        <ele>228.2</ele>
        <time>2021-04-05T12:00:54Z</time>
      </trkpt>
      <trkpt lat="43.46071" lon="6.43791">
        <ele>227.7</ele>
        <time>2021-04-05T12:00:59Z</time>
      </trkpt>
      <trkpt lat="43.46068" lon="6.43798">
        <ele>227.4</ele>
        <time>2021-04-05T12:01:03Z</time>
      </trkpt>
      <trkpt lat="43.46065" lon="6.43804">
        <ele>227.2</ele>
        <time>2021-04-05T12:01:06Z</time>
      </trkpt>
      <trkpt lat="43.46062" lon="6.43811">
        <ele>226.8</ele>
        <time>2021-04-05T12:01:10Z</time>
      </trkpt>
      <trkpt lat="43.46059" lon="6.43816">
        <ele>226.5</ele>
        <time>2021-04-05T12:01:14Z</time>
      </trkpt>
      <trkpt lat="43.46056" lon="6.43822">
        <ele>226.1</ele>
        <time>2021-04-05T12:01:19Z</time>
      </trkpt>
      <trkpt lat="43.46053" lon="6.43827">
        <ele>225.8</ele>
        <time>2021-04-05T12:01:24Z</time>
      </trkpt>
      <trkpt lat="43.46049" lon="6.43832">
        <ele>225.4</ele>
        <time>2021-04-05T12:01:28Z</time>
      </trkpt>
      <trkpt lat="43.46046" lon="6.43836">
        <ele>225</ele>
        <time>2021-04-05T12:01:33Z</time>
      </trkpt>
      <trkpt lat="43.46042" lon="6.43841">
        <ele>224.7</ele>
        <time>2021-04-05T12:01:37Z</time>
      </trkpt>
      <trkpt lat="43.4604" lon="6.43847">
        <ele>224.3</ele>
        <time>2021-04-05T12:01:42Z</time>
      </trkpt>
      <trkpt lat="43.46037" lon="6.43853">
        <ele>224</ele>
        <time>2021-04-05T12:01:46Z</time>
      </trkpt>
      <trkpt lat="43.46036" lon="6.43859">
        <ele>223.4</ele>
        <time>2021-04-05T12:01:50Z</time>
      </trkpt>
      <trkpt lat="43.46032" lon="6.43865">
        <ele>223.1</ele>
        <time>2021-04-05T12:01:53Z</time>
      </trkpt>
      <trkpt lat="43.46028" lon="6.43871">
        <ele>222.4</ele>
        <time>2021-04-05T12:02:00Z</time>
      </trkpt>
      <trkpt lat="43.46024" lon="6.43875">
        <ele>222.1</ele>
        <time>2021-04-05T12:02:03Z</time>
      </trkpt>
      <trkpt lat="43.46021" lon="6.4388">
        <ele>221.8</ele>
        <time>2021-04-05T12:02:07Z</time>
      </trkpt>
      <trkpt lat="43.46019" lon="6.43886">
        <ele>221.3</ele>
        <time>2021-04-05T12:02:12Z</time>
      </trkpt>
      <trkpt lat="43.46016" lon="6.4389">
        <ele>220.5</ele>
        <time>2021-04-05T12:02:18Z</time>
      </trkpt>
      <trkpt lat="43.46011" lon="6.43893">
        <ele>219.8</ele>
        <time>2021-04-05T12:02:23Z</time>
      </trkpt>
      <trkpt lat="43.46007" lon="6.43895">
        <ele>218.5</ele>
        <time>2021-04-05T12:02:33Z</time>
      </trkpt>
      <trkpt lat="43.46003" lon="6.43899">
        <ele>217.6</ele>
        <time>2021-04-05T12:02:41Z</time>
      </trkpt>
      <trkpt lat="43.46001" lon="6.43908">
        <ele>216.9</ele>
        <time>2021-04-05T12:02:46Z</time>
      </trkpt>
      <trkpt lat="43.45998" lon="6.43915">
        <ele>216.6</ele>
        <time>2021-04-05T12:02:49Z</time>
      </trkpt>
      <trkpt lat="43.45996" lon="6.43922">
        <ele>216.2</ele>
        <time>2021-04-05T12:02:52Z</time>
      </trkpt>
      <trkpt lat="43.45994" lon="6.4393">
        <ele>215.9</ele>
        <time>2021-04-05T12:02:55Z</time>
      </trkpt>
      <trkpt lat="43.45992" lon="6.43937">
        <ele>215.6</ele>
        <time>2021-04-05T12:02:58Z</time>
      </trkpt>
      <trkpt lat="43.45989" lon="6.43942">
        <ele>215.2</ele>
        <time>2021-04-05T12:03:02Z</time>
      </trkpt>
      <trkpt lat="43.45988" lon="6.4395">
        <ele>214.8</ele>
        <time>2021-04-05T12:03:06Z</time>
      </trkpt>
      <trkpt lat="43.45986" lon="6.43956">
        <ele>214</ele>
        <time>2021-04-05T12:03:12Z</time>
      </trkpt>
      <trkpt lat="43.45983" lon="6.43962">
        <ele>213.7</ele>
        <time>2021-04-05T12:03:15Z</time>
      </trkpt>
      <trkpt lat="43.45979" lon="6.43966">
        <ele>213.4</ele>
        <time>2021-04-05T12:03:18Z</time>
      </trkpt>
      <trkpt lat="43.45976" lon="6.43971">
        <ele>212.8</ele>
        <time>2021-04-05T12:03:24Z</time>
      </trkpt>
      <trkpt lat="43.45974" lon="6.43977">
        <ele>212.4</ele>
        <time>2021-04-05T12:03:29Z</time>
      </trkpt>
      <trkpt lat="43.45971" lon="6.43983">
        <ele>211.7</ele>
        <time>2021-04-05T12:03:34Z</time>
      </trkpt>
      <trkpt lat="43.45969" lon="6.4399">
        <ele>210.8</ele>
        <time>2021-04-05T12:03:40Z</time>
      </trkpt>
      <trkpt lat="43.45967" lon="6.43995">
        <ele>210.3</ele>
        <time>2021-04-05T12:03:44Z</time>
      </trkpt>
      <trkpt lat="43.45964" lon="6.44003">
        <ele>209.2</ele>
        <time>2021-04-05T12:03:50Z</time>
      </trkpt>
      <trkpt lat="43.45961" lon="6.44008">
        <ele>208.8</ele>
        <time>2021-04-05T12:03:53Z</time>
      </trkpt>
      <trkpt lat="43.45956" lon="6.44012">
        <ele>208.1</ele>
        <time>2021-04-05T12:03:59Z</time>
      </trkpt>
      <trkpt lat="43.45951" lon="6.44014">
        <ele>207.6</ele>
        <time>2021-04-05T12:04:05Z</time>
      </trkpt>
      <trkpt lat="43.45947" lon="6.4402">
        <ele>207.3</ele>
        <time>2021-04-05T12:04:09Z</time>
      </trkpt>
      <trkpt lat="43.45946" lon="6.44027">
        <ele>207.2</ele>
        <time>2021-04-05T12:04:14Z</time>
      </trkpt>
      <trkpt lat="43.45943" lon="6.44032">
        <ele>207.2</ele>
        <time>2021-04-05T12:04:20Z</time>
      </trkpt>
      <trkpt lat="43.4594" lon="6.44039">
        <ele>207.1</ele>
        <time>2021-04-05T12:04:25Z</time>
      </trkpt>
      <trkpt lat="43.45936" lon="6.44043">
        <ele>207.2</ele>
        <time>2021-04-05T12:04:30Z</time>
      </trkpt>
      <trkpt lat="43.45932" lon="6.44046">
        <ele>207.2</ele>
        <time>2021-04-05T12:04:35Z</time>
      </trkpt>
      <trkpt lat="43.45928" lon="6.4405">
        <ele>207.3</ele>
        <time>2021-04-05T12:04:39Z</time>
      </trkpt>
      <trkpt lat="43.45925" lon="6.44054">
        <ele>207.4</ele>
        <time>2021-04-05T12:04:44Z</time>
      </trkpt>
      <trkpt lat="43.45921" lon="6.44058">
        <ele>207.7</ele>
        <time>2021-04-05T12:04:48Z</time>
      </trkpt>
      <trkpt lat="43.45917" lon="6.4406">
        <ele>208.1</ele>
        <time>2021-04-05T12:04:53Z</time>
      </trkpt>
      <trkpt lat="43.45912" lon="6.44063">
        <ele>208.5</ele>
        <time>2021-04-05T12:04:59Z</time>
      </trkpt>
      <trkpt lat="43.45908" lon="6.44067">
        <ele>208.8</ele>
        <time>2021-04-05T12:05:05Z</time>
      </trkpt>
      <trkpt lat="43.45905" lon="6.44072">
        <ele>209</ele>
        <time>2021-04-05T12:05:09Z</time>
      </trkpt>
      <trkpt lat="43.459" lon="6.44075">
        <ele>209.6</ele>
        <time>2021-04-05T12:05:16Z</time>
      </trkpt>
      <trkpt lat="43.45894" lon="6.44076">
        <ele>210</ele>
        <time>2021-04-05T12:05:20Z</time>
      </trkpt>
      <trkpt lat="43.45888" lon="6.44078">
        <ele>210.4</ele>
        <time>2021-04-05T12:05:25Z</time>
      </trkpt>
      <trkpt lat="43.45883" lon="6.4408">
        <ele>211</ele>
        <time>2021-04-05T12:05:32Z</time>
      </trkpt>
      <trkpt lat="43.45878" lon="6.44079">
        <ele>211.4</ele>
        <time>2021-04-05T12:05:36Z</time>
      </trkpt>
      <trkpt lat="43.45873" lon="6.4408">
        <ele>211.8</ele>
        <time>2021-04-05T12:05:40Z</time>
      </trkpt>
      <trkpt lat="43.45868" lon="6.44081">
        <ele>211.9</ele>
        <time>2021-04-05T12:05:43Z</time>
      </trkpt>
      <trkpt lat="43.45863" lon="6.44081">
        <ele>212.3</ele>
        <time>2021-04-05T12:05:47Z</time>
      </trkpt>
      <trkpt lat="43.45859" lon="6.44084">
        <ele>212.8</ele>
        <time>2021-04-05T12:05:52Z</time>
      </trkpt>
      <trkpt lat="43.45852" lon="6.44085">
        <ele>213</ele>
        <time>2021-04-05T12:05:57Z</time>
      </trkpt>
      <trkpt lat="43.45847" lon="6.44087">
        <ele>214.3</ele>
        <time>2021-04-05T12:06:03Z</time>
      </trkpt>
      <trkpt lat="43.45841" lon="6.44086">
        <ele>214.8</ele>
        <time>2021-04-05T12:06:07Z</time>
      </trkpt>
      <trkpt lat="43.45837" lon="6.44088">
        <ele>215.2</ele>
        <time>2021-04-05T12:06:11Z</time>
      </trkpt>
      <trkpt lat="43.45832" lon="6.44087">
        <ele>215.7</ele>
        <time>2021-04-05T12:06:14Z</time>
      </trkpt>
      <trkpt lat="43.45827" lon="6.44087">
        <ele>216.1</ele>
        <time>2021-04-05T12:06:17Z</time>
      </trkpt>
      <trkpt lat="43.45821" lon="6.44088">
        <ele>216.7</ele>
        <time>2021-04-05T12:06:22Z</time>
      </trkpt>
      <trkpt lat="43.45817" lon="6.44088">
        <ele>217.1</ele>
        <time>2021-04-05T12:06:26Z</time>
      </trkpt>
      <trkpt lat="43.45812" lon="6.44087">
        <ele>217.6</ele>
        <time>2021-04-05T12:06:31Z</time>
      </trkpt>
      <trkpt lat="43.45807" lon="6.44088">
        <ele>218.3</ele>
        <time>2021-04-05T12:06:37Z</time>
      </trkpt>
      <trkpt lat="43.45802" lon="6.44089">
        <ele>218.8</ele>
        <time>2021-04-05T12:06:42Z</time>
      </trkpt>
      <trkpt lat="43.45796" lon="6.44089">
        <ele>219.2</ele>
        <time>2021-04-05T12:06:46Z</time>
      </trkpt>
      <trkpt lat="43.45791" lon="6.44088">
        <ele>219.7</ele>
        <time>2021-04-05T12:06:49Z</time>
      </trkpt>
      <trkpt lat="43.45787" lon="6.44086">
        <ele>220.4</ele>
        <time>2021-04-05T12:06:54Z</time>
      </trkpt>
      <trkpt lat="43.45782" lon="6.44085">
        <ele>221.2</ele>
        <time>2021-04-05T12:07:00Z</time>
      </trkpt>
      <trkpt lat="43.45778" lon="6.44082">
        <ele>221.8</ele>
        <time>2021-04-05T12:07:04Z</time>
      </trkpt>
      <trkpt lat="43.45773" lon="6.44078">
        <ele>222.4</ele>
        <time>2021-04-05T12:07:09Z</time>
      </trkpt>
      <trkpt lat="43.45769" lon="6.44073">
        <ele>223.1</ele>
        <time>2021-04-05T12:07:14Z</time>
      </trkpt>
      <trkpt lat="43.45766" lon="6.44068">
        <ele>223.8</ele>
        <time>2021-04-05T12:07:20Z</time>
      </trkpt>
      <trkpt lat="43.45763" lon="6.44063">
        <ele>224.5</ele>
        <time>2021-04-05T12:07:26Z</time>
      </trkpt>
      <trkpt lat="43.4576" lon="6.44057">
        <ele>225</ele>
        <time>2021-04-05T12:07:31Z</time>
      </trkpt>
      <trkpt lat="43.45758" lon="6.44051">
        <ele>225.5</ele>
        <time>2021-04-05T12:07:36Z</time>
      </trkpt>
      <trkpt lat="43.45755" lon="6.44045">
        <ele>226</ele>
        <time>2021-04-05T12:07:41Z</time>
      </trkpt>
      <trkpt lat="43.45753" lon="6.44038">
        <ele>226.5</ele>
        <time>2021-04-05T12:07:46Z</time>
      </trkpt>
      <trkpt lat="43.45751" lon="6.44032">
        <ele>227</ele>
        <time>2021-04-05T12:07:51Z</time>
      </trkpt>
      <trkpt lat="43.45749" lon="6.44025">
        <ele>227.4</ele>
        <time>2021-04-05T12:07:56Z</time>
      </trkpt>
      <trkpt lat="43.45748" lon="6.44019">
        <ele>227.8</ele>
        <time>2021-04-05T12:08:01Z</time>
      </trkpt>
      <trkpt lat="43.45747" lon="6.44013">
        <ele>228.3</ele>
        <time>2021-04-05T12:08:06Z</time>
      </trkpt>
      <trkpt lat="43.45747" lon="6.44006">
        <ele>228.9</ele>
        <time>2021-04-05T12:08:12Z</time>
      </trkpt>
      <trkpt lat="43.45746" lon="6.43999">
        <ele>229.5</ele>
        <time>2021-04-05T12:08:17Z</time>
      </trkpt>
      <trkpt lat="43.45746" lon="6.43993">
        <ele>230.1</ele>
        <time>2021-04-05T12:08:22Z</time>
      </trkpt>
      <trkpt lat="43.45746" lon="6.43986">
        <ele>230.8</ele>
        <time>2021-04-05T12:08:27Z</time>
      </trkpt>
      <trkpt lat="43.45746" lon="6.43979">
        <ele>231.3</ele>
        <time>2021-04-05T12:08:32Z</time>
      </trkpt>
      <trkpt lat="43.45747" lon="6.43972">
        <ele>231.7</ele>
        <time>2021-04-05T12:08:37Z</time>
      </trkpt>
      <trkpt lat="43.45748" lon="6.43967">
        <ele>232</ele>
        <time>2021-04-05T12:08:42Z</time>
      </trkpt>
      <trkpt lat="43.4575" lon="6.4396">
        <ele>232.6</ele>
        <time>2021-04-05T12:08:47Z</time>
      </trkpt>
      <trkpt lat="43.45751" lon="6.43954">
        <ele>233.3</ele>
        <time>2021-04-05T12:08:52Z</time>
      </trkpt>
      <trkpt lat="43.45753" lon="6.43947">
        <ele>233.9</ele>
        <time>2021-04-05T12:08:57Z</time>
      </trkpt>
      <trkpt lat="43.45754" lon="6.4394">
        <ele>234.5</ele>
        <time>2021-04-05T12:09:02Z</time>
      </trkpt>
      <trkpt lat="43.45754" lon="6.43934">
        <ele>235.1</ele>
        <time>2021-04-05T12:09:07Z</time>
      </trkpt>
      <trkpt lat="43.45754" lon="6.43927">
        <ele>235.6</ele>
        <time>2021-04-05T12:09:12Z</time>
      </trkpt>
      <trkpt lat="43.45753" lon="6.43919">
        <ele>236</ele>
        <time>2021-04-05T12:09:17Z</time>
      </trkpt>
      <trkpt lat="43.45752" lon="6.43912">
        <ele>236.4</ele>
        <time>2021-04-05T12:09:22Z</time>
      </trkpt>
      <trkpt lat="43.45751" lon="6.43904">
        <ele>236.6</ele>
        <time>2021-04-05T12:09:27Z</time>
      </trkpt>
      <trkpt lat="43.45751" lon="6.43897">
        <ele>237</ele>
        <time>2021-04-05T12:09:32Z</time>
      </trkpt>
      <trkpt lat="43.4575" lon="6.43891">
        <ele>237.4</ele>
        <time>2021-04-05T12:09:36Z</time>
      </trkpt>
      <trkpt lat="43.45748" lon="6.43884">
        <ele>237.7</ele>
        <time>2021-04-05T12:09:40Z</time>
      </trkpt>
      <trkpt lat="43.45747" lon="6.43877">
        <ele>238.2</ele>
        <time>2021-04-05T12:09:45Z</time>
      </trkpt>
      <trkpt lat="43.45745" lon="6.4387">
        <ele>238.8</ele>
        <time>2021-04-05T12:09:50Z</time>
      </trkpt>
      <trkpt lat="43.45744" lon="6.43863">
        <ele>239.2</ele>
        <time>2021-04-05T12:09:55Z</time>
      </trkpt>
      <trkpt lat="43.45742" lon="6.43856">
        <ele>239.7</ele>
        <time>2021-04-05T12:10:01Z</time>
      </trkpt>
      <trkpt lat="43.45741" lon="6.43849">
        <ele>240.5</ele>
        <time>2021-04-05T12:10:06Z</time>
      </trkpt>
      <trkpt lat="43.4574" lon="6.43843">
        <ele>241.3</ele>
        <time>2021-04-05T12:10:11Z</time>
      </trkpt>
      <trkpt lat="43.45739" lon="6.43836">
        <ele>241.8</ele>
        <time>2021-04-05T12:10:16Z</time>
      </trkpt>
      <trkpt lat="43.45736" lon="6.43829">
        <ele>242.6</ele>
        <time>2021-04-05T12:10:21Z</time>
      </trkpt>
      <trkpt lat="43.45734" lon="6.43824">
        <ele>243</ele>
        <time>2021-04-05T12:10:25Z</time>
      </trkpt>
      <trkpt lat="43.45731" lon="6.43818">
        <ele>243.5</ele>
        <time>2021-04-05T12:10:30Z</time>
      </trkpt>
      <trkpt lat="43.45728" lon="6.43812">
        <ele>244</ele>
        <time>2021-04-05T12:10:34Z</time>
      </trkpt>
      <trkpt lat="43.45726" lon="6.43806">
        <ele>244.8</ele>
        <time>2021-04-05T12:10:39Z</time>
      </trkpt>
      <trkpt lat="43.45723" lon="6.438">
        <ele>245.5</ele>
        <time>2021-04-05T12:10:44Z</time>
      </trkpt>
      <trkpt lat="43.45719" lon="6.43795">
        <ele>246</ele>
        <time>2021-04-05T12:10:49Z</time>
      </trkpt>
      <trkpt lat="43.45716" lon="6.4379">
        <ele>246.3</ele>
        <time>2021-04-05T12:10:53Z</time>
      </trkpt>
      <trkpt lat="43.45713" lon="6.43784">
        <ele>247</ele>
        <time>2021-04-05T12:10:58Z</time>
      </trkpt>
      <trkpt lat="43.45709" lon="6.43779">
        <ele>247.6</ele>
        <time>2021-04-05T12:11:03Z</time>
      </trkpt>
      <trkpt lat="43.45706" lon="6.43772">
        <ele>248.5</ele>
        <time>2021-04-05T12:11:09Z</time>
      </trkpt>
      <trkpt lat="43.45704" lon="6.43766">
        <ele>249.1</ele>
        <time>2021-04-05T12:11:14Z</time>
      </trkpt>
      <trkpt lat="43.45699" lon="6.43761">
        <ele>249.7</ele>
        <time>2021-04-05T12:11:20Z</time>
      </trkpt>
      <trkpt lat="43.45697" lon="6.43756">
        <ele>250.2</ele>
        <time>2021-04-05T12:11:26Z</time>
      </trkpt>
      <trkpt lat="43.45693" lon="6.43752">
        <ele>251</ele>
        <time>2021-04-05T12:11:47Z</time>
      </trkpt>
      <trkpt lat="43.45674" lon="6.4376">
        <ele>252</ele>
        <time>2021-04-05T12:12:32Z</time>
      </trkpt>
      <trkpt lat="43.45679" lon="6.43757">
        <ele>252</ele>
        <time>2021-04-05T12:12:51Z</time>
      </trkpt>
      <trkpt lat="43.45684" lon="6.43755">
        <ele>252</ele>
        <time>2021-04-05T12:12:59Z</time>
      </trkpt>
      <trkpt lat="43.4569" lon="6.43749">
        <ele>252.2</ele>
        <time>2021-04-05T12:13:04Z</time>
      </trkpt>
      <trkpt lat="43.45685" lon="6.43751">
        <ele>252.2</ele>
        <time>2021-04-05T12:13:08Z</time>
      </trkpt>
      <trkpt lat="43.45683" lon="6.43745">
        <ele>252.4</ele>
        <time>2021-04-05T12:13:14Z</time>
      </trkpt>
      <trkpt lat="43.45679" lon="6.4374">
        <ele>253.2</ele>
        <time>2021-04-05T12:13:22Z</time>
      </trkpt>
      <trkpt lat="43.45675" lon="6.43736">
        <ele>253.8</ele>
        <time>2021-04-05T12:13:28Z</time>
      </trkpt>
      <trkpt lat="43.4567" lon="6.43732">
        <ele>254.3</ele>
        <time>2021-04-05T12:13:35Z</time>
      </trkpt>
      <trkpt lat="43.45666" lon="6.43731">
        <ele>254.8</ele>
        <time>2021-04-05T12:13:41Z</time>
      </trkpt>
      <trkpt lat="43.45662" lon="6.43729">
        <ele>255.1</ele>
        <time>2021-04-05T12:13:45Z</time>
      </trkpt>
      <trkpt lat="43.45657" lon="6.43727">
        <ele>255.3</ele>
        <time>2021-04-05T12:13:49Z</time>
      </trkpt>
      <trkpt lat="43.45652" lon="6.43727">
        <ele>255.7</ele>
        <time>2021-04-05T12:13:53Z</time>
      </trkpt>
      <trkpt lat="43.45648" lon="6.43726">
        <ele>256</ele>
        <time>2021-04-05T12:13:57Z</time>
      </trkpt>
      <trkpt lat="43.45643" lon="6.43724">
        <ele>256.2</ele>
        <time>2021-04-05T12:14:02Z</time>
      </trkpt>
      <trkpt lat="43.45638" lon="6.43723">
        <ele>256.4</ele>
        <time>2021-04-05T12:14:07Z</time>
      </trkpt>
      <trkpt lat="43.45633" lon="6.43722">
        <ele>256.6</ele>
        <time>2021-04-05T12:14:11Z</time>
      </trkpt>
      <trkpt lat="43.45628" lon="6.43722">
        <ele>257.2</ele>
        <time>2021-04-05T12:14:17Z</time>
      </trkpt>
      <trkpt lat="43.45623" lon="6.43721">
        <ele>257.6</ele>
        <time>2021-04-05T12:14:22Z</time>
      </trkpt>
      <trkpt lat="43.45618" lon="6.43721">
        <ele>258.1</ele>
        <time>2021-04-05T12:14:27Z</time>
      </trkpt>
      <trkpt lat="43.45614" lon="6.43721">
        <ele>258.6</ele>
        <time>2021-04-05T12:14:32Z</time>
      </trkpt>
      <trkpt lat="43.45609" lon="6.43723">
        <ele>259.4</ele>
        <time>2021-04-05T12:14:41Z</time>
      </trkpt>
      <trkpt lat="43.45604" lon="6.43723">
        <ele>260.2</ele>
        <time>2021-04-05T12:14:46Z</time>
      </trkpt>
      <trkpt lat="43.456" lon="6.43724">
        <ele>260.8</ele>
        <time>2021-04-05T12:14:51Z</time>
      </trkpt>
      <trkpt lat="43.45595" lon="6.43724">
        <ele>261.3</ele>
        <time>2021-04-05T12:14:56Z</time>
      </trkpt>
      <trkpt lat="43.4559" lon="6.43724">
        <ele>261.8</ele>
        <time>2021-04-05T12:15:02Z</time>
      </trkpt>
      <trkpt lat="43.45585" lon="6.43726">
        <ele>262.2</ele>
        <time>2021-04-05T12:15:08Z</time>
      </trkpt>
      <trkpt lat="43.45581" lon="6.43727">
        <ele>262.8</ele>
        <time>2021-04-05T12:15:14Z</time>
      </trkpt>
      <trkpt lat="43.45575" lon="6.43728">
        <ele>263.6</ele>
        <time>2021-04-05T12:15:20Z</time>
      </trkpt>
      <trkpt lat="43.45571" lon="6.43729">
        <ele>264.3</ele>
        <time>2021-04-05T12:15:26Z</time>
      </trkpt>
      <trkpt lat="43.45566" lon="6.43731">
        <ele>265</ele>
        <time>2021-04-05T12:15:33Z</time>
      </trkpt>
      <trkpt lat="43.45562" lon="6.43734">
        <ele>265.5</ele>
        <time>2021-04-05T12:15:39Z</time>
      </trkpt>
      <trkpt lat="43.45557" lon="6.43736">
        <ele>265.9</ele>
        <time>2021-04-05T12:15:44Z</time>
      </trkpt>
      <trkpt lat="43.45553" lon="6.43738">
        <ele>266.4</ele>
        <time>2021-04-05T12:15:48Z</time>
      </trkpt>
      <trkpt lat="43.45548" lon="6.43739">
        <ele>266.9</ele>
        <time>2021-04-05T12:15:53Z</time>
      </trkpt>
      <trkpt lat="43.45543" lon="6.43742">
        <ele>267.7</ele>
        <time>2021-04-05T12:15:59Z</time>
      </trkpt>
      <trkpt lat="43.45538" lon="6.43745">
        <ele>268.5</ele>
        <time>2021-04-05T12:16:04Z</time>
      </trkpt>
      <trkpt lat="43.45534" lon="6.43747">
        <ele>269.5</ele>
        <time>2021-04-05T12:16:13Z</time>
      </trkpt>
      <trkpt lat="43.45529" lon="6.43749">
        <ele>270</ele>
        <time>2021-04-05T12:16:20Z</time>
      </trkpt>
      <trkpt lat="43.45524" lon="6.43751">
        <ele>270.3</ele>
        <time>2021-04-05T12:16:25Z</time>
      </trkpt>
      <trkpt lat="43.45519" lon="6.43752">
        <ele>270.9</ele>
        <time>2021-04-05T12:16:31Z</time>
      </trkpt>
      <trkpt lat="43.45514" lon="6.43756">
        <ele>271.5</ele>
        <time>2021-04-05T12:16:37Z</time>
      </trkpt>
      <trkpt lat="43.45511" lon="6.43761">
        <ele>271.9</ele>
        <time>2021-04-05T12:16:42Z</time>
      </trkpt>
      <trkpt lat="43.45507" lon="6.43764">
        <ele>272.6</ele>
        <time>2021-04-05T12:16:48Z</time>
      </trkpt>
      <trkpt lat="43.45502" lon="6.43763">
        <ele>274</ele>
        <time>2021-04-05T12:17:01Z</time>
      </trkpt>
      <trkpt lat="43.45501" lon="6.4377">
        <ele>274.5</ele>
        <time>2021-04-05T12:17:50Z</time>
      </trkpt>
      <trkpt lat="43.455" lon="6.43776">
        <ele>274.5</ele>
        <time>2021-04-05T12:17:57Z</time>
      </trkpt>
      <trkpt lat="43.45498" lon="6.43782">
        <ele>274.6</ele>
        <time>2021-04-05T12:18:02Z</time>
      </trkpt>
      <trkpt lat="43.45502" lon="6.43785">
        <ele>274.4</ele>
        <time>2021-04-05T12:18:20Z</time>
      </trkpt>
      <trkpt lat="43.45498" lon="6.43789">
        <ele>274.3</ele>
        <time>2021-04-05T12:18:31Z</time>
      </trkpt>
      <trkpt lat="43.45496" lon="6.43795">
        <ele>274.2</ele>
        <time>2021-04-05T12:18:37Z</time>
      </trkpt>
      <trkpt lat="43.45492" lon="6.43798">
        <ele>274.1</ele>
        <time>2021-04-05T12:18:44Z</time>
      </trkpt>
      <trkpt lat="43.4549" lon="6.43806">
        <ele>274</ele>
        <time>2021-04-05T12:18:49Z</time>
      </trkpt>
      <trkpt lat="43.4549" lon="6.43813">
        <ele>273.9</ele>
        <time>2021-04-05T12:18:54Z</time>
      </trkpt>
      <trkpt lat="43.45487" lon="6.43818">
        <ele>273.8</ele>
        <time>2021-04-05T12:19:00Z</time>
      </trkpt>
      <trkpt lat="43.45486" lon="6.43825">
        <ele>273.3</ele>
        <time>2021-04-05T12:19:09Z</time>
      </trkpt>
      <trkpt lat="43.45481" lon="6.43827">
        <ele>273</ele>
        <time>2021-04-05T12:19:16Z</time>
      </trkpt>
      <trkpt lat="43.45477" lon="6.43826">
        <ele>272.7</ele>
        <time>2021-04-05T12:19:29Z</time>
      </trkpt>
      <trkpt lat="43.45479" lon="6.43831">
        <ele>270.4</ele>
        <time>2021-04-05T12:20:30Z</time>
      </trkpt>
      <trkpt lat="43.45474" lon="6.43833">
        <ele>269.8</ele>
        <time>2021-04-05T12:21:21Z</time>
      </trkpt>
      <trkpt lat="43.4547" lon="6.43834">
        <ele>268.3</ele>
        <time>2021-04-05T12:23:42Z</time>
      </trkpt>
      <trkpt lat="43.45474" lon="6.43831">
        <ele>268.3</ele>
        <time>2021-04-05T12:25:07Z</time>
      </trkpt>
      <trkpt lat="43.45478" lon="6.43829">
        <ele>268</ele>
        <time>2021-04-05T12:25:53Z</time>
      </trkpt>
      <trkpt lat="43.45482" lon="6.43831">
        <ele>267.2</ele>
        <time>2021-04-05T12:26:34Z</time>
      </trkpt>
      <trkpt lat="43.45486" lon="6.43827">
        <ele>266.7</ele>
        <time>2021-04-05T12:26:40Z</time>
      </trkpt>
      <trkpt lat="43.45488" lon="6.4382">
        <ele>266.4</ele>
        <time>2021-04-05T12:26:46Z</time>
      </trkpt>
      <trkpt lat="43.45489" lon="6.43814">
        <ele>266.1</ele>
        <time>2021-04-05T12:26:51Z</time>
      </trkpt>
      <trkpt lat="43.45492" lon="6.43807">
        <ele>265.9</ele>
        <time>2021-04-05T12:26:57Z</time>
      </trkpt>
      <trkpt lat="43.45495" lon="6.43802">
        <ele>265.8</ele>
        <time>2021-04-05T12:27:02Z</time>
      </trkpt>
      <trkpt lat="43.45499" lon="6.43798">
        <ele>265.7</ele>
        <time>2021-04-05T12:27:07Z</time>
      </trkpt>
      <trkpt lat="43.45503" lon="6.43794">
        <ele>265.7</ele>
        <time>2021-04-05T12:27:12Z</time>
      </trkpt>
      <trkpt lat="43.45507" lon="6.4379">
        <ele>265.7</ele>
        <time>2021-04-05T12:27:19Z</time>
      </trkpt>
      <trkpt lat="43.4551" lon="6.43783">
        <ele>265.6</ele>
        <time>2021-04-05T12:27:23Z</time>
      </trkpt>
      <trkpt lat="43.45512" lon="6.43777">
        <ele>265.4</ele>
        <time>2021-04-05T12:27:28Z</time>
      </trkpt>
      <trkpt lat="43.45514" lon="6.43771">
        <ele>265.2</ele>
        <time>2021-04-05T12:27:33Z</time>
      </trkpt>
      <trkpt lat="43.45518" lon="6.43768">
        <ele>265</ele>
        <time>2021-04-05T12:27:38Z</time>
      </trkpt>
      <trkpt lat="43.45523" lon="6.43765">
        <ele>264.6</ele>
        <time>2021-04-05T12:27:44Z</time>
      </trkpt>
      <trkpt lat="43.45527" lon="6.43762">
        <ele>264.3</ele>
        <time>2021-04-05T12:27:48Z</time>
      </trkpt>
      <trkpt lat="43.4553" lon="6.43757">
        <ele>264</ele>
        <time>2021-04-05T12:27:52Z</time>
      </trkpt>
      <trkpt lat="43.45534" lon="6.43752">
        <ele>263.6</ele>
        <time>2021-04-05T12:27:57Z</time>
      </trkpt>
      <trkpt lat="43.45539" lon="6.43749">
        <ele>263.2</ele>
        <time>2021-04-05T12:28:02Z</time>
      </trkpt>
      <trkpt lat="43.45544" lon="6.43745">
        <ele>262.9</ele>
        <time>2021-04-05T12:28:08Z</time>
      </trkpt>
      <trkpt lat="43.45548" lon="6.43739">
        <ele>262.7</ele>
        <time>2021-04-05T12:28:12Z</time>
      </trkpt>
      <trkpt lat="43.4555" lon="6.43733">
        <ele>262.4</ele>
        <time>2021-04-05T12:28:17Z</time>
      </trkpt>
      <trkpt lat="43.45551" lon="6.43727">
        <ele>262.2</ele>
        <time>2021-04-05T12:28:21Z</time>
      </trkpt>
      <trkpt lat="43.45552" lon="6.43721">
        <ele>262.1</ele>
        <time>2021-04-05T12:28:25Z</time>
      </trkpt>
      <trkpt lat="43.45551" lon="6.43714">
        <ele>262</ele>
        <time>2021-04-05T12:28:30Z</time>
      </trkpt>
      <trkpt lat="43.45549" lon="6.43708">
        <ele>261.9</ele>
        <time>2021-04-05T12:28:34Z</time>
      </trkpt>
      <trkpt lat="43.45547" lon="6.43702">
        <ele>262</ele>
        <time>2021-04-05T12:28:38Z</time>
      </trkpt>
      <trkpt lat="43.45546" lon="6.43695">
        <ele>261.9</ele>
        <time>2021-04-05T12:28:43Z</time>
      </trkpt>
      <trkpt lat="43.45544" lon="6.43688">
        <ele>261.8</ele>
        <time>2021-04-05T12:28:48Z</time>
      </trkpt>
      <trkpt lat="43.45539" lon="6.43684">
        <ele>261.7</ele>
        <time>2021-04-05T12:28:53Z</time>
      </trkpt>
      <trkpt lat="43.45537" lon="6.43679">
        <ele>260.4</ele>
        <time>2021-04-05T12:29:30Z</time>
      </trkpt>
      <trkpt lat="43.45538" lon="6.43673">
        <ele>259.7</ele>
        <time>2021-04-05T12:29:52Z</time>
      </trkpt>
      <trkpt lat="43.4554" lon="6.43666">
        <ele>258.9</ele>
        <time>2021-04-05T12:30:25Z</time>
      </trkpt>
      <trkpt lat="43.45545" lon="6.43669">
        <ele>258</ele>
        <time>2021-04-05T12:31:05Z</time>
      </trkpt>
      <trkpt lat="43.45549" lon="6.43672">
        <ele>257.7</ele>
        <time>2021-04-05T12:31:13Z</time>
      </trkpt>
      <trkpt lat="43.45553" lon="6.43675">
        <ele>257.7</ele>
        <time>2021-04-05T12:31:18Z</time>
      </trkpt>
      <trkpt lat="43.45559" lon="6.43676">
        <ele>257.8</ele>
        <time>2021-04-05T12:31:24Z</time>
      </trkpt>
      <trkpt lat="43.45563" lon="6.43672">
        <ele>258</ele>
        <time>2021-04-05T12:32:15Z</time>
      </trkpt>
      <trkpt lat="43.45567" lon="6.43671">
        <ele>257.9</ele>
        <time>2021-04-05T12:32:26Z</time>
      </trkpt>
      <trkpt lat="43.45562" lon="6.43672">
        <ele>257.4</ele>
        <time>2021-04-05T12:33:07Z</time>
      </trkpt>
      <trkpt lat="43.45561" lon="6.43666">
        <ele>257.3</ele>
        <time>2021-04-05T12:33:14Z</time>
      </trkpt>
      <trkpt lat="43.45564" lon="6.43661">
        <ele>257.3</ele>
        <time>2021-04-05T12:33:18Z</time>
      </trkpt>
      <trkpt lat="43.45569" lon="6.43658">
        <ele>256.9</ele>
        <time>2021-04-05T12:33:37Z</time>
      </trkpt>
      <trkpt lat="43.45572" lon="6.43653">
        <ele>256.4</ele>
        <time>2021-04-05T12:34:02Z</time>
      </trkpt>
      <trkpt lat="43.45574" lon="6.43647">
        <ele>256.3</ele>
        <time>2021-04-05T12:34:07Z</time>
      </trkpt>
      <trkpt lat="43.45574" lon="6.43641">
        <ele>256.1</ele>
        <time>2021-04-05T12:34:12Z</time>
      </trkpt>
      <trkpt lat="43.45576" lon="6.43635">
        <ele>255.8</ele>
        <time>2021-04-05T12:34:16Z</time>
      </trkpt>
      <trkpt lat="43.45575" lon="6.43629">
        <ele>255.4</ele>
        <time>2021-04-05T12:34:22Z</time>
      </trkpt>
      <trkpt lat="43.45574" lon="6.43622">
        <ele>254.2</ele>
        <time>2021-04-05T12:34:40Z</time>
      </trkpt>
      <trkpt lat="43.45577" lon="6.43617">
        <ele>253</ele>
        <time>2021-04-05T12:36:26Z</time>
      </trkpt>
      <trkpt lat="43.45572" lon="6.43615">
        <ele>253.2</ele>
        <time>2021-04-05T12:37:48Z</time>
      </trkpt>
      <trkpt lat="43.4557" lon="6.43609">
        <ele>253.2</ele>
        <time>2021-04-05T12:37:54Z</time>
      </trkpt>
      <trkpt lat="43.45568" lon="6.43603">
        <ele>253.3</ele>
        <time>2021-04-05T12:38:00Z</time>
      </trkpt>
      <trkpt lat="43.45566" lon="6.43597">
        <ele>253.3</ele>
        <time>2021-04-05T12:38:06Z</time>
      </trkpt>
      <trkpt lat="43.45562" lon="6.43592">
        <ele>253.2</ele>
        <time>2021-04-05T12:38:11Z</time>
      </trkpt>
      <trkpt lat="43.45558" lon="6.43588">
        <ele>253.1</ele>
        <time>2021-04-05T12:38:16Z</time>
      </trkpt>
      <trkpt lat="43.45554" lon="6.43584">
        <ele>252.8</ele>
        <time>2021-04-05T12:38:21Z</time>
      </trkpt>
      <trkpt lat="43.45551" lon="6.43579">
        <ele>252.5</ele>
        <time>2021-04-05T12:38:29Z</time>
      </trkpt>
      <trkpt lat="43.45546" lon="6.43575">
        <ele>252</ele>
        <time>2021-04-05T12:38:36Z</time>
      </trkpt>
      <trkpt lat="43.45543" lon="6.43571">
        <ele>251.7</ele>
        <time>2021-04-05T12:38:43Z</time>
      </trkpt>
      <trkpt lat="43.45538" lon="6.43568">
        <ele>251.4</ele>
        <time>2021-04-05T12:38:49Z</time>
      </trkpt>
      <trkpt lat="43.45538" lon="6.43562">
        <ele>249.7</ele>
        <time>2021-04-05T12:39:39Z</time>
      </trkpt>
      <trkpt lat="43.45536" lon="6.43556">
        <ele>248.9</ele>
        <time>2021-04-05T12:40:01Z</time>
      </trkpt>
      <trkpt lat="43.45541" lon="6.43558">
        <ele>249.1</ele>
        <time>2021-04-05T12:40:12Z</time>
      </trkpt>
      <trkpt lat="43.45544" lon="6.43562">
        <ele>249</ele>
        <time>2021-04-05T12:40:17Z</time>
      </trkpt>
      <trkpt lat="43.45548" lon="6.43567">
        <ele>249</ele>
        <time>2021-04-05T12:40:24Z</time>
      </trkpt>
      <trkpt lat="43.45551" lon="6.4357">
        <ele>249</ele>
        <time>2021-04-05T12:40:29Z</time>
      </trkpt>
      <trkpt lat="43.45555" lon="6.43574">
        <ele>249.1</ele>
        <time>2021-04-05T12:40:34Z</time>
      </trkpt>
      <trkpt lat="43.45559" lon="6.43578">
        <ele>249.3</ele>
        <time>2021-04-05T12:40:39Z</time>
      </trkpt>
      <trkpt lat="43.45563" lon="6.43582">
        <ele>249.5</ele>
        <time>2021-04-05T12:40:44Z</time>
      </trkpt>
      <trkpt lat="43.45568" lon="6.43586">
        <ele>249.6</ele>
        <time>2021-04-05T12:40:48Z</time>
      </trkpt>
      <trkpt lat="43.45572" lon="6.43589">
        <ele>249.8</ele>
        <time>2021-04-05T12:40:52Z</time>
      </trkpt>
      <trkpt lat="43.45576" lon="6.43591">
        <ele>249.8</ele>
        <time>2021-04-05T12:40:57Z</time>
      </trkpt>
      <trkpt lat="43.45579" lon="6.43586">
        <ele>249.8</ele>
        <time>2021-04-05T12:41:03Z</time>
      </trkpt>
      <trkpt lat="43.45578" lon="6.43579">
        <ele>249.5</ele>
        <time>2021-04-05T12:41:09Z</time>
      </trkpt>
      <trkpt lat="43.45577" lon="6.43573">
        <ele>248.9</ele>
        <time>2021-04-05T12:41:15Z</time>
      </trkpt>
      <trkpt lat="43.45573" lon="6.43568">
        <ele>248.5</ele>
        <time>2021-04-05T12:41:20Z</time>
      </trkpt>
      <trkpt lat="43.45571" lon="6.43562">
        <ele>248</ele>
        <time>2021-04-05T12:41:26Z</time>
      </trkpt>
      <trkpt lat="43.45568" lon="6.43556">
        <ele>247.5</ele>
        <time>2021-04-05T12:41:33Z</time>
      </trkpt>
      <trkpt lat="43.45565" lon="6.4355">
        <ele>246.9</ele>
        <time>2021-04-05T12:41:39Z</time>
      </trkpt>
      <trkpt lat="43.45563" lon="6.43544">
        <ele>245.2</ele>
        <time>2021-04-05T12:42:04Z</time>
      </trkpt>
      <trkpt lat="43.4556" lon="6.43539">
        <ele>244.7</ele>
        <time>2021-04-05T12:42:12Z</time>
      </trkpt>
      <trkpt lat="43.45557" lon="6.43533">
        <ele>244</ele>
        <time>2021-04-05T12:42:19Z</time>
      </trkpt>
      <trkpt lat="43.45554" lon="6.43529">
        <ele>243.4</ele>
        <time>2021-04-05T12:42:25Z</time>
      </trkpt>
      <trkpt lat="43.4555" lon="6.43524">
        <ele>242.6</ele>
        <time>2021-04-05T12:42:33Z</time>
      </trkpt>
      <trkpt lat="43.45545" lon="6.43523">
        <ele>242</ele>
        <time>2021-04-05T12:42:41Z</time>
      </trkpt>
      <trkpt lat="43.4554" lon="6.4352">
        <ele>241.7</ele>
        <time>2021-04-05T12:42:47Z</time>
      </trkpt>
      <trkpt lat="43.45537" lon="6.43516">
        <ele>241.4</ele>
        <time>2021-04-05T12:42:59Z</time>
      </trkpt>
      <trkpt lat="43.45535" lon="6.4351">
        <ele>240.6</ele>
        <time>2021-04-05T12:43:09Z</time>
      </trkpt>
      <trkpt lat="43.45532" lon="6.43505">
        <ele>239.2</ele>
        <time>2021-04-05T12:43:21Z</time>
      </trkpt>
      <trkpt lat="43.45534" lon="6.43499">
        <ele>237.3</ele>
        <time>2021-04-05T12:43:34Z</time>
      </trkpt>
      <trkpt lat="43.45537" lon="6.43494">
        <ele>235</ele>
        <time>2021-04-05T12:43:47Z</time>
      </trkpt>
      <trkpt lat="43.45539" lon="6.43488">
        <ele>232.2</ele>
        <time>2021-04-05T12:44:03Z</time>
      </trkpt>
      <trkpt lat="43.45537" lon="6.43482">
        <ele>230.2</ele>
        <time>2021-04-05T12:44:17Z</time>
      </trkpt>
      <trkpt lat="43.45533" lon="6.43478">
        <ele>228.7</ele>
        <time>2021-04-05T12:44:27Z</time>
      </trkpt>
      <trkpt lat="43.45529" lon="6.43475">
        <ele>227.7</ele>
        <time>2021-04-05T12:44:33Z</time>
      </trkpt>
      <trkpt lat="43.45525" lon="6.43472">
        <ele>226.5</ele>
        <time>2021-04-05T12:44:41Z</time>
      </trkpt>
      <trkpt lat="43.4552" lon="6.4347">
        <ele>225.9</ele>
        <time>2021-04-05T12:44:47Z</time>
      </trkpt>
      <trkpt lat="43.45516" lon="6.43467">
        <ele>225.3</ele>
        <time>2021-04-05T12:44:54Z</time>
      </trkpt>
      <trkpt lat="43.45513" lon="6.43463">
        <ele>224.8</ele>
        <time>2021-04-05T12:45:02Z</time>
      </trkpt>
      <trkpt lat="43.45508" lon="6.43459">
        <ele>224.2</ele>
        <time>2021-04-05T12:45:09Z</time>
      </trkpt>
      <trkpt lat="43.45508" lon="6.43453">
        <ele>219.5</ele>
        <time>2021-04-05T12:45:43Z</time>
      </trkpt>
      <trkpt lat="43.45504" lon="6.4345">
        <ele>218.6</ele>
        <time>2021-04-05T12:45:51Z</time>
      </trkpt>
      <trkpt lat="43.45499" lon="6.43449">
        <ele>217.8</ele>
        <time>2021-04-05T12:45:58Z</time>
      </trkpt>
      <trkpt lat="43.45494" lon="6.43447">
        <ele>215.9</ele>
        <time>2021-04-05T12:46:27Z</time>
      </trkpt>
      <trkpt lat="43.4549" lon="6.43443">
        <ele>214.8</ele>
        <time>2021-04-05T12:46:48Z</time>
      </trkpt>
      <trkpt lat="43.45486" lon="6.4344">
        <ele>213.4</ele>
        <time>2021-04-05T12:46:56Z</time>
      </trkpt>
      <trkpt lat="43.45481" lon="6.43441">
        <ele>211.5</ele>
        <time>2021-04-05T12:47:10Z</time>
      </trkpt>
      <trkpt lat="43.45481" lon="6.43434">
        <ele>209.7</ele>
        <time>2021-04-05T12:47:40Z</time>
      </trkpt>
      <trkpt lat="43.45483" lon="6.43428">
        <ele>207.2</ele>
        <time>2021-04-05T12:48:03Z</time>
      </trkpt>
      <trkpt lat="43.4548" lon="6.43423">
        <ele>206.1</ele>
        <time>2021-04-05T12:48:13Z</time>
      </trkpt>
      <trkpt lat="43.45477" lon="6.43418">
        <ele>205.4</ele>
        <time>2021-04-05T12:48:19Z</time>
      </trkpt>
      <trkpt lat="43.45473" lon="6.43415">
        <ele>204</ele>
        <time>2021-04-05T12:48:30Z</time>
      </trkpt>
      <trkpt lat="43.45468" lon="6.43413">
        <ele>202.7</ele>
        <time>2021-04-05T12:48:39Z</time>
      </trkpt>
      <trkpt lat="43.45463" lon="6.43414">
        <ele>200.9</ele>
        <time>2021-04-05T12:48:49Z</time>
      </trkpt>
      <trkpt lat="43.45461" lon="6.4342">
        <ele>199.3</ele>
        <time>2021-04-05T12:49:11Z</time>
      </trkpt>
      <trkpt lat="43.45459" lon="6.43426">
        <ele>199</ele>
        <time>2021-04-05T12:49:23Z</time>
      </trkpt>
      <trkpt lat="43.45456" lon="6.43431">
        <ele>199.1</ele>
        <time>2021-04-05T12:49:29Z</time>
      </trkpt>
      <trkpt lat="43.45452" lon="6.43434">
        <ele>199.3</ele>
        <time>2021-04-05T12:49:34Z</time>
      </trkpt>
      <trkpt lat="43.45448" lon="6.43437">
        <ele>199.4</ele>
        <time>2021-04-05T12:49:39Z</time>
      </trkpt>
      <trkpt lat="43.45443" lon="6.43441">
        <ele>199.6</ele>
        <time>2021-04-05T12:49:49Z</time>
      </trkpt>
      <trkpt lat="43.45439" lon="6.43443">
        <ele>199.5</ele>
        <time>2021-04-05T12:49:53Z</time>
      </trkpt>
      <trkpt lat="43.45434" lon="6.43446">
        <ele>198.8</ele>
        <time>2021-04-05T12:49:59Z</time>
      </trkpt>
      <trkpt lat="43.45432" lon="6.43452">
        <ele>197.3</ele>
        <time>2021-04-05T12:50:13Z</time>
      </trkpt>
      <trkpt lat="43.45435" lon="6.43458">
        <ele>196.5</ele>
        <time>2021-04-05T12:50:48Z</time>
      </trkpt>
      <trkpt lat="43.45434" lon="6.43451">
        <ele>196.6</ele>
        <time>2021-04-05T12:51:09Z</time>
      </trkpt>
      <trkpt lat="43.45429" lon="6.43448">
        <ele>196.4</ele>
        <time>2021-04-05T12:51:18Z</time>
      </trkpt>
      <trkpt lat="43.45424" lon="6.43446">
        <ele>195.9</ele>
        <time>2021-04-05T12:51:25Z</time>
      </trkpt>
      <trkpt lat="43.45419" lon="6.43448">
        <ele>195.4</ele>
        <time>2021-04-05T12:51:31Z</time>
      </trkpt>
      <trkpt lat="43.45414" lon="6.43448">
        <ele>194.9</ele>
        <time>2021-04-05T12:51:39Z</time>
      </trkpt>
      <trkpt lat="43.45412" lon="6.43453">
        <ele>194.5</ele>
        <time>2021-04-05T12:51:47Z</time>
      </trkpt>
      <trkpt lat="43.45407" lon="6.43453">
        <ele>192.9</ele>
        <time>2021-04-05T12:52:03Z</time>
      </trkpt>
      <trkpt lat="43.45402" lon="6.4345">
        <ele>192.2</ele>
        <time>2021-04-05T12:52:09Z</time>
      </trkpt>
      <trkpt lat="43.45405" lon="6.43444">
        <ele>190.1</ele>
        <time>2021-04-05T12:52:25Z</time>
      </trkpt>
      <trkpt lat="43.45407" lon="6.43438">
        <ele>188.9</ele>
        <time>2021-04-05T12:52:34Z</time>
      </trkpt>
      <trkpt lat="43.45409" lon="6.43432">
        <ele>188.1</ele>
        <time>2021-04-05T12:52:41Z</time>
      </trkpt>
      <trkpt lat="43.45412" lon="6.43427">
        <ele>187.1</ele>
        <time>2021-04-05T12:52:52Z</time>
      </trkpt>
      <trkpt lat="43.45412" lon="6.43421">
        <ele>186.6</ele>
        <time>2021-04-05T12:52:57Z</time>
      </trkpt>
      <trkpt lat="43.45411" lon="6.43414">
        <ele>185.7</ele>
        <time>2021-04-05T12:53:04Z</time>
      </trkpt>
      <trkpt lat="43.45409" lon="6.43409">
        <ele>185.1</ele>
        <time>2021-04-05T12:53:11Z</time>
      </trkpt>
      <trkpt lat="43.45404" lon="6.43407">
        <ele>184.5</ele>
        <time>2021-04-05T12:53:20Z</time>
      </trkpt>
      <trkpt lat="43.454" lon="6.43403">
        <ele>184</ele>
        <time>2021-04-05T12:53:34Z</time>
      </trkpt>
      <trkpt lat="43.45395" lon="6.43402">
        <ele>183.2</ele>
        <time>2021-04-05T12:53:45Z</time>
      </trkpt>
      <trkpt lat="43.4539" lon="6.43405">
        <ele>182.4</ele>
        <time>2021-04-05T12:53:55Z</time>
      </trkpt>
      <trkpt lat="43.45386" lon="6.43409">
        <ele>181.2</ele>
        <time>2021-04-05T12:54:03Z</time>
      </trkpt>
      <trkpt lat="43.45382" lon="6.43413">
        <ele>180.5</ele>
        <time>2021-04-05T12:54:09Z</time>
      </trkpt>
      <trkpt lat="43.45377" lon="6.43411">
        <ele>180.1</ele>
        <time>2021-04-05T12:54:13Z</time>
      </trkpt>
      <trkpt lat="43.45374" lon="6.43416">
        <ele>179.8</ele>
        <time>2021-04-05T12:54:17Z</time>
      </trkpt>
      <trkpt lat="43.45369" lon="6.43416">
        <ele>179.6</ele>
        <time>2021-04-05T12:54:21Z</time>
      </trkpt>
      <trkpt lat="43.45364" lon="6.43417">
        <ele>179.5</ele>
        <time>2021-04-05T12:54:25Z</time>
      </trkpt>
      <trkpt lat="43.45361" lon="6.43421">
        <ele>179.3</ele>
        <time>2021-04-05T12:54:31Z</time>
      </trkpt>
      <trkpt lat="43.45356" lon="6.43422">
        <ele>179.3</ele>
        <time>2021-04-05T12:54:35Z</time>
      </trkpt>
      <trkpt lat="43.45351" lon="6.43425">
        <ele>179.4</ele>
        <time>2021-04-05T12:54:41Z</time>
      </trkpt>
      <trkpt lat="43.45346" lon="6.43427">
        <ele>179.4</ele>
        <time>2021-04-05T12:54:47Z</time>
      </trkpt>
      <trkpt lat="43.45343" lon="6.43432">
        <ele>179.1</ele>
        <time>2021-04-05T12:54:56Z</time>
      </trkpt>
      <trkpt lat="43.45339" lon="6.43435">
        <ele>178.9</ele>
        <time>2021-04-05T12:55:02Z</time>
      </trkpt>
      <trkpt lat="43.45337" lon="6.43441">
        <ele>177.7</ele>
        <time>2021-04-05T12:55:20Z</time>
      </trkpt>
      <trkpt lat="43.45333" lon="6.43442">
        <ele>177.4</ele>
        <time>2021-04-05T12:55:30Z</time>
      </trkpt>
      <trkpt lat="43.45328" lon="6.43441">
        <ele>177.4</ele>
        <time>2021-04-05T12:55:36Z</time>
      </trkpt>
      <trkpt lat="43.45325" lon="6.43436">
        <ele>177.3</ele>
        <time>2021-04-05T12:55:44Z</time>
      </trkpt>
      <trkpt lat="43.45323" lon="6.4343">
        <ele>176.8</ele>
        <time>2021-04-05T12:55:59Z</time>
      </trkpt>
      <trkpt lat="43.4532" lon="6.43425">
        <ele>175.2</ele>
        <time>2021-04-05T12:56:25Z</time>
      </trkpt>
      <trkpt lat="43.45325" lon="6.43428">
        <ele>174.6</ele>
        <time>2021-04-05T12:56:51Z</time>
      </trkpt>
      <trkpt lat="43.4533" lon="6.4343">
        <ele>174.5</ele>
        <time>2021-04-05T12:56:55Z</time>
      </trkpt>
      <trkpt lat="43.45335" lon="6.43433">
        <ele>174.4</ele>
        <time>2021-04-05T12:57:00Z</time>
      </trkpt>
      <trkpt lat="43.4534" lon="6.43433">
        <ele>174.2</ele>
        <time>2021-04-05T12:57:06Z</time>
      </trkpt>
      <trkpt lat="43.45344" lon="6.43431">
        <ele>173.9</ele>
        <time>2021-04-05T12:57:13Z</time>
      </trkpt>
      <trkpt lat="43.45349" lon="6.43433">
        <ele>173.7</ele>
        <time>2021-04-05T12:57:21Z</time>
      </trkpt>
      <trkpt lat="43.45353" lon="6.43429">
        <ele>173.6</ele>
        <time>2021-04-05T12:57:30Z</time>
      </trkpt>
      <trkpt lat="43.45349" lon="6.43428">
        <ele>174.4</ele>
        <time>2021-04-05T12:58:08Z</time>
      </trkpt>
    </trkseg>
  </trk>
</gpx>